GFSMW_925_thetae_000.txt.gz
Theta_e
315 316 317 318 319 319 319 320 321 323 326 329 330 331 332 333 333 333 333 333 332 331 329 328 328 327 326 325 325 324 323 322 321 321 321 321 322 322 321 320 320 321 320
315 314 316 316 316 318 319 319 320 322 326 325 329 331 331 332 332 332 333 333 333 333 332 332 331 330 328 326 325 324 323 322 322 322 322 323 324 323 323 322 321 320 319
316 314 314 315 315 315 315 316 319 321 322 326 327 328 331 332 332 331 331 331 331 331 331 331 332 331 329 328 327 326 324 324 325 323 323 324 324 315 321 321 321 321 321
314 313 313 314 315 315 316 316 315 315 316 319 321 322 322 323 323 324 324 324 325 325 326 327 328 330 330 329 329 328 327 326 325 326 323 323 325 325 326 325 322 322 321
313 313 313 315 315 316 316 315 315 315 315 315 315 315 314 315 315 315 315 315 315 314 314 314 316 325 329 329 329 329 329 328 327 327 327 324 323 324 324 326 324 324 323
313 313 314 315 315 315 315 315 315 315 315 315 315 314 314 314 314 314 314 314 314 314 314 313 313 313 315 322 327 328 330 330 330 329 329 327 326 325 325 325 325 325 325
312 312 312 313 314 314 314 315 315 314 314 314 314 314 314 314 313 313 313 313 312 311 310 309 309 309 310 311 312 315 322 327 328 328 327 328 328 328 327 327 327 328 327
312 312 311 313 314 314 313 313 312 313 313 312 313 313 313 313 312 312 311 311 309 308 307 307 306 306 306 306 307 310 311 314 318 319 321 324 325 326 326 327 327 328 327
312 312 311 313 313 312 311 312 312 312 312 312 312 312 311 310 309 309 307 306 305 305 304 305 305 306 307 307 306 308 309 310 311 312 313 316 319 321 323 324 325 325 326
311 311 311 312 311 311 311 312 311 310 309 309 308 308 308 307 306 305 304 303 303 303 303 304 305 306 306 307 307 308 308 309 310 311 312 313 315 316 319 321 322 323 323
311 310 310 310 310 310 310 309 308 307 306 305 305 305 304 304 303 302 301 300 300 301 302 303 304 305 305 305 305 306 306 307 308 310 309 312 313 314 316 317 319 319 320
310 309 308 309 309 309 308 306 305 304 303 303 303 302 301 301 299 298 297 297 297 298 298 300 301 301 300 302 304 305 305 306 304 305 307 310 311 312 313 314 315 316 316
309 306 305 307 308 307 305 303 302 301 300 300 299 299 297 296 295 294 294 293 294 295 296 297 297 297 299 301 300 303 303 302 303 304 307 308 308 307 308 310 311 312 313
307 304 305 306 306 304 302 301 299 298 297 297 296 295 293 292 291 290 290 290 291 293 293 293 293 295 298 296 299 301 299 302 302 306 303 302 302 303 306 307 308 309 311
306 305 306 304 303 301 299 298 297 296 295 294 293 291 289 288 288 288 289 289 290 290 291 291 291 292 295 294 298 296 296 299 302 299 297 298 298 300 304 300 301 305 306
305 308 305 302 300 299 297 296 295 294 292 292 290 288 287 287 287 287 288 288 288 288 289 289 290 292 290 292 294 294 295 300 298 296 295 297 297 301 297 295 298 301 303
308 306 302 300 299 297 296 295 293 291 289 289 287 287 287 286 286 286 287 287 287 287 288 288 289 288 289 290 291 293 293 292 293 293 292 293 297 296 293 294 297 296 298
305 302 300 298 297 295 294 292 290 288 287 287 287 286 286 286 286 286 286 286 286 286 286 287 287 287 287 288 290 292 290 288 289 291 291 294 295 294 294 295 295 295 297
301 300 298 297 295 292 291 289 287 287 286 286 286 286 286 285 285 285 285 285 285 285 286 286 286 286 286 288 290 289 288 289 290 290 291 293 294 294 294 294 294 296 297
300 298 297 295 292 289 288 287 286 286 285 285 285 285 285 285 285 285 285 285 285 285 285 285 285 285 286 287 288 288 289 289 289 290 291 292 292 292 292 293 294 296 298
298 296 294 291 289 287 287 286 286 285 285 285 285 285 285 285 284 284 284 284 284 284 284 284 284 285 286 287 288 288 289 289 290 290 291 290 290 290 291 293 295 296 296
295 293 291 289 287 287 286 285 285 284 284 285 285 285 284 284 284 284 284 284 284 284 284 284 285 285 286 287 287 288 289 289 289 290 289 289 289 291 292 293 294 294 294
292 290 289 288 287 286 285 284 284 284 284 284 284 284 284 283 283 284 283 283 283 283 284 284 285 286 286 286 287 288 288 289 289 288 289 288 290 290 290 290 292 292 290
289 288 287 286 286 285 285 284 284 284 284 284 284 283 283 283 283 283 283 283 283 283 284 285 285 286 286 286 287 287 287 287 288 288 287 287 287 287 287 288 289 290 289
289 287 286 285 285 285 284 284 284 284 284 283 283 283 283 283 283 283 283 283 283 284 285 285 285 285 286 286 287 287 287 288 287 286 286 286 285 285 286 287 288 289 289
287 286 285 285 284 284 284 284 284 284 283 283 283 283 283 283 283 282 282 282 283 284 284 284 285 285 285 286 285 286 287 287 284 284 285 284 284 284 285 286 287 288 289

GFSMW_925_thetae_003.txt.gz
Theta_e
313 314 314 315 317 318 319 319 321 324 323 326 328 329 330 331 331 332 332 332 332 331 330 330 329 329 327 327 325 324 323 322 322 319 321 321 321 321 321 321 321 321 321
312 312 314 314 314 315 316 318 320 322 325 323 327 329 330 330 331 330 330 330 331 331 331 331 330 330 328 327 327 325 323 322 323 322 322 324 324 324 323 322 322 323 323
313 312 312 313 314 314 314 314 315 317 319 325 326 328 328 326 321 320 319 319 319 319 319 319 321 324 327 327 327 326 324 324 325 324 323 325 325 319 324 323 322 322 322
312 312 311 312 313 313 314 314 314 314 314 314 315 314 314 315 313 313 313 313 313 312 312 312 312 312 316 323 326 327 326 325 324 325 325 323 324 327 328 325 324 322 321
312 312 311 313 313 314 313 313 313 313 314 314 314 314 313 313 313 313 313 313 312 310 309 307 307 306 307 308 309 313 322 326 326 327 327 327 324 323 324 326 324 325 324
311 311 312 312 312 313 313 313 313 312 312 313 313 312 312 312 311 311 310 309 308 307 306 305 305 305 305 306 306 306 307 311 318 322 324 324 324 324 324 326 326 325 325
311 310 310 311 311 311 312 312 312 311 311 311 311 311 310 309 308 306 305 305 304 304 303 303 303 303 304 305 306 305 305 307 308 310 313 316 319 320 321 322 322 322 322
310 310 310 310 310 310 310 311 310 310 310 310 309 308 307 306 305 304 303 302 302 301 301 301 301 302 302 304 304 304 305 306 307 308 308 310 312 314 317 319 319 319 319
310 309 309 309 308 309 309 309 308 307 307 306 305 305 304 303 302 301 299 298 298 298 298 298 299 300 301 302 301 303 304 305 305 306 307 308 307 310 312 313 316 317 319
310 309 308 307 308 309 308 307 305 304 304 304 303 302 300 299 298 297 296 295 295 295 295 296 297 298 299 298 300 302 302 304 304 303 302 303 305 308 310 311 312 313 314
309 308 306 307 308 307 305 305 304 303 302 301 300 299 296 295 293 292 291 290 290 291 292 293 294 294 295 296 299 298 300 303 300 301 302 303 305 307 306 305 306 308 310
308 306 306 307 306 305 303 302 301 300 299 298 297 294 293 291 289 288 288 288 288 289 289 290 291 291 292 294 296 295 300 297 297 300 300 302 304 302 302 301 303 306 306
307 304 305 305 304 303 300 299 298 297 296 295 294 291 289 288 287 287 287 287 287 287 288 289 289 289 290 293 292 293 296 294 294 296 298 302 298 300 298 298 303 300 298
306 304 305 304 302 300 299 297 296 294 293 293 291 288 287 287 287 286 286 286 286 287 287 287 288 288 289 289 290 292 293 293 295 297 298 295 295 295 296 299 297 295 297
304 305 305 302 300 298 296 295 295 293 291 290 288 287 287 286 286 286 286 286 286 286 286 286 286 287 287 288 289 291 292 294 291 290 291 291 291 290 294 298 296 294 296
303 306 304 300 298 296 295 294 292 290 288 287 287 286 286 286 286 286 285 285 285 285 285 285 285 286 286 287 289 290 292 291 288 287 288 290 290 290 294 294 294 295 295
305 305 301 299 297 294 294 292 290 288 287 286 286 286 285 285 285 285 285 285 285 285 284 285 285 285 285 286 288 289 290 288 288 288 289 289 289 290 293 292 293 293 293
305 301 298 297 294 293 292 290 287 287 286 285 285 285 285 285 285 284 284 284 284 284 284 284 284 284 284 286 287 288 288 288 288 288 288 289 289 290 291 291 291 291 291
300 299 297 295 293 292 290 287 286 286 285 285 285 285 285 285 284 284 284 284 284 283 283 284 284 284 284 285 286 287 288 288 288 288 289 289 289 289 289 290 290 290 291
299 297 296 294 292 288 287 286 285 285 284 284 284 284 284 284 284 284 283 283 283 283 283 283 283 283 284 284 286 287 287 288 288 289 289 289 288 288 289 289 290 291 293
297 296 294 291 288 286 286 285 284 284 284 284 284 284 284 284 283 283 283 283 283 283 282 283 283 283 284 285 286 287 287 288 288 289 288 288 288 289 288 289 289 291 291
294 293 291 288 286 286 285 285 284 284 284 284 284 284 283 283 283 283 283 283 282 282 282 282 283 284 284 285 285 286 287 288 288 287 287 287 287 286 287 286 286 287 289
292 291 290 287 286 285 285 284 284 284 283 283 283 283 283 283 283 283 282 282 282 282 282 282 283 284 284 284 285 285 287 287 287 287 287 285 285 285 284 284 285 286 287
290 289 287 286 285 285 284 284 284 283 283 283 283 282 282 283 283 282 282 282 282 282 282 283 284 284 284 284 285 285 286 286 286 288 284 283 283 283 283 283 284 285 285
289 287 286 285 285 284 284 284 284 283 283 282 282 282 282 282 282 282 282 282 282 283 284 284 284 284 284 284 285 286 285 285 287 285 282 282 283 282 282 282 283 284 284
287 286 285 284 284 284 284 284 283 283 282 282 282 282 282 282 282 282 281 281 282 283 283 283 283 283 283 284 284 284 285 286 285 283 282 281 282 281 281 282 282 283 283

GFSMW_925_thetae_006.txt.gz
Theta_e
311 312 313 314 315 316 318 320 323 325 323 325 327 328 328 329 329 329 329 329 329 329 329 328 327 327 326 326 326 324 323 323 323 320 321 322 323 323 323 324 323 322 323
311 311 312 313 313 313 314 316 318 323 325 325 327 328 329 325 318 316 317 317 315 315 314 314 314 315 319 322 324 325 323 323 323 321 322 324 325 324 325 324 323 323 322
312 310 310 311 312 312 313 313 314 315 317 322 323 323 315 313 313 312 312 312 311 310 310 308 307 307 307 308 310 317 322 323 323 323 322 325 327 325 325 325 324 324 323
312 311 310 310 311 311 312 313 313 313 313 314 313 313 312 311 311 311 311 310 309 307 306 305 304 304 304 305 306 306 307 312 320 321 323 324 323 325 325 324 324 324 324
310 310 309 310 311 312 311 312 312 312 312 312 312 312 311 310 309 308 307 306 305 304 304 303 303 302 303 303 304 305 305 305 309 312 316 317 318 319 320 321 319 319 321
310 309 310 310 310 311 311 311 311 310 310 310 309 308 307 306 305 304 304 303 302 302 301 300 300 300 300 301 302 302 302 303 305 306 307 309 311 313 314 315 314 315 317
309 309 308 308 309 310 310 310 310 308 308 307 306 305 304 303 302 300 299 299 298 298 297 297 297 297 298 299 299 299 301 302 303 304 305 306 308 309 310 311 312 314 313
308 308 307 307 308 309 309 308 307 306 306 304 303 302 302 300 298 297 296 294 294 294 293 292 292 293 293 294 297 299 299 300 302 303 304 303 303 304 306 309 310 310 310
308 308 306 306 307 308 307 306 305 304 303 302 302 300 298 297 294 292 291 290 290 290 290 290 290 290 290 291 293 297 297 297 300 302 299 300 301 302 304 307 308 308 307
308 307 305 306 307 306 304 303 303 302 301 300 299 296 294 292 290 289 288 288 288 288 288 288 289 289 289 289 290 295 292 296 299 295 295 298 299 300 304 303 303 303 304
308 306 304 306 306 304 302 301 301 300 298 297 295 293 291 289 288 288 287 287 287 287 287 287 288 287 288 288 289 291 292 293 294 292 293 295 297 300 298 300 298 297 300
307 305 304 305 303 301 300 299 298 297 295 295 293 289 288 287 287 287 286 286 286 287 287 287 287 287 287 287 288 289 289 292 291 292 294 296 297 294 295 295 293 296 299
306 304 304 303 302 299 297 296 296 295 293 291 289 288 287 287 286 286 286 286 286 286 286 286 286 286 286 286 287 288 289 290 290 293 290 289 291 291 290 290 291 295 296
306 304 304 302 300 297 296 295 294 293 291 289 287 287 286 286 286 286 286 286 285 285 285 285 285 285 285 286 286 288 289 290 291 289 288 287 288 289 290 290 291 294 294
305 306 304 300 297 296 295 294 293 291 289 287 287 286 286 286 286 285 285 285 285 285 285 285 285 284 284 285 287 288 289 289 289 288 287 288 288 289 289 290 291 292 292
304 305 302 299 296 295 294 293 291 289 287 286 286 286 286 285 285 285 285 285 284 284 284 284 284 284 284 285 287 288 288 288 287 287 287 287 288 288 289 289 290 290 290
303 304 300 298 295 294 294 292 289 287 286 286 286 285 285 285 285 284 284 284 284 284 283 283 283 283 283 284 286 287 287 287 287 287 287 287 288 288 289 289 289 289 290
304 301 298 295 294 293 291 289 287 286 286 285 285 285 284 284 284 284 284 284 283 283 283 283 283 283 283 284 285 286 287 287 287 287 287 288 288 288 288 288 289 289 288
300 299 298 295 293 291 289 287 286 286 285 284 284 284 284 284 284 283 283 283 283 282 282 282 282 282 282 283 285 286 286 286 286 287 287 288 288 287 288 289 288 287 288
299 296 295 293 291 288 287 286 285 284 284 284 284 284 284 283 283 283 283 283 282 282 282 282 282 282 282 283 285 286 286 286 286 287 288 287 287 287 288 286 287 286 285
296 294 293 291 289 287 286 285 284 284 284 284 284 284 283 283 283 283 283 283 282 282 281 281 281 282 282 284 284 285 286 286 287 287 286 286 286 288 285 285 285 284 285
294 293 291 289 287 286 285 284 284 284 284 283 283 283 283 283 282 283 283 282 282 281 281 281 281 282 283 284 284 284 285 286 287 286 285 286 286 284 284 284 283 284 284
293 291 290 287 286 285 285 284 284 283 283 283 283 283 282 282 282 282 282 281 281 281 281 281 282 283 283 283 283 284 285 286 285 285 286 283 283 282 282 282 282 282 282
291 290 288 286 285 285 284 284 283 283 283 283 282 282 282 282 282 282 282 281 281 281 281 282 283 283 283 283 283 284 285 285 285 286 285 283 282 281 281 281 280 280 281
290 288 286 285 285 284 284 284 283 283 282 282 282 282 281 282 282 281 281 281 281 282 283 283 283 283 283 283 284 284 284 285 285 284 283 282 281 281 280 280 280 280 280
288 286 285 284 284 284 284 283 283 282 282 281 281 281 281 282 281 281 281 281 281 282 282 282 283 283 283 283 284 283 284 284 282 281 281 281 281 280 280 280 280 279 280

GFSMW_925_thetae_009.txt.gz
Theta_e
312 311 311 313 314 316 318 322 324 323 325 326 327 328 325 321 319 317 316 315 314 313 311 311 310 310 315 316 317 319 320 321 322 321 321 322 322 324 324 324 322 322 323
313 311 310 311 312 312 313 315 319 324 326 328 328 325 316 313 312 311 310 309 308 307 306 305 305 305 305 307 309 312 312 314 316 320 321 324 322 322 323 323 323 323 323
313 312 311 310 311 311 312 313 313 314 318 321 315 313 313 312 311 309 307 306 306 305 304 304 303 303 303 304 305 307 308 308 309 311 314 319 319 317 315 318 320 322 322
312 312 311 310 310 310 312 312 313 313 313 313 313 312 309 308 306 305 304 304 304 303 302 301 300 300 301 302 303 303 304 305 306 307 309 309 310 312 314 310 312 312 317
313 311 310 309 309 310 311 311 311 311 310 310 309 307 305 304 303 303 303 302 300 299 297 296 296 296 299 299 300 301 302 303 304 305 306 306 307 308 312 313 311 310 310
311 310 308 309 309 309 309 309 308 307 307 307 305 305 303 302 301 300 298 297 296 296 293 292 293 295 295 296 297 298 300 301 301 303 304 305 306 307 307 309 309 309 308
311 310 309 308 308 308 308 307 307 304 304 303 302 301 300 298 296 295 294 293 293 293 292 290 291 292 292 293 293 294 297 297 298 301 303 302 301 300 301 303 307 308 307
311 310 308 308 307 307 306 305 304 303 302 301 299 298 296 294 292 291 290 290 291 291 289 289 289 289 289 289 291 292 295 293 296 300 298 296 294 296 298 301 304 305 304
310 309 307 307 306 305 304 303 302 301 300 298 296 295 293 291 289 289 288 288 288 289 288 288 288 288 288 289 289 290 292 292 292 294 293 293 294 297 298 300 301 301 303
310 308 306 306 304 303 302 301 300 299 297 296 294 292 290 289 288 288 288 287 287 287 287 287 287 288 287 288 288 289 290 290 290 292 291 293 294 295 297 295 295 297 296
310 308 306 305 302 301 300 299 298 297 296 294 292 290 288 288 287 287 287 287 287 286 286 286 286 286 287 287 287 287 288 288 290 290 291 293 292 290 290 292 292 292 291
309 306 305 303 300 298 298 297 296 295 293 291 289 288 288 287 287 287 286 286 286 286 285 285 285 285 285 286 286 286 287 288 289 290 291 290 289 288 288 289 290 290 290
307 305 304 302 299 297 296 295 294 293 291 289 288 288 287 287 286 286 286 286 285 285 285 285 285 285 285 285 285 286 287 288 288 289 290 288 288 288 288 289 289 290 290
307 306 305 302 298 296 295 294 293 291 289 288 288 287 287 286 285 285 285 285 285 285 284 284 284 284 284 284 285 287 287 288 288 288 288 287 287 287 288 289 290 290 290
306 306 304 301 297 294 294 293 292 290 288 287 287 286 286 285 285 285 285 284 284 284 284 283 283 283 283 284 286 287 287 287 287 287 287 287 287 288 288 289 290 290 290
306 306 304 299 296 294 294 293 291 288 287 286 286 285 285 285 285 284 284 284 284 283 283 283 283 283 283 284 285 286 287 287 287 287 286 286 287 287 288 288 289 289 289
305 306 303 299 295 294 294 292 289 287 286 285 285 285 285 284 284 284 284 284 283 283 282 282 282 282 282 283 285 286 286 286 286 286 286 286 287 287 288 288 288 289 288
304 304 299 296 294 293 292 290 287 286 285 285 285 284 284 284 284 284 283 283 283 282 282 282 282 282 282 283 284 285 286 286 285 285 286 286 287 288 287 287 288 287 286
302 300 298 295 293 292 290 288 286 285 285 285 284 284 284 283 283 283 283 283 282 282 282 282 281 281 282 283 284 285 285 285 285 285 286 287 287 286 287 288 286 285 285
299 297 294 293 292 289 288 286 285 285 284 284 284 283 283 283 283 283 282 282 282 282 281 281 281 281 282 282 284 285 285 285 285 286 286 286 285 286 287 285 285 285 284
295 294 293 292 290 287 286 285 284 284 284 283 283 283 283 282 282 282 283 282 282 281 281 281 281 281 282 283 284 284 285 285 286 286 285 285 285 286 285 284 283 283 284
293 293 290 288 287 286 286 284 284 284 284 283 283 283 283 282 282 282 282 281 281 281 281 281 281 282 283 283 283 284 284 285 285 285 285 285 286 284 283 282 282 283 282
293 291 290 287 286 285 285 284 284 284 283 283 283 282 282 282 282 282 281 281 281 281 281 281 282 283 283 283 283 283 284 285 284 285 285 283 282 283 282 281 281 281 280
291 290 288 286 285 285 284 284 283 283 283 282 282 282 282 282 282 281 281 281 281 281 281 282 283 283 283 283 283 284 284 284 285 284 282 281 281 282 281 280 280 280 280
290 289 287 286 285 284 284 283 283 283 282 282 282 282 281 281 281 280 280 281 281 281 282 282 282 283 283 283 284 284 283 284 284 282 281 280 281 280 280 280 280 280 280
288 287 286 285 284 283 283 283 282 282 282 281 281 281 281 281 280 280 280 281 281 282 282 282 282 282 282 283 283 283 283 283 281 281 280 280 280 280 279 279 279 279 279

GFSMW_925_thetae_012.txt.gz
Theta_e
317 316 316 317 317 318 321 324 327 328 329 330 330 327 322 319 315 313 312 311 310 310 310 310 310 310 310 310 310 310 310 311 311 310 312 313 315 319 317 323 323 319 321
317 316 315 315 315 316 316 319 323 327 329 330 325 320 316 314 312 311 310 309 308 307 307 307 307 307 308 308 307 308 308 308 308 309 310 313 312 313 312 310 311 314 313
318 317 316 315 315 315 315 315 316 317 317 317 316 315 314 313 312 310 308 306 306 304 304 304 304 304 304 305 304 304 305 305 305 306 307 310 311 311 307 308 309 310 311
317 317 316 315 315 314 314 313 313 313 314 314 314 313 312 310 308 307 306 305 303 301 299 300 300 300 300 300 300 300 301 302 302 302 303 304 305 309 309 307 307 307 308
317 317 315 314 313 313 313 312 311 310 310 310 310 309 308 307 305 304 303 302 301 299 296 296 296 297 296 297 297 297 298 299 299 300 301 303 304 304 307 307 304 303 302
317 316 314 313 313 312 311 310 309 308 307 306 306 305 304 303 303 301 300 299 297 297 295 294 294 294 294 294 294 295 296 298 297 297 299 301 302 301 301 300 301 302 300
316 315 315 314 313 312 310 308 307 305 304 303 302 302 301 300 298 297 296 295 295 294 293 293 293 292 292 292 292 293 294 296 295 296 298 298 296 296 295 296 301 302 301
317 316 315 314 312 311 309 307 306 304 302 301 299 298 297 296 295 294 294 293 292 292 291 291 291 291 291 291 291 292 292 293 293 293 293 295 293 294 295 297 300 302 301
317 315 314 313 311 309 307 306 305 302 300 298 297 295 294 293 293 292 292 291 291 290 290 290 290 290 290 290 290 291 291 291 292 291 293 292 293 294 295 295 295 297 299
316 315 313 312 309 307 305 304 303 300 298 296 295 293 292 291 291 291 290 290 290 289 289 289 289 289 289 289 289 290 290 290 290 290 291 292 292 293 292 291 290 292 294
316 314 313 310 307 305 304 302 300 298 296 294 293 292 291 290 290 290 289 289 289 288 288 288 288 288 288 288 288 288 288 289 289 290 290 290 291 291 290 289 290 290 290
316 313 312 309 306 304 302 300 299 297 295 293 292 291 290 290 289 289 288 288 288 288 287 287 287 287 287 287 287 287 288 288 289 289 289 289 289 289 289 289 289 290 290
315 313 311 308 306 303 301 299 298 295 293 292 291 290 290 289 289 288 288 287 287 287 287 287 287 287 286 286 287 287 287 288 289 289 289 288 288 288 288 288 289 290 290
314 313 311 309 305 302 300 298 296 294 291 290 290 289 289 288 288 287 287 287 286 286 286 286 286 286 286 286 286 286 287 288 288 288 288 288 288 288 288 288 289 289 289
314 312 312 309 305 301 299 296 294 292 290 289 289 288 288 287 287 287 287 286 286 286 286 286 286 285 285 285 285 286 287 287 287 288 287 287 287 287 287 288 289 289 289
313 312 311 309 304 301 298 295 293 290 289 288 288 287 287 287 287 286 286 286 286 286 286 286 285 285 285 284 285 286 286 287 287 287 287 286 286 287 287 288 288 288 289
312 312 311 308 302 299 297 296 292 289 288 287 287 286 286 286 286 286 285 286 286 286 285 285 285 284 284 284 284 285 286 286 286 286 286 286 286 287 287 287 287 288 288
311 311 309 304 300 297 295 292 290 289 287 287 286 286 286 285 285 285 285 286 285 285 285 285 284 284 284 283 284 285 286 286 286 286 286 286 286 287 286 287 287 288 287
308 309 306 301 297 295 293 291 289 287 287 287 286 285 285 285 285 285 285 285 285 285 284 284 284 283 283 283 284 285 285 285 285 285 286 286 286 286 286 288 288 286 285
304 303 299 297 296 292 290 290 288 286 287 286 285 285 284 284 284 285 285 284 284 284 284 283 283 283 283 283 284 285 285 285 285 285 286 285 285 286 287 286 286 285 284
300 297 296 296 293 290 289 288 286 286 285 285 284 284 284 284 284 284 284 284 284 284 283 283 283 283 283 284 284 284 285 285 286 286 286 285 285 285 284 284 284 284 283
297 296 295 293 290 289 287 286 286 285 284 284 284 284 284 284 283 284 284 284 283 283 283 283 283 284 284 284 284 284 284 285 285 285 285 285 284 283 282 283 283 282 282
296 294 294 291 289 287 286 286 286 284 284 284 284 284 284 284 284 284 283 283 283 283 283 283 284 284 283 284 284 284 284 284 284 284 285 284 282 281 282 282 281 281 281
296 294 292 291 289 286 285 285 284 283 283 284 284 284 284 284 283 283 283 282 282 282 283 283 284 283 283 283 283 284 284 284 284 285 283 282 281 281 281 281 281 281 281
295 293 292 291 289 286 285 284 283 283 283 283 284 284 283 283 283 283 282 282 282 282 283 283 283 283 283 283 283 284 284 284 284 283 281 281 281 281 280 280 280 280 280
294 292 290 289 286 285 284 283 283 283 283 283 284 283 283 283 282 282 282 282 282 282 282 282 282 282 282 283 283 283 283 284 282 281 281 280 280 280 280 280 280 280 280

GFSMW_925_thetae_015.txt.gz
Theta_e
320 320 320 321 322 325 328 330 330 331 332 332 331 326 321 318 315 313 312 311 311 310 310 310 310 309 310 310 309 309 309 309 308 308 309 309 309 310 311 309 308 309 311
320 320 319 319 319 320 324 327 329 331 330 326 323 320 318 315 313 312 310 309 307 306 306 306 306 306 306 306 305 304 304 304 304 305 305 308 307 308 305 305 307 307 309
320 319 319 318 318 318 319 320 320 320 319 319 318 316 315 314 312 310 308 306 305 302 302 302 301 302 301 301 301 300 301 302 302 302 303 305 305 306 304 304 305 305 304
320 319 319 318 318 317 317 316 317 317 317 317 316 316 313 311 309 308 307 305 303 300 298 298 298 299 298 298 298 298 298 299 301 300 300 300 302 305 304 303 302 302 301
319 319 319 317 317 317 315 314 313 313 313 312 312 311 309 308 307 306 305 303 301 299 297 296 296 296 296 296 296 296 297 298 299 298 298 299 300 301 300 300 300 298 298
319 318 317 316 316 315 314 312 311 310 309 309 308 308 307 306 305 303 302 300 299 298 296 295 295 295 294 294 294 294 295 296 297 296 297 297 299 299 298 297 297 298 298
319 318 317 316 315 314 312 310 309 308 306 306 305 304 303 302 300 300 299 298 297 296 294 294 293 293 293 293 293 293 293 294 294 294 295 294 295 296 295 296 297 298 298
319 317 317 316 315 313 311 309 307 306 304 303 302 301 300 299 298 296 296 295 294 293 292 292 292 292 292 292 292 292 292 292 292 293 293 293 294 294 294 295 297 297 296
319 318 317 316 314 312 311 309 306 304 302 301 300 298 297 296 296 295 294 293 293 292 291 291 291 291 291 291 291 291 291 291 291 291 292 292 292 292 293 293 295 294 293
319 318 317 315 313 311 309 307 305 303 301 299 298 297 295 294 294 293 292 292 291 291 291 290 290 290 290 290 290 290 290 290 290 290 291 291 291 291 292 292 292 292 292
319 317 316 314 311 309 308 306 303 301 300 298 297 296 294 293 293 292 291 291 290 290 290 290 289 289 289 289 289 289 289 289 289 290 290 290 290 290 290 290 290 291 291
318 317 316 313 310 309 306 305 303 301 299 297 295 294 293 293 292 291 290 290 290 289 289 289 289 289 289 289 288 288 288 288 289 289 289 290 290 289 290 289 289 289 289
318 316 315 312 310 308 306 303 302 299 297 295 294 294 293 292 291 290 290 289 289 289 289 289 288 288 288 288 288 287 287 287 288 288 289 289 289 289 289 289 288 288 289
318 316 315 313 310 308 305 303 301 298 295 294 293 293 292 290 290 289 289 289 288 288 288 288 288 288 287 287 287 287 286 287 288 288 288 288 288 288 288 288 288 289 289
317 316 315 313 310 307 304 301 299 296 294 293 292 291 290 289 289 289 288 288 288 288 288 288 288 287 287 287 286 286 286 287 287 287 288 288 287 287 287 288 288 288 289
317 316 315 313 310 307 303 300 297 294 293 292 290 289 289 289 288 288 288 288 288 288 288 288 287 287 287 286 286 286 286 286 286 287 287 287 287 287 287 287 287 288 288
316 316 314 313 310 306 302 299 296 293 292 290 289 288 288 288 288 287 287 288 288 288 288 287 287 286 286 285 285 285 285 286 286 286 286 287 287 287 287 287 287 287 287
315 314 313 312 308 304 300 298 293 292 290 289 289 288 288 287 287 287 287 287 287 287 287 287 286 285 285 285 285 285 285 286 286 286 286 286 286 287 287 287 287 287 286
313 313 312 308 303 300 297 294 292 290 289 289 288 288 287 287 287 287 287 287 287 287 286 286 285 285 285 284 285 285 285 285 285 286 286 286 286 286 287 287 286 285 284
310 309 306 302 300 297 295 293 292 290 289 288 287 287 286 286 286 286 286 286 286 286 285 285 285 284 284 285 285 285 285 285 286 286 286 286 285 286 287 285 284 284 284
304 302 301 300 297 294 294 293 290 288 287 286 286 286 286 286 286 286 286 286 286 285 285 285 284 284 285 285 285 285 285 285 285 286 285 285 285 286 285 284 283 283 284
300 300 299 296 294 293 292 290 288 287 286 286 286 286 286 286 286 286 286 285 285 285 284 284 284 285 285 285 285 285 285 285 285 285 285 285 286 284 283 283 282 283 283
299 298 297 294 293 291 290 289 288 286 286 286 286 286 286 286 286 285 285 285 284 284 284 284 284 285 284 284 284 284 284 285 284 284 284 285 283 282 282 281 282 281 281
299 298 296 294 291 289 287 287 286 285 285 286 286 286 286 286 285 285 285 284 284 284 284 284 284 284 284 284 283 284 284 284 284 284 284 282 281 281 281 281 281 281 281
298 297 296 295 292 289 287 286 285 285 285 285 285 286 286 285 285 285 284 284 283 283 283 284 283 283 283 283 283 284 283 283 284 283 282 281 281 280 280 280 280 280 280
297 296 295 293 290 288 287 286 285 284 285 285 285 285 285 285 284 284 284 283 284 284 283 283 283 283 283 283 283 283 283 283 282 282 281 280 280 280 280 280 280 280 280

GFSMW_925_thetae_018.txt.gz
Theta_e
318 320 321 323 327 329 330 330 330 331 331 332 325 320 316 314 312 311 310 308 308 307 307 307 306 305 305 305 303 302 301 302 301 303 302 302 306 303 303 300 303 302 304
317 318 320 321 325 328 330 331 331 328 328 325 322 318 315 313 310 308 307 305 304 303 302 301 301 300 301 300 299 299 300 300 300 302 301 301 302 303 299 302 303 302 301
317 317 317 319 320 321 321 322 325 323 322 319 317 314 313 311 309 308 306 304 302 300 299 298 298 298 298 298 297 297 297 298 299 299 299 299 300 299 301 300 301 299 298
316 316 316 317 318 318 318 318 319 318 318 317 315 315 311 309 308 306 305 302 300 299 297 296 296 296 296 296 295 295 296 296 298 298 298 297 298 298 299 300 297 297 296
316 316 316 317 317 316 315 314 314 314 313 313 312 310 308 307 306 304 302 300 299 297 296 295 295 294 294 294 294 294 294 294 295 296 296 296 297 295 295 295 295 295 294
316 315 317 317 315 314 312 311 310 309 309 309 308 307 306 305 302 301 299 298 297 296 294 293 293 293 293 293 293 292 292 293 293 293 294 294 294 293 293 295 294 293 294
316 315 315 315 315 313 311 309 308 307 306 305 304 303 302 300 299 298 297 296 295 294 293 292 292 292 292 292 291 291 291 292 292 292 292 293 292 292 293 293 292 293 293
316 315 314 315 314 312 310 308 306 304 303 302 301 300 299 298 296 295 295 294 293 292 292 291 291 291 291 291 290 290 290 290 291 291 291 291 291 291 292 292 292 291 292
316 315 314 315 314 311 309 307 304 303 301 300 298 297 297 296 295 294 293 293 292 291 291 290 290 290 290 290 290 290 290 290 289 289 290 290 290 290 291 291 291 291 291
316 315 314 314 313 311 308 305 303 301 300 299 297 296 294 294 293 293 292 291 291 290 290 290 289 289 289 289 289 289 289 288 289 289 288 289 289 290 290 290 290 290 290
316 315 313 313 311 309 307 305 302 300 299 297 296 295 294 293 293 292 291 290 290 289 289 289 289 289 289 288 288 288 288 288 288 287 288 288 288 289 289 289 289 289 289
316 314 312 311 309 308 306 303 301 299 298 296 295 294 293 293 292 291 290 290 289 289 289 289 289 288 288 288 288 287 287 287 286 287 287 287 288 288 288 288 288 288 287
315 313 311 309 308 307 305 303 301 298 296 295 294 293 292 292 291 290 289 289 289 288 288 288 288 288 288 288 287 287 287 286 286 286 287 287 287 287 288 287 287 287 287
315 313 311 308 309 307 305 303 300 297 295 294 293 292 291 290 290 289 289 288 288 288 288 288 288 288 288 287 287 287 287 286 286 286 286 286 287 287 287 287 287 288 288
315 313 311 308 308 306 304 302 299 296 294 293 292 291 290 289 289 289 288 288 288 288 288 288 288 288 287 287 287 287 287 286 286 285 286 286 287 287 287 287 288 287 287
315 313 312 309 307 305 303 300 297 294 293 292 291 290 289 289 288 288 288 287 287 288 288 288 287 287 287 286 287 287 286 286 285 285 286 286 286 286 286 286 286 287 288
314 313 311 309 307 305 301 298 296 293 292 291 289 289 288 288 288 287 287 287 287 287 287 287 287 286 286 285 286 286 286 286 285 285 285 285 285 285 285 286 287 287 287
314 312 310 310 307 303 300 297 294 292 291 290 289 288 288 287 287 287 287 287 287 287 286 286 286 285 285 285 285 286 286 285 285 285 285 285 285 285 286 286 287 287 285
310 310 311 306 303 301 297 294 292 291 290 289 288 288 287 287 286 286 286 286 286 286 286 286 285 285 284 285 285 286 286 285 285 285 285 285 285 285 286 287 286 285 284
308 306 304 302 300 295 294 293 291 290 289 288 287 287 286 286 286 286 286 286 286 286 285 285 284 284 284 284 285 286 286 285 285 285 285 285 285 285 286 286 284 284 282
302 301 300 299 296 295 294 291 290 288 287 287 287 286 286 286 286 286 286 286 286 285 285 284 284 284 284 284 285 285 285 285 285 285 285 284 284 286 285 284 283 282 284
300 300 296 294 294 294 292 290 288 287 287 286 286 286 286 286 286 286 286 285 285 284 284 283 283 283 284 284 284 284 284 285 285 284 284 283 285 283 283 282 282 282 282
299 297 294 293 292 292 290 288 287 286 286 286 286 286 286 286 286 286 285 285 284 284 283 283 283 283 283 283 283 283 284 284 284 283 284 285 283 282 281 280 281 281 279
298 295 293 291 290 289 288 287 287 286 285 286 285 285 286 286 285 285 285 284 284 283 283 283 283 283 283 283 283 283 284 283 283 284 283 282 280 280 280 279 279 279 279
297 295 294 291 289 288 287 286 286 285 285 285 285 285 285 285 285 284 284 284 284 284 284 284 283 283 283 283 284 284 283 283 283 283 281 280 279 279 279 279 279 279 279
297 296 294 291 289 287 286 286 285 285 284 284 284 284 284 284 284 283 283 283 283 283 283 283 283 283 283 283 283 283 283 283 282 281 279 279 279 279 279 279 279 279 279

GFSMW_925_thetae_021.txt.gz
Theta_e
315 320 321 324 326 329 329 330 332 332 332 329 324 321 314 313 312 311 310 308 307 306 305 304 302 301 301 299 298 298 297 297 298 301 298 300 302 300 299 296 301 297 301
316 316 320 325 328 328 329 330 331 331 329 327 322 317 312 310 309 307 305 304 303 301 301 300 299 298 298 297 297 296 296 297 297 298 298 298 299 299 295 298 297 299 297
316 314 315 320 321 323 325 326 328 327 324 322 317 313 310 308 306 305 304 301 301 299 298 297 297 296 296 295 294 294 295 295 295 295 297 296 296 295 298 295 297 295 295
316 315 313 315 318 318 320 322 322 320 319 318 314 311 309 308 306 304 302 300 299 298 297 295 295 294 294 293 293 293 293 293 294 294 295 295 294 294 295 296 293 294 294
316 315 314 315 316 316 316 317 317 317 315 314 313 310 308 306 304 302 300 298 297 296 295 294 293 293 293 292 292 292 292 291 292 293 293 293 292 293 291 292 291 292 293
315 315 314 315 313 313 312 312 311 311 312 311 309 307 305 303 301 299 298 297 295 294 293 292 292 292 292 291 291 291 291 291 291 291 291 291 291 292 290 290 291 291 291
316 315 314 312 311 310 309 309 308 306 307 307 306 304 302 300 299 297 296 295 294 292 292 291 291 291 290 290 290 290 290 290 290 290 289 289 290 290 290 290 290 290 290
315 314 313 311 310 309 308 306 305 304 304 303 301 300 299 298 297 296 295 293 292 292 291 291 290 290 290 290 289 289 289 289 288 288 288 289 288 288 289 289 290 290 289
315 314 312 311 310 308 306 305 303 302 301 300 299 298 297 296 295 294 293 292 291 291 290 290 289 289 289 289 289 288 288 288 288 287 288 287 287 288 288 288 289 289 289
314 313 312 311 309 307 305 303 302 300 299 298 297 296 295 294 294 293 292 291 290 290 290 289 289 289 289 288 288 288 287 287 287 287 286 286 286 287 287 288 288 288 288
314 313 312 310 309 306 304 302 301 299 298 296 295 295 294 293 293 292 291 290 290 289 289 289 289 289 288 288 288 287 287 287 286 286 286 286 286 286 287 287 287 288 288
313 312 311 308 306 305 303 301 299 298 297 296 295 294 293 293 292 291 290 290 289 289 288 289 288 288 288 288 287 287 287 286 286 286 286 285 286 286 286 286 287 287 287
313 311 308 307 306 303 301 300 299 297 296 295 294 293 293 292 291 290 289 289 288 288 288 288 288 288 288 287 287 287 286 287 286 286 286 285 285 285 286 286 286 287 287
314 311 308 306 305 303 302 300 298 296 295 294 293 293 292 291 290 289 289 288 288 288 288 288 288 287 287 287 287 287 287 287 286 286 285 285 285 285 286 286 287 287 286
313 311 308 306 304 302 302 299 297 295 294 293 293 292 291 290 289 289 288 288 288 288 287 287 287 287 286 286 287 287 287 286 286 285 285 285 285 285 286 286 286 286 286
313 311 308 306 304 302 299 297 295 294 294 293 292 290 290 289 288 288 288 287 287 287 287 287 286 286 286 286 286 287 287 286 286 285 285 285 285 285 285 285 286 286 287
312 311 309 306 303 300 298 295 294 293 292 291 290 289 289 288 288 287 287 287 286 286 286 286 286 285 285 285 286 286 286 286 286 285 285 285 285 285 285 285 286 286 287
312 311 308 305 302 299 297 295 293 292 291 290 289 288 288 287 287 287 286 286 286 286 286 285 285 285 284 284 285 286 286 286 285 285 285 285 285 285 285 285 286 286 285
309 308 306 302 299 297 295 294 292 291 290 289 288 288 287 287 286 286 286 286 286 286 285 285 284 284 284 284 285 286 285 285 285 285 285 285 285 284 284 285 286 284 283
304 301 299 297 296 293 294 292 291 290 289 288 288 287 287 286 286 286 286 286 285 285 285 284 284 283 283 283 284 285 284 284 284 284 284 284 284 283 285 286 284 282 282
299 298 296 294 293 293 293 291 290 288 288 287 287 286 286 286 286 286 286 285 285 285 284 283 283 283 283 283 284 284 284 284 285 284 284 283 283 286 284 283 281 281 283
296 296 294 293 293 293 292 289 288 288 287 287 286 286 286 285 286 286 285 285 284 284 283 283 283 283 283 283 283 284 284 285 285 284 283 283 285 282 281 281 281 282 281
294 294 292 292 292 291 291 288 287 287 286 286 286 286 285 286 286 285 285 284 284 283 283 282 282 283 283 282 283 283 284 284 284 283 284 283 281 280 280 280 280 280 279
293 292 291 289 288 289 289 288 287 286 286 285 285 285 285 286 285 284 284 283 283 283 283 283 283 282 282 283 283 284 284 283 283 283 281 280 279 279 279 279 279 279 279
293 292 290 288 287 287 287 287 286 285 285 285 285 285 285 284 284 283 283 283 283 283 283 283 283 282 283 283 284 283 283 283 283 282 279 279 279 278 278 278 279 279 279
293 292 290 289 287 287 286 286 285 285 284 284 284 284 284 284 283 282 282 282 282 283 283 282 282 282 283 282 283 282 283 282 281 280 278 278 278 278 278 278 278 279 279

GFSMW_925_thetae_024.txt.gz
Theta_e
315 317 320 322 325 326 327 326 323 327 332 328 324 322 318 316 317 314 313 311 308 306 304 302 301 300 299 297 296 295 295 296 295 297 296 298 300 299 297 296 297 295 297
315 315 321 324 327 327 329 328 327 325 326 327 323 321 315 311 310 307 305 304 303 302 301 300 298 297 296 294 294 294 294 294 294 294 296 296 296 298 295 296 293 296 292
316 315 318 322 325 326 328 329 327 326 325 324 320 313 310 306 304 303 301 300 300 300 298 297 296 295 294 293 293 293 292 292 293 295 294 293 294 292 294 293 294 293 292
315 314 315 316 321 323 326 327 326 325 323 322 317 313 307 304 303 302 300 299 298 297 296 295 294 293 293 292 292 292 291 291 292 292 292 292 292 291 291 293 291 291 290
315 316 315 315 318 320 321 323 323 321 319 319 316 310 307 305 302 300 299 297 296 295 294 293 293 292 292 291 291 291 290 290 290 290 290 290 290 290 290 290 289 289 290
315 314 314 313 313 316 317 317 317 316 315 313 310 308 305 303 300 298 297 296 295 294 293 292 291 291 290 290 290 290 289 289 289 289 288 288 289 289 288 288 288 288 289
314 314 312 310 308 309 312 313 314 312 312 310 308 306 303 301 299 298 297 295 294 293 292 291 290 290 290 289 289 289 289 288 288 288 287 288 288 287 287 287 288 288 288
315 314 311 309 307 306 307 308 309 307 307 306 304 302 301 300 298 297 296 295 293 291 290 290 289 289 289 289 289 288 288 288 287 287 287 287 286 286 286 287 287 287 287
315 313 310 308 306 305 305 305 304 303 303 302 300 299 299 298 297 295 294 293 291 290 290 289 289 289 289 289 288 288 287 287 287 286 286 286 286 286 285 286 287 287 287
314 312 310 307 305 304 304 304 303 301 300 299 299 297 297 296 295 294 293 291 290 290 289 289 289 289 289 288 288 287 287 287 286 286 286 286 286 285 285 286 286 286 286
314 312 309 307 304 303 303 302 300 299 298 297 296 296 295 294 293 293 291 290 289 289 289 289 289 288 288 288 287 287 287 286 286 286 286 286 285 285 285 285 285 286 286
313 311 309 305 303 301 301 300 298 297 296 296 295 294 293 293 292 291 290 289 289 288 288 288 288 288 288 287 287 286 286 286 286 286 286 285 285 284 284 285 285 285 285
312 310 307 305 302 300 299 299 297 296 295 295 294 293 293 292 291 290 289 289 288 288 288 288 288 287 287 286 286 286 286 286 287 286 286 285 285 284 284 285 285 285 286
312 310 307 305 302 299 298 298 297 296 294 294 293 293 292 292 290 289 289 288 288 288 287 287 287 286 286 286 286 286 287 287 286 286 285 285 285 285 285 285 285 286 285
312 310 307 304 301 299 297 297 296 295 294 293 293 292 291 290 289 289 288 288 287 287 287 287 286 286 285 285 286 287 287 286 286 286 286 285 285 285 285 286 286 285 286
312 309 307 304 301 299 296 295 294 294 294 293 292 291 290 289 288 288 287 287 287 287 286 286 285 285 284 285 286 287 286 286 286 285 285 285 284 284 285 285 285 286 286
311 309 306 304 302 298 296 294 294 293 293 293 291 290 289 288 287 287 287 286 286 286 286 285 284 284 283 284 285 286 286 285 285 284 284 284 284 284 284 284 285 285 285
311 308 306 304 300 297 295 295 293 293 292 291 290 289 288 287 287 287 286 286 286 286 285 285 284 283 283 284 285 286 285 285 284 284 284 284 284 284 284 284 285 286 283
309 307 305 300 297 295 294 294 292 292 291 290 289 288 287 287 286 286 286 286 286 285 285 284 283 283 283 283 284 285 285 284 284 284 284 284 284 283 284 286 284 283 281
303 301 298 296 294 292 294 292 291 290 289 289 288 287 287 286 286 286 286 286 285 284 284 283 283 283 283 283 284 285 284 284 284 284 284 284 283 284 286 283 282 281 281
296 296 295 293 291 293 293 290 290 289 289 288 287 287 286 286 285 286 285 285 284 284 283 283 283 283 283 283 283 284 285 284 285 285 284 283 283 284 282 282 281 281 283
294 293 291 290 291 293 293 289 289 288 288 287 286 286 286 285 286 285 285 284 283 283 283 283 283 283 283 282 283 284 284 285 284 284 283 283 283 282 281 280 281 282 281
292 292 291 290 291 292 292 288 287 287 287 286 286 285 285 286 285 284 283 283 283 283 283 282 282 282 282 282 282 283 284 283 284 283 283 282 281 280 279 279 280 280 278
291 290 289 288 287 289 290 289 287 287 286 285 285 285 285 285 284 283 283 282 282 282 283 282 282 282 282 282 282 283 283 283 283 282 281 280 279 278 279 278 278 278 279
290 289 288 287 287 288 288 287 286 286 285 285 285 284 284 284 283 283 282 282 282 283 283 282 282 282 282 282 283 283 283 283 282 281 279 278 278 278 278 278 278 278 278
290 289 287 287 286 287 286 285 285 285 285 284 284 284 284 283 283 282 282 282 282 282 282 282 282 282 282 282 282 282 282 282 280 279 278 278 278 277 278 278 278 278 278

GFSMW_925_thetae_027.txt.gz
Theta_e
313 316 318 319 321 323 324 324 325 331 334 330 322 320 319 318 316 317 316 318 313 306 304 302 301 300 299 296 294 294 293 294 293 294 295 297 297 298 297 294 294 293 295
314 314 317 320 324 324 325 324 323 329 328 327 323 321 314 312 310 307 306 305 303 302 302 300 299 297 295 294 293 292 292 292 293 294 294 293 294 296 297 294 292 294 291
314 314 315 321 324 325 326 324 322 324 324 325 321 314 310 305 302 302 301 300 301 300 299 298 297 295 294 293 292 291 291 291 291 292 291 289 291 291 292 293 293 292 291
314 315 316 318 322 325 326 324 322 322 322 321 320 318 309 302 300 300 299 299 299 298 297 296 294 293 292 291 291 290 290 290 290 290 290 290 291 289 289 291 290 290 288
314 315 317 318 322 323 325 323 321 320 319 320 321 317 308 304 300 299 298 298 297 296 295 293 292 291 291 290 290 290 290 289 289 288 288 288 288 289 288 288 287 287 287
314 315 314 316 316 319 322 320 319 317 318 319 317 316 308 302 299 297 297 296 295 294 293 292 291 290 290 290 289 289 289 288 288 287 287 287 287 287 287 286 286 286 286
314 314 313 311 310 313 316 316 317 314 315 314 312 308 305 302 300 298 297 295 294 293 291 290 290 289 289 289 289 289 288 288 287 287 286 287 286 286 286 285 285 285 286
314 315 314 311 309 309 312 313 313 311 310 309 307 305 304 301 299 298 296 295 294 292 290 290 289 289 289 289 289 288 288 287 287 286 286 286 286 286 285 285 285 285 285
315 315 311 308 307 306 308 310 309 307 307 306 304 301 300 298 297 296 295 294 292 290 290 289 289 289 289 288 288 288 287 287 287 286 286 286 286 285 285 285 285 285 285
315 312 309 306 304 304 306 307 307 305 303 302 300 299 298 297 296 295 293 292 290 289 289 289 289 288 288 288 287 287 287 286 286 286 286 286 286 285 285 284 284 284 285
313 310 307 305 302 302 302 302 302 301 299 298 297 297 296 295 294 293 292 291 289 289 288 288 288 288 288 287 287 286 286 286 286 286 286 286 285 285 285 284 284 284 284
311 309 305 302 301 299 299 298 298 298 297 297 296 295 294 293 293 292 290 289 289 288 288 288 288 287 287 286 286 286 286 286 286 286 286 286 285 285 285 284 284 284 284
310 307 304 302 300 298 297 297 297 296 295 295 294 293 293 293 292 290 289 288 288 288 288 287 287 287 286 286 285 286 286 286 286 286 286 285 285 285 284 284 284 284 285
311 308 305 302 299 297 296 295 295 295 294 294 293 293 292 292 290 289 288 288 287 287 287 287 286 286 285 284 285 286 287 286 286 286 285 285 285 284 285 285 285 286 285
310 308 305 301 298 296 295 295 294 294 294 293 293 292 291 290 289 288 288 287 287 287 287 286 285 285 284 284 286 287 286 286 285 285 285 284 284 285 285 285 285 285 285
311 308 305 301 297 296 294 293 293 293 294 293 292 291 290 289 288 288 287 287 286 287 286 285 285 284 284 284 286 287 286 286 285 284 284 284 284 284 284 284 284 285 285
310 308 305 301 298 296 294 293 293 293 293 293 291 290 289 288 287 287 287 286 286 286 285 285 284 284 283 284 285 286 286 285 284 284 284 284 283 284 284 284 284 285 285
310 307 304 301 297 295 294 294 293 293 292 291 290 289 288 287 287 286 286 286 286 285 285 284 283 283 283 284 285 285 285 284 284 284 284 283 284 284 284 284 285 283 282
308 305 303 299 296 294 294 294 292 292 291 290 289 288 288 287 286 286 286 286 285 285 284 283 283 283 283 283 284 285 284 284 284 284 284 284 284 283 284 285 283 282 281
304 301 298 296 294 293 294 292 291 291 290 289 288 288 287 286 286 286 286 285 284 284 283 283 283 283 283 282 284 284 284 284 284 285 284 283 283 284 285 283 282 280 280
297 296 295 293 291 292 292 290 290 290 289 288 288 286 286 285 285 286 285 284 283 283 283 283 283 283 282 282 283 284 284 284 285 283 283 283 283 284 282 282 281 281 283
293 292 290 289 290 291 293 289 289 288 288 287 286 286 285 285 285 285 284 283 283 282 282 283 283 282 282 282 282 283 284 284 283 284 283 282 283 282 281 280 281 282 281
291 290 289 288 290 292 293 289 287 287 287 286 285 285 285 285 285 284 283 283 282 282 282 282 282 282 282 282 282 283 283 283 284 283 283 282 281 280 279 279 280 280 278
290 289 289 287 287 290 290 289 287 287 286 285 285 285 285 285 284 283 283 282 282 282 282 282 282 282 281 281 282 283 283 283 282 282 281 279 278 278 278 278 278 278 278
289 289 288 286 286 288 287 286 286 286 285 284 284 285 284 284 283 283 282 282 282 282 283 282 282 281 281 282 283 283 283 283 282 281 279 277 277 277 277 277 277 278 278
288 287 286 286 285 286 285 285 285 285 285 284 284 284 284 283 282 282 282 281 281 282 282 282 282 281 281 282 282 282 282 281 280 279 277 277 277 277 277 277 277 277 277

GFSMW_925_thetae_030.txt.gz
Theta_e
316 316 317 317 319 320 323 325 328 331 332 332 328 323 322 320 321 318 317 316 314 314 307 303 301 299 300 296 295 294 293 292 292 293 293 295 295 297 297 296 292 293 293
313 312 315 317 319 321 322 322 328 329 329 328 325 322 318 313 315 313 310 306 305 303 302 301 299 298 296 294 293 292 292 291 291 292 291 290 292 294 293 293 294 292 292
316 312 312 316 320 322 323 322 325 327 326 326 322 315 311 306 303 303 302 300 301 301 300 299 297 295 293 292 291 291 291 290 290 291 290 288 288 289 291 292 290 292 291
313 312 312 316 320 323 324 323 322 324 323 322 319 318 309 302 299 299 299 298 298 298 298 297 295 293 292 291 290 290 290 289 289 289 289 289 289 287 287 289 289 289 287
314 313 312 316 320 323 324 323 321 320 320 319 317 313 306 303 299 298 297 296 296 296 295 294 293 292 291 290 290 289 289 289 288 287 287 287 287 287 286 287 286 286 286
311 312 313 317 319 321 322 320 318 317 317 316 313 313 311 300 297 296 296 295 295 294 293 292 291 290 290 290 289 289 289 288 287 287 287 286 286 286 285 284 285 285 285
311 312 313 314 313 316 317 316 316 312 313 313 311 311 307 302 299 297 296 295 294 292 291 290 290 289 289 289 289 289 288 288 287 287 286 286 286 285 285 285 285 284 284
310 313 314 315 313 313 315 314 313 311 311 311 310 308 305 301 299 298 296 295 294 292 290 290 289 289 289 289 288 288 288 287 287 286 286 286 286 286 285 285 284 284 283
311 313 314 314 312 311 311 313 311 310 309 308 306 303 301 299 297 296 295 294 292 290 289 289 289 289 289 288 288 287 287 286 286 286 286 286 286 286 285 285 284 284 284
312 313 313 310 309 308 308 309 310 307 305 304 302 300 299 297 296 295 293 292 290 289 289 289 289 288 288 288 287 287 286 286 286 286 286 286 286 286 285 285 284 284 283
313 312 309 306 303 303 304 304 304 303 301 300 298 297 295 295 294 293 291 290 289 288 288 288 288 288 287 287 286 286 286 286 286 286 286 286 286 285 285 285 284 284 284
311 308 303 301 301 299 299 299 298 299 298 297 296 295 294 293 293 291 290 289 288 288 288 288 288 287 287 286 285 285 286 286 286 286 286 285 285 285 284 284 284 284 284
307 303 302 301 298 296 296 295 296 296 296 295 294 293 292 292 291 290 289 288 288 288 288 288 287 286 286 285 285 286 286 286 286 286 285 285 284 284 284 284 284 284 284
308 305 302 299 297 295 294 293 293 295 294 294 293 292 292 291 290 289 288 288 287 287 287 287 286 285 285 284 285 286 287 286 286 285 285 284 283 283 284 284 284 285 284
308 305 301 298 295 294 293 292 293 293 293 293 292 292 291 290 289 288 288 287 287 287 287 286 285 285 284 284 286 287 287 286 286 285 284 284 284 284 285 285 285 284 284
309 305 301 297 295 293 292 291 292 292 293 292 291 291 290 289 288 287 287 286 287 287 286 286 285 284 284 283 286 287 286 286 285 284 284 284 283 283 284 284 284 285 286
309 305 301 298 295 293 292 291 292 292 293 292 290 290 289 288 287 287 286 286 286 286 286 285 284 284 283 284 286 286 286 285 284 284 284 284 284 284 284 284 284 285 284
308 304 300 297 294 293 293 293 292 292 292 291 290 289 288 287 286 286 286 286 286 286 285 284 283 283 283 283 285 285 285 284 284 284 284 284 284 284 284 284 286 283 282
307 303 300 296 294 293 293 293 291 292 291 289 289 288 288 287 286 286 286 286 285 285 284 283 283 283 283 283 284 285 284 284 284 284 284 284 284 283 284 285 283 282 281
303 299 296 294 293 292 293 292 290 290 290 289 288 287 286 286 286 286 286 285 284 284 283 283 283 283 282 282 283 284 284 284 284 284 283 283 283 283 285 283 282 281 280
298 296 295 293 291 292 292 289 290 289 289 288 287 286 286 285 286 285 285 284 284 283 282 282 283 282 282 282 283 283 284 284 284 283 283 283 282 284 282 282 281 280 283
294 292 291 289 290 291 292 289 289 288 287 286 286 285 285 285 285 285 284 283 283 282 282 282 282 282 282 282 282 283 284 284 283 283 283 282 283 282 281 280 280 282 281
290 290 289 288 289 291 292 288 286 287 286 286 285 285 285 285 285 284 283 283 282 281 282 282 282 282 281 281 281 282 283 283 284 283 282 282 281 279 278 279 280 279 277
289 289 288 287 286 289 289 287 286 286 286 285 284 285 285 285 284 283 283 282 282 281 282 282 282 281 281 281 281 282 283 283 282 282 281 280 278 278 278 277 277 277 277
289 289 287 285 284 287 286 286 286 286 285 284 284 284 284 284 283 283 282 282 281 282 282 282 282 281 281 281 282 282 283 283 282 281 279 277 277 276 276 277 277 277 277
287 285 284 284 284 285 285 285 285 285 285 284 284 284 283 283 282 282 282 281 281 281 281 281 281 281 281 281 282 282 282 282 280 279 277 276 276 276 276 276 276 276 277

GFSMW_925_thetae_033.txt.gz
Theta_e
317 317 318 319 318 318 319 321 323 327 330 331 331 328 330 327 326 326 324 321 318 313 312 308 302 301 301 298 296 295 293 292 292 293 295 294 293 296 297 294 292 292 291
316 316 315 316 318 319 319 321 326 328 329 328 325 321 320 315 317 315 314 313 312 305 302 302 302 299 297 295 294 293 292 291 291 292 293 295 295 294 293 293 292 291 291
316 317 315 315 317 318 319 321 326 327 326 326 325 319 314 310 307 305 305 303 302 300 301 301 300 296 295 293 292 291 291 291 290 291 292 294 294 291 291 292 291 290 289
312 315 316 315 316 318 320 321 324 324 324 325 323 320 313 307 301 301 300 298 299 299 299 298 296 294 293 291 291 290 290 290 290 290 289 289 290 291 291 290 290 288 288
312 314 316 315 316 318 321 321 321 322 321 320 321 314 310 304 300 298 297 296 296 297 296 295 294 292 291 290 290 290 290 289 289 289 288 288 288 288 289 290 289 288 288
312 314 314 314 316 318 321 321 319 318 317 317 314 313 310 301 298 295 296 294 294 294 293 293 292 291 290 290 290 289 289 288 288 287 287 287 288 288 287 288 288 288 287
312 313 314 316 316 317 319 318 316 314 314 313 311 310 306 303 299 295 295 293 293 292 291 291 290 290 290 290 289 289 288 288 287 287 286 286 287 286 286 287 287 287 286
312 312 313 316 316 316 315 314 312 311 309 309 308 306 302 299 296 296 295 295 294 292 291 290 290 290 289 289 289 288 288 287 287 286 286 286 286 286 286 286 286 288 287
309 312 313 315 315 315 314 312 310 307 308 306 306 304 302 300 297 296 295 294 292 291 290 289 289 289 289 289 288 288 287 286 286 286 286 286 286 285 285 286 285 286 287
308 311 314 315 315 314 311 309 308 306 306 306 305 303 300 297 295 295 293 292 291 290 289 289 289 289 288 288 287 287 286 286 286 286 286 286 286 285 285 285 285 285 285
308 312 314 312 310 307 306 304 304 304 301 301 300 298 296 295 294 293 292 291 290 289 289 289 288 288 288 287 287 286 286 286 286 286 286 285 285 285 285 285 285 285 285
311 311 308 304 305 303 302 301 299 298 297 297 296 295 294 294 293 291 291 290 289 289 288 288 288 288 287 286 286 285 286 286 286 286 285 285 285 284 284 284 284 284 284
306 304 304 304 302 300 298 298 295 294 294 294 294 293 292 292 291 290 289 289 288 288 288 288 288 287 286 285 284 286 286 286 286 286 285 284 284 283 283 284 284 284 284
305 304 303 301 299 297 296 294 292 293 293 293 292 291 291 291 290 289 288 288 288 287 288 287 287 286 285 285 285 286 287 286 286 286 285 284 284 284 284 285 285 285 285
306 303 301 298 296 294 293 292 291 291 292 291 291 291 290 290 289 288 287 287 287 287 287 286 286 285 285 284 286 287 287 286 286 285 284 284 284 284 285 285 285 284 285
306 302 299 297 295 293 292 291 290 290 292 291 290 290 289 288 288 287 287 287 287 287 286 286 285 284 284 284 286 287 287 286 285 284 284 284 284 284 284 284 284 285 285
306 301 299 297 294 293 292 291 290 291 291 291 289 289 288 287 287 286 286 286 287 286 286 285 284 284 283 284 286 286 286 285 284 284 284 284 283 284 283 283 284 285 286
305 301 298 295 293 291 291 290 290 291 290 289 289 288 288 287 286 286 286 286 286 286 285 284 283 283 283 283 285 285 285 284 284 284 284 283 283 283 284 284 285 285 283
304 301 297 294 292 291 290 290 290 290 289 288 288 288 287 286 286 286 286 286 285 285 284 283 283 283 283 282 284 285 284 284 284 284 284 283 283 283 284 285 284 283 282
301 297 295 293 291 290 290 290 289 289 288 288 287 287 287 286 286 286 286 285 284 284 283 282 282 282 282 282 283 284 284 284 284 284 283 283 283 283 285 284 283 282 281
297 295 294 293 290 290 290 289 288 287 288 287 287 286 286 286 286 286 285 284 284 283 282 282 282 282 282 282 283 283 284 284 284 283 283 283 283 284 283 282 281 281 282
294 292 291 290 289 290 290 288 286 287 287 287 286 285 285 286 285 285 284 283 283 282 282 282 282 282 282 281 282 283 284 284 283 283 283 282 283 282 281 280 280 282 281
291 290 289 288 288 289 290 286 285 287 286 286 285 285 285 285 284 284 283 283 282 281 281 281 281 282 281 281 281 282 283 283 283 283 283 282 281 280 279 279 280 279 278
289 289 288 287 285 287 288 287 286 286 286 285 285 285 285 284 284 283 283 282 281 281 282 282 282 281 281 281 281 282 282 282 283 282 282 280 278 278 278 277 277 278 278
288 288 286 285 284 286 286 286 286 286 285 285 285 284 284 284 283 282 282 281 281 282 282 282 281 281 281 281 282 282 282 283 282 282 279 278 277 277 277 277 277 277 277
286 285 284 283 283 285 285 285 285 286 285 284 284 283 283 283 282 281 281 281 280 281 281 281 281 281 281 281 281 282 283 282 281 279 277 277 277 277 276 276 277 277 277

GFSMW_925_thetae_036.txt.gz
Theta_e
319 319 320 321 322 321 322 322 323 325 329 332 335 337 336 327 324 324 329 329 325 320 318 312 302 301 300 299 298 298 298 297 296 298 300 299 297 299 299 298 296 295 294
316 317 318 320 321 321 322 323 324 327 330 332 331 330 327 318 318 319 320 320 319 319 313 305 300 300 298 297 297 297 297 296 295 297 298 301 299 298 298 296 295 295 294
314 314 316 318 320 321 322 323 325 329 330 329 329 321 313 310 308 307 311 309 314 311 304 302 298 298 297 296 296 296 296 296 295 294 296 299 300 296 296 296 294 294 293
314 314 314 316 318 320 322 323 325 327 328 325 320 318 320 314 308 305 304 307 305 303 298 299 297 296 296 295 294 294 294 295 295 294 292 292 293 295 296 294 294 293 292
313 314 314 314 316 319 322 323 325 326 323 321 322 323 321 315 307 302 298 299 298 297 296 296 295 295 294 293 293 293 293 293 293 293 292 292 292 292 293 294 294 292 292
313 313 313 314 315 318 323 323 323 323 321 322 322 324 318 308 302 298 295 296 295 295 294 294 294 293 293 293 292 292 292 291 291 291 290 291 291 292 292 292 292 292 291
312 313 316 316 317 318 322 323 322 321 320 320 321 320 311 307 304 298 296 295 294 294 294 293 293 293 292 291 291 291 291 291 291 290 290 289 290 289 289 290 291 291 290
314 313 315 318 318 319 322 322 321 319 318 318 317 313 307 302 298 296 295 294 294 293 293 293 292 291 291 291 291 291 290 290 290 289 289 289 289 289 289 289 289 290 291
313 314 313 316 318 320 322 321 320 317 316 316 310 303 301 299 297 295 295 294 294 292 292 292 291 291 290 290 290 290 289 289 289 289 289 289 288 288 288 288 288 289 290
313 315 314 315 317 320 321 320 318 315 314 311 307 301 298 297 297 295 294 293 292 292 291 291 291 290 290 289 289 289 288 288 289 288 288 288 288 288 288 288 287 287 288
315 316 314 315 318 320 320 317 315 312 309 306 302 298 296 297 295 294 293 293 292 291 291 290 290 290 289 289 288 288 288 288 288 288 288 288 287 287 287 287 287 286 286
316 316 315 317 318 317 316 314 310 308 304 301 298 295 294 294 294 293 292 292 291 290 290 290 289 289 288 288 287 287 288 288 288 288 288 287 287 286 286 286 286 286 286
314 313 312 313 315 313 312 309 306 301 299 297 294 293 293 293 293 292 291 291 290 290 289 289 289 288 287 287 286 287 288 288 288 288 287 287 286 286 286 286 286 286 286
313 311 312 312 312 311 308 303 298 295 294 293 293 292 293 293 292 291 290 290 289 289 289 288 287 287 286 286 286 287 288 288 288 287 287 286 286 285 285 286 286 286 286
312 310 309 309 308 304 299 295 293 292 292 292 292 292 292 291 290 289 289 289 289 288 288 287 286 286 286 285 287 288 289 288 288 287 286 286 285 285 285 286 286 286 285
312 308 307 306 302 297 294 293 292 291 291 291 290 291 290 290 289 289 288 288 288 287 287 286 286 286 285 284 286 287 288 287 287 286 286 285 285 285 285 285 285 285 286
310 307 305 301 298 295 293 292 291 292 291 291 291 290 290 289 289 288 288 288 288 287 287 286 285 285 285 284 286 286 286 287 286 286 285 285 285 285 284 284 285 285 286
309 306 301 297 295 294 293 292 292 292 292 291 290 289 289 288 288 288 288 287 287 287 286 285 285 284 284 283 285 285 286 286 285 285 285 285 285 284 284 285 285 286 285
307 304 298 296 296 294 293 293 293 292 291 291 289 289 288 288 287 287 287 287 286 286 285 284 284 284 284 283 284 285 285 285 285 285 285 285 284 284 285 285 285 284 284
303 300 297 297 296 294 294 293 292 292 290 289 288 288 288 288 288 287 286 285 285 285 284 284 284 283 283 283 283 284 285 285 285 285 285 284 284 284 285 285 284 283 283
300 298 297 296 294 293 293 292 291 290 289 288 288 287 287 287 286 286 285 285 285 284 284 284 284 283 283 283 283 284 284 284 285 285 284 284 284 284 284 283 282 282 282
297 295 293 292 292 292 292 292 290 288 287 287 286 285 286 285 286 285 285 284 284 284 284 284 284 284 283 283 283 283 284 284 284 284 284 284 284 283 282 281 281 281 282
295 295 294 293 293 292 290 288 286 286 286 285 285 286 285 285 285 285 285 285 284 284 284 284 284 284 283 282 282 283 283 284 284 284 283 283 283 281 280 280 280 280 280
294 293 292 291 290 288 287 286 286 286 286 286 285 285 285 284 284 284 284 284 284 283 284 284 283 283 282 282 282 283 283 283 284 283 283 282 281 279 279 279 280 280 280
292 292 290 289 288 287 286 286 286 286 286 286 285 285 285 284 284 283 283 283 283 282 283 282 282 282 282 282 282 282 282 283 283 282 281 280 279 279 279 279 279 279 279
289 289 288 287 286 286 285 285 285 286 286 285 285 285 284 284 283 283 283 281 280 281 281 281 281 281 281 281 282 282 282 282 281 280 279 279 279 279 279 279 279 279 279

GFSMW_925_thetae_039.txt.gz
Theta_e
321 320 321 321 322 322 324 325 325 325 325 328 332 336 338 338 339 337 334 327 321 323 322 317 310 307 305 304 302 301 301 300 298 301 302 302 300 301 301 301 299 298 297
317 318 319 320 320 322 324 324 324 325 326 330 333 336 337 337 334 328 324 319 315 318 320 315 306 304 302 301 300 301 300 299 297 298 301 304 301 300 300 299 298 297 296
315 316 316 317 320 321 322 324 324 325 327 330 333 335 330 324 319 316 314 311 315 316 315 310 305 301 301 300 299 299 299 299 298 296 297 302 304 298 298 298 297 296 295
314 314 315 316 316 319 322 323 324 325 329 332 333 332 324 318 312 310 308 306 307 308 306 304 301 300 299 299 297 297 297 297 298 297 295 295 295 297 297 297 296 296 294
315 315 315 315 315 316 321 324 324 326 330 331 331 328 321 320 310 307 305 305 305 306 303 300 299 299 298 296 296 296 296 295 296 295 295 294 294 294 294 296 296 294 294
314 313 314 314 315 315 319 324 325 327 330 330 326 323 325 316 306 303 301 302 300 300 299 298 298 297 296 296 295 295 295 294 293 293 293 293 293 294 293 294 294 293 293
313 312 313 314 315 316 317 323 325 327 328 326 325 325 325 313 307 303 301 299 297 297 297 297 296 296 295 295 294 294 294 293 293 293 292 292 292 292 291 291 292 292 292
312 314 314 315 317 317 317 322 325 326 325 325 325 327 318 312 307 303 300 299 298 296 296 296 296 295 294 294 294 293 293 292 292 292 292 291 291 291 291 291 291 291 291
313 313 314 315 314 318 318 322 324 324 323 324 325 321 314 310 306 302 298 297 296 296 295 295 294 293 293 293 293 293 292 291 291 291 291 291 290 290 290 290 290 290 290
313 314 315 316 314 317 319 322 323 322 322 323 320 315 308 300 297 297 296 295 295 294 294 294 293 293 292 292 292 291 291 290 291 290 290 290 290 290 289 289 289 289 289
314 315 316 317 315 317 321 322 323 321 320 317 309 305 301 297 296 294 295 294 293 293 294 293 293 292 292 291 291 290 290 290 290 290 290 290 289 289 288 288 288 288 288
312 316 316 317 317 320 322 322 320 319 316 310 304 299 296 295 295 295 294 294 294 293 293 292 292 291 291 290 290 289 290 290 290 290 290 289 289 288 288 287 287 287 287
312 316 315 316 319 321 321 319 316 313 309 304 299 296 296 295 295 295 294 293 293 292 292 291 291 290 289 289 288 289 289 290 290 290 289 289 288 288 287 287 287 287 287
315 315 314 315 316 318 316 314 311 307 304 300 297 295 295 294 294 294 293 292 292 291 291 290 290 289 288 288 288 289 289 290 290 289 289 288 288 287 286 286 286 287 287
315 314 313 314 314 314 312 306 303 302 299 297 296 294 294 293 293 292 292 291 291 290 290 289 288 288 287 287 287 288 289 289 289 289 288 287 287 287 286 286 286 286 286
316 313 311 312 311 306 302 299 297 295 294 294 294 293 293 292 292 291 290 290 290 289 289 289 288 288 287 286 285 288 288 288 288 288 287 287 286 286 286 286 286 286 286
314 310 309 308 301 297 295 294 293 293 292 292 292 291 291 291 290 290 290 290 289 289 289 288 287 287 287 285 285 287 287 287 287 287 287 286 286 286 286 285 285 286 286
310 308 304 300 296 294 293 292 293 292 291 291 291 291 290 290 290 290 290 289 289 289 288 287 287 286 286 285 284 285 286 286 286 286 286 286 286 286 285 285 285 286 286
308 303 299 295 293 293 293 293 292 292 291 291 291 290 290 290 290 289 289 289 288 288 287 286 286 286 286 285 284 285 285 286 286 286 286 286 286 285 286 286 285 285 284
299 297 296 294 294 294 294 294 294 293 292 292 291 290 290 289 289 289 288 287 287 287 286 286 286 285 284 284 284 285 285 285 285 285 285 285 285 285 285 285 285 284 283
298 298 297 296 296 295 295 295 294 293 291 290 289 289 289 288 288 287 287 287 286 286 286 286 286 285 285 284 284 284 284 284 285 285 285 284 285 285 285 285 284 283 283
299 299 297 297 296 295 294 292 290 289 288 288 287 287 287 287 287 287 286 286 286 286 286 286 285 285 285 284 284 284 284 284 285 284 284 284 284 284 284 283 282 282 282
295 293 293 293 293 292 290 289 288 287 287 287 287 287 287 287 287 287 287 286 286 286 285 285 285 285 284 284 283 283 284 284 284 284 284 284 283 283 282 281 281 281 281
296 294 294 292 290 288 287 286 287 287 287 287 287 286 286 286 286 285 285 285 285 285 285 284 284 283 283 283 283 283 283 283 283 283 283 282 282 281 281 280 280 280 280
295 294 292 289 287 286 286 286 287 287 287 287 287 287 286 286 286 285 284 284 284 283 283 282 282 282 282 282 282 283 282 283 283 283 281 281 280 280 280 280 280 280 280
292 291 289 287 286 286 286 287 288 287 287 287 287 286 286 285 285 284 284 283 282 281 281 281 281 281 281 282 282 282 282 282 281 281 280 280 280 280 279 279 279 279 279

GFSMW_925_thetae_042.txt.gz
Theta_e
317 320 320 321 321 321 322 326 326 325 324 326 335 338 339 338 337 336 335 334 332 329 322 322 314 312 310 305 303 302 302 300 299 301 301 302 301 301 300 300 300 298 298
315 316 318 320 321 321 322 322 325 325 324 324 327 333 338 338 337 337 336 334 330 323 319 317 312 308 306 303 302 301 300 299 297 298 299 299 299 300 300 300 299 298 296
313 314 314 316 319 320 321 321 323 325 325 325 328 333 337 335 335 334 331 326 322 318 316 312 311 308 304 302 301 301 300 299 297 296 297 297 298 295 298 300 298 297 296
311 312 312 312 315 317 319 320 321 324 324 325 331 334 331 327 324 326 322 319 316 314 310 308 308 305 303 302 299 298 298 298 297 296 295 295 295 293 292 296 296 296 295
310 310 310 312 314 314 316 320 320 323 324 326 332 333 329 324 319 317 316 314 313 309 305 306 304 302 301 299 298 297 296 296 296 296 295 294 294 294 292 291 293 294 293
312 312 312 313 313 314 314 314 322 322 325 329 333 331 326 321 314 311 310 310 307 304 302 302 301 300 299 298 297 296 295 294 294 293 293 293 292 292 292 289 290 290 291
311 310 309 309 312 313 314 314 316 324 327 331 332 328 321 321 314 309 307 305 301 299 299 299 299 298 298 297 295 295 294 293 293 293 292 292 292 291 291 291 290 289 290
309 310 312 310 313 314 314 315 320 325 329 331 329 325 320 315 310 307 306 303 301 299 298 298 297 297 296 295 294 294 293 293 292 292 292 291 291 291 291 290 290 288 288
309 311 311 311 314 314 316 316 320 325 329 329 325 322 316 311 306 304 303 302 300 298 297 297 296 295 294 294 293 293 292 291 291 291 291 291 291 290 290 290 290 289 288
311 311 311 312 315 315 315 317 321 325 326 325 323 315 311 309 305 303 301 299 298 296 296 295 294 294 293 293 292 292 291 291 291 291 290 290 290 290 289 289 289 289 288
309 310 312 313 315 315 316 318 323 324 324 324 315 311 308 304 301 299 298 296 296 295 295 294 293 293 292 292 292 291 290 290 290 290 290 290 290 289 289 288 288 287 287
309 309 312 312 314 316 319 320 323 322 314 310 305 303 302 298 297 295 295 296 295 295 294 293 292 292 291 291 290 290 289 290 290 290 290 290 289 289 288 288 287 287 287
309 311 311 312 312 318 321 321 320 310 305 303 300 297 296 295 295 295 295 294 294 293 293 293 292 291 290 290 289 289 289 289 290 290 290 289 289 288 288 287 286 286 286
310 312 312 311 312 318 318 314 307 304 300 298 297 296 296 295 295 294 294 293 293 292 291 291 290 290 289 289 288 289 289 290 290 290 289 289 288 288 287 287 286 286 286
312 312 311 311 313 314 310 306 304 299 297 296 296 295 295 294 294 293 292 292 292 291 291 290 289 289 288 288 288 287 288 288 288 288 288 288 287 287 287 287 287 287 286
314 311 310 312 310 305 301 301 300 299 296 295 294 294 293 292 292 292 291 291 291 290 289 289 289 288 287 287 286 286 286 286 287 287 287 287 286 286 286 287 286 287 286
313 309 309 302 299 297 297 295 296 295 294 294 293 293 292 292 291 291 291 291 289 289 289 288 288 287 287 287 286 285 286 285 286 286 286 286 286 286 285 285 286 286 286
310 308 301 298 296 295 294 293 293 293 292 292 291 291 290 290 290 290 290 289 289 289 288 288 287 287 286 286 285 285 285 285 285 285 285 286 286 285 286 286 286 286 285
303 299 295 294 293 293 292 292 292 291 292 291 291 290 290 290 290 290 289 289 288 288 287 287 286 286 286 285 285 285 285 284 284 285 285 285 285 285 286 286 286 285 285
295 294 293 293 293 293 292 292 292 292 292 291 291 290 292 292 289 289 288 288 288 287 287 286 286 286 285 285 285 285 284 284 284 284 284 284 285 285 286 286 285 285 283
296 295 295 295 295 295 294 294 293 292 291 291 290 290 289 289 288 288 288 287 287 287 286 286 286 285 285 285 285 285 284 284 284 285 284 284 284 285 285 285 284 283 283
298 297 296 296 296 295 293 292 291 291 289 288 288 288 288 288 287 287 287 287 286 286 286 285 285 285 285 284 284 284 284 285 284 284 284 283 284 285 284 283 282 283 283
294 295 295 294 293 291 289 288 287 288 288 287 287 287 287 287 287 287 286 286 286 285 285 285 284 284 283 283 283 283 284 283 283 283 283 284 283 282 282 281 282 281 280
295 292 291 289 289 288 287 287 287 287 287 287 287 287 286 286 286 286 286 285 285 284 283 283 282 282 282 282 282 282 282 282 282 283 283 282 281 280 280 280 280 279 279
292 290 288 287 286 286 287 287 287 288 287 287 286 286 286 286 285 285 284 283 284 282 281 282 281 281 281 281 283 282 282 283 283 283 281 279 279 279 279 279 279 279 279
289 288 287 286 286 287 288 288 288 288 287 286 286 286 285 285 284 284 283 283 282 282 281 280 281 281 281 282 282 282 282 282 281 281 279 279 279 279 278 278 278 278 278

GFSMW_925_thetae_045.txt.gz
Theta_e
315 317 318 318 318 319 320 321 325 336 338 339 340 340 340 339 337 335 334 333 331 332 331 328 324 319 317 314 310 304 303 301 300 301 301 301 300 301 300 300 299 299 298
311 312 316 317 318 319 320 320 322 328 337 338 338 339 339 338 338 336 334 334 332 332 332 325 320 316 313 309 305 304 302 300 298 299 299 298 299 299 300 300 300 299 297
311 311 310 314 316 316 319 320 321 322 325 331 333 335 337 337 336 335 335 334 333 332 330 322 318 314 313 308 304 303 303 300 297 297 298 297 297 294 297 299 298 297 296
308 308 308 309 313 314 316 318 320 320 322 323 324 329 334 333 335 334 333 332 331 328 324 318 313 311 308 304 303 302 302 301 298 296 295 295 295 293 292 295 296 295 294
308 309 308 310 312 313 313 314 318 319 320 323 324 326 332 333 332 329 329 327 324 323 319 313 309 307 305 302 301 300 299 299 298 297 295 294 294 294 291 291 292 294 294
307 308 308 310 311 312 313 313 314 317 318 320 325 327 330 329 324 319 317 316 316 316 310 307 307 305 302 302 300 298 297 296 296 295 294 293 293 292 291 289 288 289 291
308 308 309 308 311 312 313 312 313 314 315 320 327 329 329 329 327 319 313 311 309 307 305 306 303 302 301 298 298 297 296 295 294 293 293 292 292 291 291 290 289 288 290
305 307 310 307 310 313 314 315 312 314 315 324 328 329 327 323 320 316 313 310 307 305 304 303 301 299 298 297 296 295 295 294 293 293 292 292 291 291 291 290 289 287 287
305 308 309 310 312 313 313 314 315 314 319 328 326 325 323 324 321 315 312 310 306 304 302 301 299 298 297 296 295 295 294 292 292 292 291 291 291 290 290 290 289 288 286
308 308 310 311 313 313 313 315 315 315 326 326 324 319 319 321 316 312 308 307 302 299 299 298 299 296 295 294 294 293 292 291 291 291 291 290 290 290 290 289 289 288 287
306 305 310 311 312 313 314 316 314 318 324 322 316 317 315 313 310 308 305 302 299 298 298 297 295 294 293 293 292 292 291 291 290 290 290 290 290 289 289 288 288 288 287
306 310 311 311 312 312 316 318 316 321 317 316 315 311 308 307 305 303 300 298 297 297 297 295 293 293 292 292 292 290 290 290 290 290 290 290 289 289 289 288 287 287 286
307 309 310 310 310 312 318 317 312 309 308 309 304 302 302 300 299 297 297 296 295 295 294 294 293 292 294 292 290 289 289 289 290 290 290 290 289 289 288 287 287 286 286
310 309 309 310 311 314 309 305 303 301 302 300 299 297 297 296 295 295 295 295 294 294 293 293 293 291 289 289 289 289 290 290 290 289 289 288 288 288 287 287 287 287 286
312 310 310 311 310 307 304 300 299 298 298 297 297 296 296 295 295 294 293 293 293 293 292 293 294 291 289 288 289 288 288 287 287 287 287 287 287 287 287 287 287 287 286
312 311 310 305 302 302 300 298 297 296 297 296 295 294 294 293 292 292 292 292 293 293 291 289 288 289 289 287 287 286 286 285 285 286 286 286 286 286 286 286 286 287 287
313 309 299 296 297 297 296 295 294 294 294 293 293 292 292 291 291 291 291 290 290 289 291 292 289 287 287 287 286 286 285 284 285 285 285 285 285 285 285 285 286 286 286
307 300 296 295 294 293 293 293 293 293 292 292 292 291 291 291 291 291 292 292 292 290 288 287 287 287 287 286 285 286 285 284 284 284 284 284 285 285 285 286 286 286 285
295 294 293 293 293 292 292 292 292 291 291 291 291 291 292 292 291 289 290 291 292 289 287 287 286 286 286 285 285 285 285 284 284 284 284 284 284 284 286 286 286 285 285
294 293 293 293 292 292 292 292 292 291 291 291 291 291 291 291 291 291 289 288 287 287 286 286 286 286 285 285 285 285 285 284 284 284 284 284 284 285 285 286 285 284 283
295 295 295 294 293 293 293 292 293 292 291 291 291 292 293 294 292 289 288 287 287 286 286 286 285 285 285 284 285 285 285 284 284 284 283 283 283 285 285 285 284 283 283
296 295 294 292 293 293 293 292 291 291 292 292 293 291 289 287 287 289 287 286 286 286 285 285 285 284 283 283 284 285 285 284 284 283 283 283 284 284 283 282 282 283 283
295 294 292 292 292 292 293 292 292 293 289 287 288 288 288 289 287 286 286 285 285 284 284 283 283 282 281 281 282 283 283 283 283 283 283 283 282 281 280 280 281 281 279
293 292 291 291 289 288 288 288 287 287 288 288 287 287 287 286 286 286 285 285 284 282 282 281 281 280 281 281 282 282 282 282 283 283 282 281 279 279 279 279 279 279 279
290 289 287 286 286 287 287 287 288 288 287 287 286 286 286 285 285 284 283 283 282 282 281 281 281 281 281 281 283 282 283 283 283 282 280 278 278 278 278 278 278 278 278
288 287 287 287 287 287 287 287 288 288 287 286 285 285 285 284 283 283 282 283 283 282 282 281 281 281 281 282 282 282 282 282 281 279 278 278 278 277 277 278 278 277 278

GFSMW_925_thetae_048.txt.gz
Theta_e
312 314 315 316 316 317 318 318 319 326 338 338 338 337 337 338 338 337 335 333 330 328 326 328 327 324 323 320 316 312 306 302 301 301 301 301 301 301 300 300 299 299 298
310 309 314 316 317 318 318 318 317 319 332 338 338 338 338 338 338 336 335 334 332 329 330 329 327 325 322 317 314 312 303 301 300 300 299 299 299 300 300 300 299 299 298
311 311 308 312 314 315 317 317 318 318 321 336 338 338 338 336 335 335 334 332 331 330 330 330 328 325 322 318 312 308 305 302 298 299 300 297 299 295 296 298 299 297 295
307 308 308 309 313 315 316 316 316 317 320 330 336 336 335 334 335 336 335 333 331 330 330 330 328 324 318 315 311 305 304 304 300 296 296 296 296 293 294 295 296 295 294
305 305 305 308 312 312 313 314 314 315 316 322 330 333 333 334 334 335 334 333 329 328 330 329 323 318 315 312 307 303 302 302 301 299 296 295 294 293 292 292 292 294 294
305 304 306 308 309 310 311 311 310 312 313 316 320 323 332 333 331 330 329 327 327 324 324 322 317 314 311 306 304 303 301 300 300 298 296 295 293 292 291 289 289 289 291
304 305 306 306 309 311 313 313 312 312 313 314 317 321 326 331 333 330 326 323 321 319 318 315 310 309 305 305 302 301 299 298 297 295 294 293 293 292 291 290 289 288 289
302 302 306 306 310 312 313 313 313 314 313 313 314 318 324 326 326 326 325 322 318 316 315 311 308 305 305 304 300 298 296 295 294 294 293 292 292 291 291 290 289 287 287
305 303 306 309 310 311 312 312 312 312 314 314 314 321 324 323 324 323 321 318 316 313 308 305 305 305 302 299 298 296 297 293 293 292 292 292 291 291 290 290 290 288 287
308 306 306 309 311 311 311 312 313 314 314 314 319 322 322 321 320 319 316 314 311 308 307 304 302 299 298 298 295 294 294 292 292 291 291 291 290 290 290 289 289 288 288
309 307 302 308 311 311 312 314 316 316 314 319 321 318 316 316 316 312 312 311 309 307 302 300 299 297 296 295 294 293 292 291 291 291 290 290 290 290 289 289 288 288 287
308 306 306 309 310 311 312 316 317 317 317 319 316 314 314 312 310 309 308 308 304 300 299 298 297 295 294 293 292 291 291 290 290 290 290 290 289 289 289 288 288 287 287
310 307 306 308 309 310 315 314 315 315 314 313 311 309 307 307 305 303 301 300 298 296 296 296 294 293 292 292 292 293 291 290 289 290 290 290 289 289 288 288 287 287 287
312 309 309 308 308 311 307 305 302 302 303 305 303 301 301 301 300 298 296 295 294 294 295 293 293 293 295 293 290 289 289 290 291 290 289 288 288 288 287 287 287 287 286
312 309 308 306 306 302 299 299 299 299 298 298 297 296 295 295 295 294 293 293 293 293 293 295 294 291 290 290 290 290 291 288 287 286 286 286 287 287 288 288 287 287 286
312 310 300 298 298 297 297 297 298 298 298 297 296 295 294 293 293 292 292 293 293 294 293 292 292 289 289 292 293 290 287 285 285 285 285 285 285 285 286 287 287 287 287
309 302 297 295 295 295 295 295 295 295 295 294 293 292 291 291 291 291 292 292 292 292 289 288 291 292 289 288 287 287 285 284 284 284 284 284 284 284 284 285 286 286 286
297 294 293 293 293 293 293 293 293 292 292 292 292 292 292 292 293 294 293 291 290 291 293 291 290 288 288 288 287 286 285 284 284 283 284 284 284 284 285 285 286 285 285
294 293 293 293 292 292 292 292 292 292 291 291 292 293 295 292 292 291 291 291 291 290 288 287 287 286 287 286 286 286 285 284 284 284 284 284 284 284 285 286 286 285 284
293 293 292 292 292 292 292 292 292 292 292 291 292 292 292 292 291 291 291 291 290 288 286 286 286 286 285 286 286 286 285 284 284 284 284 283 283 284 285 286 285 283 283
295 294 293 293 293 292 292 292 291 291 291 291 291 291 292 293 292 291 288 288 289 286 285 285 285 285 284 284 285 285 285 284 284 283 283 282 283 285 285 284 283 282 283
295 293 292 292 293 293 292 291 290 291 292 292 292 292 291 291 289 288 287 286 286 285 284 284 284 283 283 283 284 284 284 284 283 283 282 283 284 283 282 282 281 282 282
293 292 291 291 291 292 292 291 291 292 292 292 291 289 288 287 286 286 285 285 284 284 283 283 282 281 281 281 281 283 283 283 283 283 283 283 282 280 279 280 281 281 279
295 294 294 291 290 293 293 292 293 292 289 287 287 287 286 286 285 285 284 284 282 282 281 281 280 280 281 281 282 282 282 283 283 282 281 280 279 279 279 279 279 279 278
290 289 287 287 287 289 289 289 287 287 287 287 286 286 285 284 284 283 283 282 282 282 281 281 281 281 281 282 283 283 283 283 282 281 279 278 278 278 278 278 278 278 278
288 287 287 287 287 287 287 287 287 288 287 286 285 285 284 284 283 283 283 283 283 282 282 282 282 282 282 282 282 282 282 281 281 278 277 277 277 277 277 277 277 277 277

GFSMW_925_thetae_051.txt.gz
Theta_e
311 312 314 315 315 316 315 316 316 318 333 338 339 338 338 339 338 337 336 335 334 333 327 328 327 325 326 324 318 312 312 308 303 301 300 300 301 301 300 300 300 299 298
309 308 311 313 314 316 317 315 316 316 329 336 337 337 337 337 338 338 337 335 335 335 329 327 325 325 325 319 315 315 311 305 301 301 299 298 299 300 300 299 299 298 298
310 310 307 310 312 313 315 316 317 317 318 332 336 336 336 335 335 335 335 335 335 334 330 326 325 326 324 320 317 315 315 304 299 300 301 297 299 296 297 298 299 299 298
306 306 306 307 309 311 313 314 315 315 317 319 336 336 335 333 333 334 335 336 334 333 330 327 325 326 323 319 317 314 313 307 301 298 298 298 298 295 294 295 296 296 295
303 304 304 306 308 309 311 312 312 313 313 316 321 335 335 333 333 333 334 335 332 330 329 328 326 324 323 319 317 313 307 305 303 300 296 295 294 294 292 292 292 294 293
302 303 303 306 307 309 310 311 311 312 312 313 315 327 334 333 333 333 331 332 332 330 328 329 328 323 322 318 316 310 305 303 303 301 299 297 294 293 292 289 289 290 292
305 305 301 301 306 308 310 310 311 312 311 311 312 316 325 332 332 332 329 326 326 327 328 327 326 322 318 314 310 306 303 301 301 299 296 295 294 294 292 291 288 288 290
305 304 304 305 308 310 311 311 312 312 313 312 312 313 317 321 326 330 329 328 327 323 324 323 321 317 312 309 305 303 300 299 297 295 294 293 293 292 292 291 290 287 287
307 306 304 308 310 311 311 310 311 311 311 311 312 313 314 319 322 325 327 324 322 322 319 319 316 311 307 304 302 298 297 296 295 297 296 293 292 291 291 290 290 289 287
308 307 305 305 306 308 310 310 311 312 312 313 313 313 314 318 321 322 322 321 318 316 313 312 310 305 304 301 298 296 295 295 293 293 293 291 291 290 290 290 289 289 288
310 308 307 307 307 309 310 310 313 314 315 315 315 315 317 319 319 317 316 314 313 311 310 308 305 303 300 297 297 294 294 295 293 291 290 290 290 290 290 289 289 288 287
308 306 305 305 306 309 310 311 313 313 315 315 315 314 314 314 313 312 311 310 309 307 305 302 300 298 296 295 295 292 292 293 292 291 290 290 289 289 289 289 288 288 287
310 313 308 306 307 307 308 307 306 306 309 310 310 309 309 309 308 307 306 305 302 299 298 297 296 295 294 292 292 292 291 291 291 291 290 290 291 290 288 288 287 287 287
311 311 308 306 304 304 301 300 300 301 303 304 304 303 303 303 303 303 301 300 298 296 294 294 293 293 292 292 293 294 292 290 290 292 293 290 288 287 287 287 287 287 287
304 306 306 301 299 297 298 299 299 299 299 298 299 297 298 296 296 294 294 293 293 293 293 293 292 293 294 292 290 290 291 291 291 287 286 286 286 287 288 288 288 287 287
303 306 297 295 294 294 295 296 297 297 297 295 294 294 293 293 292 292 292 292 292 292 292 293 293 292 291 291 291 291 291 288 285 285 285 285 285 285 285 286 287 287 287
297 295 293 293 293 294 294 293 293 294 293 292 292 292 291 291 291 291 292 292 292 294 293 292 292 291 292 291 291 292 287 284 284 284 284 284 284 284 284 284 286 286 286
294 294 293 292 293 294 294 294 293 293 292 292 292 292 292 292 292 293 292 292 293 291 291 292 292 292 290 289 289 286 285 284 284 284 284 284 284 284 285 285 285 285 285
294 293 292 292 292 292 292 292 292 292 293 292 292 292 292 292 292 291 291 291 292 292 292 292 289 288 289 287 286 286 285 285 284 284 284 284 283 283 285 285 286 285 284
293 293 292 292 292 292 292 292 292 292 292 291 291 291 291 291 292 291 291 291 291 290 288 287 287 286 285 287 286 286 285 284 284 284 283 283 283 284 285 286 284 283 283
294 294 293 293 293 292 292 291 291 290 290 291 292 292 292 292 292 291 290 290 289 286 284 284 284 284 284 285 286 286 285 284 284 283 283 282 283 284 284 284 283 282 283
294 293 292 293 292 292 292 290 290 291 292 291 291 291 291 291 291 290 288 286 285 284 284 283 283 282 282 282 283 284 284 284 283 283 283 283 284 283 282 281 281 282 283
293 291 292 292 292 292 292 290 290 291 292 292 291 291 290 288 285 285 284 284 284 283 282 282 281 280 281 281 282 283 283 283 283 283 283 282 281 280 279 279 281 280 279
294 293 292 292 292 292 292 292 292 292 292 289 288 286 286 285 285 285 284 283 282 281 281 280 280 281 281 282 283 282 282 282 282 282 280 279 278 279 279 279 279 279 279
293 290 289 289 290 292 292 292 291 288 287 286 286 285 285 284 283 283 282 282 282 281 281 281 281 281 281 282 283 283 282 282 281 281 279 278 278 278 279 279 279 278 278
289 288 289 289 289 290 289 287 287 287 287 286 285 284 284 283 283 283 283 283 283 283 282 282 282 282 282 282 282 281 281 281 280 279 277 277 277 277 277 277 278 278 278

GFSMW_925_thetae_054.txt.gz
Theta_e
311 312 314 314 314 314 315 316 315 316 327 338 339 338 336 338 337 338 338 337 335 332 328 323 325 328 330 326 326 321 313 310 306 301 300 300 300 300 301 301 301 300 298
308 307 310 311 312 313 314 314 315 315 317 332 336 337 337 337 338 337 338 337 336 334 332 328 325 327 329 325 325 322 310 308 304 301 299 298 299 299 299 299 299 299 298
305 306 306 308 309 310 312 314 315 316 314 323 332 336 337 336 336 335 336 337 337 336 333 332 328 326 327 324 324 320 315 307 302 302 303 297 300 296 297 298 298 298 298
301 302 302 304 306 308 309 310 311 313 314 316 333 334 334 334 333 334 336 336 336 336 335 333 332 328 327 323 323 318 313 312 308 301 300 299 300 296 294 295 297 297 297
302 303 300 303 305 307 307 308 310 312 313 314 322 333 333 333 334 333 334 333 334 334 334 333 332 328 325 322 321 318 312 312 313 305 297 295 296 295 294 292 292 294 294
305 306 306 306 308 309 309 307 307 309 311 311 313 319 330 332 333 333 332 333 332 331 331 332 331 328 325 322 320 317 313 311 309 305 301 299 296 294 293 291 290 292 293
306 305 305 304 308 309 310 311 310 309 309 309 310 312 318 330 332 332 332 330 329 328 330 330 328 327 324 321 318 315 312 309 304 302 300 299 297 296 294 293 289 289 290
306 306 305 305 307 307 308 310 310 310 310 310 311 311 312 316 325 330 330 330 329 329 327 326 327 325 324 317 315 312 312 305 301 300 298 297 295 293 294 292 291 288 288
308 307 305 306 307 309 309 308 310 310 310 311 311 311 311 312 314 318 324 327 327 325 324 323 321 320 319 317 313 310 305 300 298 297 294 294 295 295 292 291 291 291 288
308 307 305 307 308 309 308 310 310 311 312 313 314 314 313 313 314 315 319 322 323 322 320 316 314 313 313 311 307 303 299 297 294 294 295 292 292 291 291 290 290 289 289
308 306 305 308 309 310 309 309 309 310 311 313 315 315 314 314 316 317 318 318 318 316 314 312 311 310 308 304 302 298 294 294 293 293 293 291 291 290 290 290 289 289 288
308 307 308 308 307 307 306 307 307 306 307 311 311 312 312 312 313 314 313 313 312 310 311 308 305 302 299 297 295 293 293 293 292 290 290 290 290 290 290 290 291 289 287
308 305 306 305 302 300 300 301 302 303 305 307 307 307 307 308 309 310 308 307 307 305 303 302 299 297 295 294 293 293 292 292 291 290 291 291 292 292 292 290 288 287 287
302 302 304 300 297 297 299 300 300 301 302 302 303 302 303 303 302 302 301 300 298 297 295 295 294 293 292 292 292 292 292 292 292 292 292 292 291 289 287 287 287 287 287
300 299 297 293 294 295 296 297 298 297 296 296 295 295 295 295 295 294 294 293 293 293 293 292 292 292 293 293 294 294 291 292 292 292 289 287 286 286 287 288 288 287 287
298 295 295 293 294 294 294 294 294 294 294 293 293 293 293 292 292 292 292 292 292 291 292 292 292 293 292 293 292 293 293 292 291 287 284 284 284 285 285 285 286 287 287
296 293 292 293 294 294 294 293 293 293 293 292 292 292 292 292 292 292 292 291 291 292 293 293 293 293 292 291 292 292 288 285 284 284 284 284 284 284 284 284 285 285 286
295 293 292 292 293 294 294 294 294 293 293 293 293 292 292 292 292 292 292 292 293 293 293 292 292 292 290 290 287 285 284 284 284 284 284 284 284 283 284 285 285 285 285
293 292 292 292 292 292 292 292 292 292 292 291 291 291 291 291 292 292 292 292 292 292 291 291 291 290 289 289 288 285 285 284 284 284 284 284 283 283 285 285 285 285 283
293 293 293 293 292 292 292 292 291 291 291 291 291 291 291 292 292 291 291 291 291 290 289 287 287 287 287 287 286 286 285 284 284 284 283 282 283 284 285 285 284 282 282
294 294 293 293 292 292 292 291 291 290 291 291 292 292 292 292 291 291 291 291 288 285 284 284 284 284 285 287 287 286 284 284 284 283 283 282 283 284 284 283 282 281 283
293 293 293 293 292 292 292 291 290 290 292 292 292 291 291 291 291 289 286 284 284 283 283 283 282 282 282 283 284 284 284 284 283 283 283 283 283 282 281 281 281 283 282
292 292 292 292 292 292 292 291 290 292 292 291 291 290 288 286 285 284 284 283 283 283 282 282 281 280 281 282 283 283 283 283 283 282 282 281 280 279 279 280 281 280 280
293 293 293 293 292 292 292 292 291 292 291 289 286 285 284 284 284 283 283 282 281 281 280 280 281 281 281 282 283 282 282 282 281 281 280 278 278 279 279 280 280 279 279
293 291 292 292 292 292 292 292 292 290 288 286 285 284 284 283 282 282 283 283 282 281 281 281 281 281 281 282 283 282 282 282 281 280 278 278 278 279 279 279 279 279 279
290 290 291 291 291 292 292 290 288 288 287 285 283 283 283 283 283 284 284 284 283 283 283 282 282 281 282 282 282 281 281 280 280 278 277 277 277 278 278 278 278 279 279

GFSMW_925_thetae_057.txt.gz
Theta_e
310 310 311 311 312 313 314 314 314 315 328 338 338 335 337 337 334 336 337 336 337 334 332 328 326 327 328 330 330 325 322 316 308 304 300 300 300 300 301 302 302 301 300
305 305 306 308 309 310 312 313 313 314 315 330 334 335 335 336 335 335 338 336 337 336 335 333 329 325 326 327 329 325 319 311 308 304 302 305 301 299 299 301 301 300 299
305 305 303 304 306 307 308 310 312 312 313 315 329 335 335 335 334 334 332 336 336 337 336 335 332 328 323 326 329 326 322 309 306 306 307 304 309 300 297 298 299 299 298
306 306 305 305 305 306 306 307 309 310 312 313 326 332 332 333 333 333 332 334 334 335 335 335 333 330 327 324 328 327 322 316 308 301 304 302 302 303 300 295 297 297 297
307 308 307 305 307 308 309 307 307 308 309 310 313 327 331 332 332 332 332 333 333 333 334 334 333 332 330 327 325 325 319 316 312 308 301 297 297 297 298 298 295 295 296
308 308 307 307 308 308 309 310 309 308 307 309 311 320 330 331 331 332 332 332 332 332 332 331 331 329 329 329 327 323 321 315 312 312 311 305 299 297 295 296 294 294 293
309 309 308 307 308 309 309 309 309 309 309 309 308 309 314 326 330 330 330 330 328 328 330 330 329 329 328 325 323 320 319 315 310 311 310 305 301 300 297 295 291 292 290
309 309 308 307 308 309 310 309 309 310 310 311 310 310 309 310 314 322 327 328 329 328 327 326 325 325 325 322 321 319 313 311 309 308 307 301 298 297 297 296 293 292 291
308 309 307 307 308 308 309 308 309 310 311 310 312 313 312 312 311 311 314 319 325 327 326 325 322 321 319 318 315 317 311 309 309 307 300 298 295 294 294 294 294 295 294
310 309 308 308 307 307 308 307 308 308 309 309 311 312 313 313 313 313 313 315 319 322 322 321 320 318 316 313 311 310 307 307 303 299 296 293 294 293 292 291 290 291 290
310 308 307 307 305 304 304 304 305 306 307 308 310 311 312 313 313 314 315 316 316 316 317 317 316 314 312 311 309 306 303 300 296 293 293 292 291 291 291 290 290 291 291
306 303 303 303 300 299 299 301 302 304 305 306 308 309 308 309 308 310 311 311 312 313 314 312 310 307 306 305 303 298 296 294 292 292 291 290 291 291 292 292 292 292 291
302 302 301 298 296 297 298 298 298 299 301 303 305 306 307 307 307 307 307 307 306 305 305 304 301 299 298 296 295 294 292 292 291 291 291 291 292 292 292 291 290 288 287
299 298 296 295 294 295 295 295 296 296 296 298 298 298 299 300 300 300 299 298 298 298 296 296 294 294 293 293 292 292 292 292 292 292 293 293 292 291 289 288 287 286 286
298 295 295 294 294 294 294 294 294 293 294 294 294 294 295 295 295 296 295 295 295 294 294 293 292 292 292 292 293 294 294 293 293 292 292 291 289 287 287 287 288 287 287
297 294 294 293 294 294 294 294 293 293 293 293 293 293 293 293 293 292 292 292 292 292 292 292 292 293 294 295 295 294 293 293 292 290 286 284 284 285 286 286 286 287 287
296 294 292 292 294 295 294 294 294 294 293 293 293 292 292 292 292 291 292 291 292 292 293 293 294 293 293 292 292 292 289 286 285 284 283 284 284 284 284 284 285 285 286
295 293 292 292 293 293 294 294 294 293 293 292 292 292 292 291 291 291 291 291 291 292 292 292 292 291 290 289 287 286 286 284 284 284 284 284 284 283 284 285 285 285 285
293 293 292 292 292 292 293 293 293 292 292 292 291 291 292 291 292 292 292 292 292 291 290 290 289 289 288 286 285 285 285 284 284 284 284 283 283 283 285 285 285 285 283
294 294 293 293 293 292 292 292 292 292 291 291 291 291 291 291 291 291 291 290 289 289 289 288 287 288 288 287 287 285 285 284 284 283 283 282 283 284 285 285 284 282 282
293 294 293 293 292 292 292 291 291 291 291 291 291 291 291 291 291 290 290 290 287 284 283 283 285 286 287 287 286 285 284 284 283 283 283 282 283 284 283 283 282 281 283
293 294 293 293 292 292 292 291 290 290 291 291 291 291 291 291 289 286 284 283 283 283 282 282 282 282 283 284 285 285 284 284 283 283 282 282 282 281 281 281 282 283 282
292 292 293 292 292 291 292 291 291 291 291 291 290 289 286 285 284 284 284 284 283 283 282 281 281 281 281 282 283 283 283 283 282 282 282 281 280 279 280 280 281 280 280
292 292 292 292 292 292 292 292 292 291 291 287 285 284 284 284 283 283 282 282 281 281 280 280 280 281 282 282 282 282 282 282 281 281 280 278 279 279 279 280 280 279 279
293 293 293 293 292 292 292 292 292 290 286 285 284 284 283 283 282 283 283 282 281 281 281 281 281 281 281 282 283 282 282 281 281 280 278 278 279 279 279 279 279 279 279
291 292 292 292 292 293 293 292 289 288 286 284 284 283 283 283 283 284 284 284 284 283 283 282 282 281 282 282 282 281 281 280 280 278 277 277 277 278 278 278 278 279 279

GFSMW_925_thetae_060.txt.gz
Theta_e
315 312 312 312 313 314 316 316 317 317 323 332 338 337 338 337 336 339 337 337 335 334 333 332 331 330 329 330 331 329 322 318 317 310 309 306 305 304 305 307 306 305 304
311 310 308 309 310 311 313 314 315 316 317 323 333 336 337 337 338 336 336 336 336 335 334 333 332 331 330 329 330 328 322 320 313 317 316 316 309 304 303 305 305 304 303
313 312 311 310 310 310 310 311 312 314 315 316 323 331 334 335 336 337 336 333 335 335 334 333 333 332 330 329 329 327 322 319 312 315 319 319 321 309 304 302 303 302 302
314 313 313 312 311 311 310 308 309 310 311 313 317 325 331 332 332 332 334 334 333 332 333 333 334 332 330 328 327 325 323 321 314 309 309 307 310 313 308 300 301 301 300
315 314 313 312 312 312 312 312 310 308 309 311 314 320 327 328 329 331 332 333 333 332 331 332 332 331 329 327 326 323 321 322 319 312 308 306 303 302 307 309 300 298 298
316 316 314 313 313 313 312 312 312 311 310 309 311 314 320 326 329 330 332 332 333 331 330 330 329 329 328 326 325 322 320 320 320 313 310 309 308 306 304 307 303 300 297
316 316 315 313 314 313 313 312 311 312 312 312 311 310 312 318 326 328 330 330 331 331 329 329 328 327 327 326 324 322 319 318 318 314 311 309 310 307 303 303 298 299 292
316 316 314 314 314 313 313 312 312 312 313 313 313 313 312 312 313 317 322 325 326 328 328 327 326 326 325 324 322 320 318 316 315 314 310 311 309 306 305 302 297 297 292
315 314 313 313 312 312 311 311 310 311 311 311 313 313 314 314 314 314 315 318 321 325 326 326 325 324 324 322 320 317 316 314 312 310 308 309 309 300 297 295 295 298 297
314 312 311 311 309 308 308 308 308 308 308 309 311 311 312 312 313 314 316 316 317 319 320 321 320 321 321 320 317 315 313 310 308 304 304 299 295 293 293 293 294 294 293
311 310 309 307 305 305 305 305 305 306 307 307 309 309 309 309 309 310 310 311 312 313 314 315 316 317 317 315 313 312 309 305 302 300 297 295 293 291 292 292 293 293 293
308 308 306 304 304 304 304 303 303 303 304 305 307 308 309 309 309 309 309 310 311 312 312 312 312 311 309 308 307 304 300 298 294 292 292 291 291 292 293 294 294 294 293
306 305 304 302 302 302 301 301 300 300 300 302 303 304 304 303 303 302 302 303 304 303 303 303 302 300 301 301 299 297 294 293 292 292 292 293 293 293 292 293 292 291 290
304 303 303 301 300 300 299 299 298 298 298 299 299 299 297 296 296 296 296 295 296 296 295 294 294 294 293 294 293 293 292 292 292 292 292 292 293 293 292 291 290 288 287
303 301 301 300 300 300 299 298 298 297 297 297 296 296 295 294 295 294 294 294 294 293 293 293 292 292 292 292 292 292 292 292 293 293 293 292 292 292 289 287 287 288 288
300 299 298 299 300 300 299 298 298 296 296 295 294 294 293 293 292 293 293 293 293 293 293 293 293 293 293 292 292 293 293 292 292 290 289 288 286 287 287 287 287 288 288
299 298 297 297 298 298 297 297 297 296 296 295 294 293 292 291 291 291 292 292 292 292 292 292 292 293 292 292 292 293 292 290 287 285 285 285 285 284 284 284 285 286 286
298 296 296 296 296 296 296 296 296 294 293 293 292 292 291 291 291 291 292 292 292 292 291 291 290 289 289 289 289 287 285 284 284 284 285 285 284 284 285 285 286 286 286
296 295 294 294 295 295 295 295 294 294 292 292 292 291 291 291 291 290 290 290 291 290 290 289 289 288 287 286 285 285 285 284 284 284 284 284 284 284 286 286 286 286 285
296 296 295 294 294 293 294 294 293 293 291 291 291 291 291 291 290 290 290 290 290 289 289 288 288 289 289 288 286 285 285 285 285 284 284 283 284 285 285 286 285 284 284
296 295 294 294 293 293 293 292 292 291 291 291 291 291 291 291 291 290 290 289 286 285 285 285 286 287 288 287 286 285 285 285 284 284 284 283 283 284 283 283 284 283 283
295 295 294 294 293 292 292 292 291 291 291 291 291 290 290 289 287 285 285 285 285 284 284 283 283 283 285 285 285 285 285 284 284 283 283 283 282 281 281 282 282 283 283
294 294 293 293 292 291 293 292 291 291 291 290 288 286 285 285 285 285 285 284 284 284 283 283 283 283 283 283 283 283 283 283 283 282 282 281 280 280 281 281 281 281 281
294 294 294 294 292 292 293 293 292 291 289 287 285 285 285 284 284 283 283 283 283 283 283 283 283 282 283 283 283 283 283 282 282 281 281 279 279 280 280 280 281 281 281
294 294 295 294 293 292 292 292 291 289 287 286 285 285 284 284 284 284 283 283 282 282 283 282 282 282 283 283 283 283 282 282 282 281 279 280 280 281 281 281 281 280 280
295 295 295 294 293 292 291 291 289 287 286 285 285 284 284 284 285 285 285 284 284 283 283 282 282 282 282 282 282 281 281 280 280 279 279 280 281 281 281 281 281 281 280

GFSMW_925_thetae_063.txt.gz
Theta_e
317 317 316 315 316 317 318 318 319 319 320 325 331 341 339 337 338 339 341 340 339 337 336 336 334 333 332 331 332 331 330 326 323 320 314 313 311 309 309 310 310 309 309
316 314 312 312 312 314 315 316 318 318 319 319 323 335 338 337 337 337 337 338 339 338 336 336 335 334 333 332 332 331 330 327 323 319 317 319 313 309 308 308 309 308 307
314 314 314 313 313 313 313 313 314 316 317 318 319 323 334 336 338 339 337 336 336 337 338 336 336 335 333 333 332 331 330 327 321 318 322 322 324 312 308 307 307 307 306
315 315 314 314 314 314 315 312 311 312 313 315 317 319 324 331 334 334 335 336 336 335 333 336 336 335 334 333 332 331 330 328 323 317 319 321 315 318 309 306 305 306 305
317 316 315 315 315 315 315 315 314 312 311 312 314 315 318 323 328 330 330 331 333 335 334 331 332 333 333 333 332 330 331 327 324 316 316 315 311 308 309 308 303 303 303
317 317 316 316 316 316 316 314 314 314 313 312 312 314 316 320 325 327 329 330 332 333 334 332 329 330 330 331 331 330 329 326 325 321 318 315 314 309 307 311 306 303 301
317 317 317 316 316 316 316 315 315 314 314 315 314 313 313 315 319 324 327 329 330 331 331 330 329 328 328 328 329 328 327 325 323 323 317 314 314 314 311 311 301 301 295
317 317 316 316 316 315 315 314 314 314 314 314 314 315 315 314 314 314 317 321 325 325 326 330 327 326 326 327 328 327 326 323 322 321 321 315 311 309 308 304 300 301 294
317 315 314 313 314 312 311 312 312 312 312 312 313 314 315 315 316 317 316 316 317 319 322 325 326 324 323 324 325 325 324 322 320 319 319 312 307 305 304 305 304 302 297
316 314 312 312 310 309 309 309 309 310 310 311 311 312 312 312 313 313 315 315 316 318 318 320 319 320 320 320 322 322 320 318 316 314 312 307 304 301 299 296 296 298 298
313 312 311 309 308 308 308 307 307 308 308 309 311 311 311 311 312 311 311 311 311 313 313 314 314 315 315 317 317 316 314 313 311 308 305 301 298 297 295 294 294 296 297
311 310 308 307 307 306 306 305 304 304 304 306 307 307 307 307 306 305 305 305 307 307 308 309 309 309 310 311 311 310 308 307 302 299 298 297 295 294 294 295 296 296 295
310 308 307 306 305 305 304 304 303 302 302 303 303 302 301 301 300 299 299 298 297 298 299 299 299 299 300 299 299 300 299 298 297 296 295 293 294 294 294 295 294 293 293
308 307 307 305 304 303 303 303 301 301 301 301 300 299 299 297 296 296 295 295 295 296 296 295 294 294 293 294 294 294 293 292 292 292 292 293 294 293 293 292 292 290 290
306 305 305 304 304 303 303 302 301 300 299 299 298 297 297 296 295 295 295 295 294 293 293 294 293 292 292 292 292 292 292 292 292 292 292 292 292 292 292 292 290 288 288
304 302 302 302 303 303 302 301 300 299 299 297 297 296 295 294 293 293 293 293 292 292 293 293 293 293 293 292 292 292 293 292 292 290 290 289 288 289 289 289 289 289 289
303 302 301 301 301 301 300 299 299 298 297 296 295 294 293 293 292 292 292 292 292 292 292 292 292 291 291 291 292 292 291 289 288 287 287 286 285 285 284 285 286 287 287
302 300 300 299 299 299 298 298 297 295 294 293 293 293 293 292 291 291 291 291 291 291 290 290 290 289 288 290 289 288 287 285 285 286 286 286 285 284 285 286 286 287 287
301 299 298 297 297 297 297 297 296 295 293 292 292 292 291 290 290 291 290 290 290 290 289 289 289 288 287 287 286 286 286 286 285 285 285 285 285 284 286 286 286 287 286
299 298 297 296 296 295 296 296 294 293 292 292 292 292 291 292 291 290 290 290 290 289 289 288 289 290 288 287 286 286 286 286 285 285 284 284 284 285 286 285 286 285 284
299 298 297 296 296 295 295 292 292 291 291 291 291 292 292 291 290 290 290 288 287 287 287 287 287 287 287 287 286 286 285 285 285 284 284 283 284 284 283 283 283 283 283
298 297 297 296 295 294 293 292 292 292 292 291 291 291 291 290 288 287 287 287 286 286 285 285 284 284 285 285 285 285 284 284 284 284 283 283 283 282 282 282 283 284 284
297 297 296 294 293 293 293 292 291 291 292 292 290 288 287 287 287 287 286 286 286 285 284 284 284 284 284 284 283 284 283 283 283 282 282 281 281 281 282 281 282 282 282
296 296 295 294 293 294 293 293 293 293 292 290 287 287 286 286 285 285 284 285 284 284 284 284 284 283 284 284 284 284 284 283 283 283 282 280 280 281 281 281 282 282 282
296 296 296 295 294 293 294 294 294 292 290 287 287 286 286 285 285 285 285 284 284 284 284 283 283 283 284 283 283 283 282 282 282 281 280 280 281 282 282 282 282 282 281
296 296 296 295 294 294 294 294 292 290 288 287 286 286 286 286 286 286 286 284 284 283 282 282 282 282 282 283 282 282 282 281 281 280 280 281 282 282 282 282 282 282 282

GFSMW_925_thetae_066.txt.gz
Theta_e
315 316 315 315 315 315 317 318 319 320 320 322 326 341 341 340 338 337 340 341 339 337 336 336 335 334 331 331 331 332 330 330 326 323 319 315 313 312 312 312 312 312 312
314 313 312 312 312 312 314 315 317 318 318 319 320 326 340 340 338 335 335 338 340 340 337 336 336 335 333 332 331 332 330 330 328 322 316 312 312 311 310 310 311 311 310
313 312 313 314 314 315 314 312 313 313 315 317 319 319 325 338 336 336 335 335 336 337 338 338 336 336 335 333 332 332 331 329 328 324 317 317 316 309 310 309 309 310 309
313 313 313 314 314 315 315 314 312 311 312 314 315 316 317 324 336 336 338 337 336 336 335 334 338 336 336 335 333 332 331 330 327 324 320 321 318 311 307 308 307 308 308
313 313 314 315 316 316 315 314 314 313 312 311 312 313 315 316 318 324 332 333 332 332 336 335 333 334 335 334 334 333 332 330 329 323 320 318 318 314 308 305 304 306 307
315 314 315 316 316 316 316 315 314 314 314 314 313 312 313 314 316 319 327 328 329 331 332 332 334 331 330 330 332 332 332 331 329 325 320 318 319 315 308 309 304 303 303
315 315 314 316 316 316 315 315 314 314 314 314 315 315 313 312 313 315 318 323 327 329 330 330 330 330 328 327 327 327 329 330 330 327 321 318 317 317 314 310 303 302 297
314 315 314 314 314 313 312 312 313 313 312 312 313 314 315 316 316 316 316 316 316 317 319 322 328 329 326 324 325 326 326 328 328 327 324 320 316 316 315 312 305 301 296
314 313 312 313 311 310 309 310 310 310 311 311 312 312 313 313 313 315 316 316 317 317 318 319 321 323 323 322 322 323 325 326 326 326 324 322 317 313 311 309 309 307 300
313 311 311 310 309 309 308 308 308 308 309 310 311 312 312 312 312 312 311 311 312 313 314 315 316 316 316 317 317 318 320 323 322 321 320 317 312 307 305 305 305 306 301
311 310 309 308 308 307 307 306 305 305 305 307 308 308 308 307 307 306 306 306 308 308 309 310 311 311 311 312 313 316 317 317 316 314 312 308 304 302 301 300 299 299 300
310 308 307 307 306 306 305 304 303 302 303 304 303 302 302 302 302 301 301 301 301 302 303 305 305 305 305 306 308 308 309 308 308 306 304 301 299 298 297 297 297 297 297
309 307 306 305 304 304 304 303 301 301 301 301 301 300 299 298 297 297 298 299 299 298 298 298 299 299 299 299 298 299 300 300 299 299 299 297 296 295 294 295 294 295 295
308 306 304 304 303 303 303 302 301 300 300 299 298 297 297 296 296 296 296 296 295 295 295 295 295 295 295 295 294 295 294 294 293 293 294 293 293 293 293 293 293 292 292
306 305 304 302 303 303 302 301 300 299 298 297 297 296 295 295 295 295 295 294 294 293 294 294 293 293 293 292 292 292 292 292 291 292 292 292 292 292 292 291 291 290 288
305 302 302 302 303 302 301 301 299 299 298 297 296 295 294 293 293 293 292 292 291 292 293 293 293 293 293 292 291 292 292 291 291 290 290 290 290 290 290 290 289 289 289
303 302 300 300 301 300 300 299 297 297 296 295 294 293 293 292 292 291 290 291 291 291 291 291 290 290 290 292 292 292 290 290 289 288 288 286 285 285 285 285 286 287 287
302 300 299 299 299 299 299 298 296 294 294 293 292 292 292 291 290 290 291 290 291 290 290 289 289 289 289 289 288 289 289 288 286 286 286 285 285 284 286 286 286 287 286
300 299 298 298 298 298 298 297 295 293 293 292 291 291 290 290 291 291 291 289 288 289 289 288 288 287 287 287 287 286 286 285 285 285 284 285 285 286 286 286 286 286 286
299 298 297 297 296 296 297 296 294 293 292 291 291 291 291 291 290 290 290 289 289 288 289 289 289 288 287 287 287 285 285 285 285 284 284 284 285 285 286 285 284 284 284
299 298 297 296 295 296 295 293 292 292 292 292 292 292 292 292 292 290 288 287 287 287 287 287 287 287 286 286 286 286 285 284 284 284 283 283 284 283 283 283 283 283 284
298 297 296 296 295 294 293 292 292 292 291 291 291 292 291 291 287 287 287 286 286 285 285 284 284 284 285 285 285 285 284 284 283 283 283 283 283 282 282 282 283 284 284
297 297 296 294 293 293 292 292 292 292 292 292 291 289 287 287 287 286 286 286 285 284 284 284 284 283 284 284 284 284 284 283 283 282 282 282 281 281 282 282 283 282 282
297 297 294 293 293 293 293 293 292 292 292 290 287 286 286 286 286 285 285 284 284 284 284 284 283 283 283 284 284 283 283 283 282 282 281 281 281 281 282 282 282 282 282
297 296 294 294 294 294 293 292 293 293 291 288 287 286 286 285 285 284 284 284 283 284 284 283 283 283 283 283 283 283 282 282 282 282 280 280 281 282 282 282 282 282 282
297 296 295 294 293 293 293 294 294 292 288 287 287 286 286 286 286 285 285 285 283 282 282 281 282 282 282 283 282 282 282 282 281 280 280 280 281 281 282 281 281 281 281

GFSMW_925_thetae_069.txt.gz
Theta_e
313 313 313 314 315 315 315 316 317 318 322 340 341 341 341 340 339 339 339 340 340 337 336 335 335 333 333 331 331 332 331 331 330 327 322 320 318 315 315 314 313 315 316
310 310 311 311 312 312 312 313 315 316 317 318 319 332 337 340 339 339 338 336 335 338 338 335 336 335 334 333 331 331 332 330 330 325 317 313 313 313 313 313 313 313 314
310 309 311 314 314 314 313 313 312 313 314 314 316 318 320 336 337 338 339 336 332 330 331 335 335 335 335 334 332 331 331 330 329 327 322 314 314 310 313 312 311 312 312
310 311 312 313 314 314 314 314 313 311 311 312 313 314 315 317 327 334 336 335 335 335 335 334 333 333 333 335 335 333 331 331 328 327 323 320 318 311 310 309 309 309 310
311 311 313 315 316 315 315 314 314 313 314 313 311 312 312 313 314 316 319 327 335 334 333 331 333 333 333 333 333 333 332 331 329 327 326 320 319 314 307 309 307 307 308
311 312 314 315 316 315 315 314 314 314 314 314 314 314 312 312 313 314 315 319 325 328 330 331 332 331 331 330 329 330 330 331 330 329 326 323 322 320 309 309 306 306 304
312 312 313 314 314 313 312 313 313 312 312 313 314 314 315 315 314 315 315 315 317 318 321 326 329 329 328 328 327 326 327 327 327 328 327 324 321 320 319 312 305 304 299
312 312 311 312 310 310 310 310 310 310 311 312 312 313 313 314 314 315 315 316 316 316 317 319 323 328 328 327 324 323 322 323 324 325 326 325 323 319 318 315 309 304 299
312 310 310 309 308 308 308 308 309 309 310 310 311 312 312 312 312 311 312 313 314 314 315 316 317 318 319 321 321 319 319 320 321 323 324 324 322 319 316 314 313 313 304
310 308 307 308 308 308 307 306 306 306 307 308 309 309 309 309 309 309 308 308 309 310 310 311 312 313 313 313 313 314 315 315 317 318 319 320 317 312 309 308 307 307 306
308 307 306 307 307 306 305 304 303 304 304 305 305 306 305 305 305 304 302 303 305 305 306 307 308 309 309 310 310 311 312 313 314 314 313 311 308 306 304 303 303 303 304
308 305 305 306 305 304 303 302 302 302 302 302 302 301 301 301 302 301 301 301 302 302 302 302 303 303 303 304 305 307 307 306 305 303 303 302 301 300 299 299 298 298 298
307 305 304 303 303 303 302 301 301 300 300 300 300 299 298 298 298 297 297 298 298 299 299 299 299 298 297 298 298 299 300 300 299 298 298 296 296 296 295 296 296 296 296
307 304 302 302 302 302 302 301 300 299 299 298 297 297 296 296 296 295 295 295 295 295 294 295 294 295 295 295 295 295 295 295 295 294 294 294 294 294 294 295 294 293 292
305 304 302 300 301 301 301 300 299 298 298 297 296 295 295 295 295 294 294 294 293 293 293 293 293 293 292 292 293 293 292 292 292 292 292 292 292 291 291 291 291 290 289
304 302 301 301 300 301 301 299 298 297 296 295 294 294 293 293 293 293 293 293 292 292 291 292 293 293 292 292 292 292 292 292 292 291 291 291 290 290 289 289 289 289 289
303 300 299 300 300 300 299 297 297 296 295 294 293 293 293 292 292 291 291 291 290 289 290 290 291 291 291 291 292 292 291 290 290 289 288 288 286 285 285 286 286 287 287
301 299 298 299 299 299 298 297 295 294 294 293 293 293 292 291 291 291 290 289 289 288 288 289 289 289 289 288 286 287 286 286 286 285 285 285 285 286 286 286 286 286 286
299 298 299 299 298 298 297 296 294 294 293 293 292 292 291 291 291 290 289 288 288 288 287 287 287 287 288 287 286 285 285 285 284 284 285 285 285 286 287 285 286 286 285
298 297 297 297 297 297 296 295 293 293 292 292 291 291 291 291 290 289 289 288 289 289 289 288 287 287 287 288 287 285 285 284 284 284 284 285 285 285 285 284 284 283 283
297 297 296 296 295 296 295 294 293 292 292 292 291 291 291 291 291 290 288 287 288 287 287 287 286 286 285 286 286 285 284 284 284 283 283 283 284 283 283 283 282 283 284
297 296 295 295 295 295 294 293 292 292 292 292 292 292 292 291 287 287 286 286 286 285 284 284 284 284 284 284 285 285 284 284 283 282 282 282 282 282 282 282 283 284 284
297 296 295 294 294 293 293 292 292 292 292 291 292 292 290 287 287 286 286 285 285 284 283 283 283 283 283 284 285 285 285 284 283 283 283 282 281 281 281 282 283 282 282
297 296 294 293 293 293 293 293 293 292 292 292 290 288 287 287 286 286 285 284 284 283 283 283 283 283 283 283 283 283 282 282 282 282 281 281 281 282 282 282 282 282 282
297 295 294 293 293 293 293 293 293 293 292 290 287 286 286 286 285 284 284 284 284 284 284 283 283 282 283 283 284 283 283 283 282 282 280 280 281 281 282 282 281 281 282
296 295 294 294 294 293 293 292 292 293 292 288 286 286 286 284 285 285 285 285 284 282 282 282 281 282 282 283 283 282 282 282 282 281 279 280 281 281 281 281 281 281 281

GFSMW_925_thetae_072.txt.gz
Theta_e
309 312 312 313 314 314 315 316 317 329 337 340 340 340 339 340 339 341 340 340 339 336 335 333 333 333 333 332 332 331 331 331 330 329 326 324 323 322 320 317 316 315 314
309 308 310 312 313 313 313 313 313 315 316 319 336 339 340 339 339 338 338 338 338 338 338 336 335 334 333 332 332 331 331 331 331 328 320 319 320 320 322 318 315 314 314
308 309 311 313 313 313 313 313 313 312 312 313 314 317 326 335 337 334 334 335 338 337 335 332 331 334 334 334 333 332 331 329 330 329 326 315 317 312 318 318 315 313 313
308 309 311 313 313 313 313 313 312 312 311 311 312 313 314 322 327 331 331 334 335 335 333 334 333 333 333 333 333 333 331 329 329 327 327 325 318 314 314 312 312 311 310
309 310 312 314 315 315 314 314 313 313 314 313 311 311 312 312 313 314 315 318 319 330 335 335 332 330 330 331 331 332 331 330 329 328 327 325 321 315 312 319 311 310 310
309 310 314 315 314 314 314 314 313 313 313 314 314 314 312 311 312 312 313 315 319 325 328 330 331 331 332 331 330 329 328 328 329 328 328 325 322 319 317 312 309 308 308
309 310 311 313 312 312 312 312 312 311 312 312 313 314 314 314 314 314 315 315 316 318 320 323 327 329 329 329 329 327 325 324 324 325 326 325 324 323 321 317 312 307 305
310 311 310 310 309 309 310 310 310 310 310 311 312 312 312 312 313 313 313 314 314 314 315 317 320 324 327 328 326 324 322 321 321 322 323 323 323 323 323 319 315 305 301
311 308 309 308 308 308 308 308 308 308 309 310 311 311 311 311 310 309 310 310 311 311 312 313 315 316 317 319 320 319 319 318 318 318 318 318 320 320 318 316 315 313 311
309 308 306 307 307 307 306 306 306 306 307 308 308 308 307 307 306 306 306 305 306 306 308 309 310 310 311 311 311 311 313 313 313 313 313 314 314 313 312 310 309 309 307
308 306 305 306 306 305 304 303 303 304 304 304 303 303 303 303 303 303 302 302 303 303 304 304 306 306 307 307 308 309 309 309 308 309 308 308 305 304 304 303 303 303 303
307 305 304 305 304 303 303 302 301 302 301 301 301 301 300 300 300 300 300 300 301 300 300 301 302 302 302 302 304 304 304 304 304 304 303 301 300 300 299 300 299 299 298
307 304 302 302 302 302 301 301 300 300 300 300 300 299 298 298 297 297 297 297 297 297 298 298 299 299 299 299 299 300 300 299 299 298 299 298 298 297 296 296 296 296 295
307 304 302 301 302 302 301 300 299 299 299 298 298 297 296 296 296 295 295 295 295 295 295 294 294 295 295 296 296 296 296 295 295 294 294 294 294 294 294 294 293 293 293
306 304 302 300 301 300 300 299 299 298 297 297 296 295 295 295 295 295 294 293 293 293 294 293 292 292 293 293 293 293 293 293 292 292 292 292 292 292 292 292 290 290 289
304 303 301 300 300 300 300 299 298 297 296 296 294 294 294 294 293 293 292 292 292 293 293 293 293 293 292 292 292 293 292 292 291 291 291 291 290 290 290 290 289 289 289
303 301 300 300 300 300 299 298 297 296 295 294 293 293 293 292 292 291 291 291 291 291 292 292 292 291 291 291 291 291 291 290 288 287 286 285 285 285 286 286 287 287 288
303 299 298 300 300 300 298 297 296 295 295 294 293 293 292 291 291 291 290 290 290 290 290 289 288 288 288 288 286 285 285 285 285 285 284 284 286 287 286 286 286 286 286
301 299 299 300 299 298 297 296 295 294 294 293 293 292 292 291 291 290 289 289 288 287 287 287 287 287 287 287 286 285 285 284 284 284 285 284 285 287 286 285 285 285 285
299 298 299 298 298 297 296 295 294 294 293 293 292 292 292 291 291 290 289 288 287 287 287 287 286 287 287 287 286 284 284 284 284 284 283 284 285 285 284 284 283 283 283
297 297 297 297 297 296 295 294 294 293 293 292 292 292 291 291 290 289 288 287 288 287 287 286 285 285 286 286 286 285 284 283 283 283 283 283 284 283 283 283 282 283 284
296 296 296 295 295 295 295 293 293 293 293 292 292 292 291 290 290 288 287 286 286 285 284 284 284 283 284 285 285 285 285 284 283 282 282 282 282 282 283 282 283 284 283
296 295 295 294 294 294 294 293 293 293 292 292 292 292 292 289 287 287 286 286 285 284 284 283 283 283 283 284 285 284 284 284 283 283 283 283 282 281 281 282 283 283 282
296 295 294 293 293 293 293 293 293 292 292 292 292 291 291 288 286 286 285 285 284 283 283 283 283 283 283 283 283 283 282 282 282 282 282 280 281 281 282 282 282 281 281
297 295 294 293 293 293 293 293 293 292 291 291 292 290 287 287 286 286 285 284 284 284 283 283 283 283 283 283 283 283 283 283 283 283 280 280 281 281 281 281 281 281 281
296 295 294 294 294 294 293 293 293 293 293 292 290 287 286 286 285 284 284 284 284 284 283 283 282 282 282 282 283 282 283 283 283 282 280 279 280 281 281 281 281 280 281

GFSMW_925_thetae_075.txt.gz
Theta_e
309 311 312 313 314 317 321 330 339 340 340 339 338 339 340 340 340 339 339 339 337 335 333 333 333 332 331 331 331 329 329 328 329 327 328 328 327 326 327 326 324 321 319
307 306 309 310 311 312 313 315 316 320 328 335 339 339 339 339 339 339 339 338 339 338 337 336 335 334 333 332 332 331 330 329 329 328 322 323 324 327 327 325 322 321 318
307 308 310 311 312 312 313 312 312 312 313 314 317 326 335 338 338 337 336 337 337 337 337 337 336 334 332 333 334 332 330 328 329 328 326 316 319 315 322 322 321 319 317
307 308 310 312 312 313 313 312 312 311 311 311 312 313 316 323 328 331 331 329 331 334 336 336 334 333 333 333 333 333 332 330 327 327 327 325 320 318 318 317 316 315 315
307 308 310 313 313 313 313 313 313 313 313 312 311 311 311 312 313 315 315 316 318 320 325 331 334 334 333 331 331 331 330 330 329 328 327 325 324 319 315 322 318 318 318
307 309 313 314 313 313 313 313 313 312 313 313 313 313 311 311 311 312 312 313 316 320 323 327 330 333 332 331 332 330 330 329 329 327 327 326 323 320 316 314 318 313 316
307 309 311 312 311 312 312 312 311 311 312 312 312 313 314 314 313 313 314 314 315 316 319 321 326 328 329 330 330 329 328 326 324 323 324 324 324 324 322 319 318 311 311
307 309 310 310 310 310 310 310 310 310 310 311 311 311 311 312 312 312 312 312 312 313 313 315 317 321 324 325 326 325 323 321 321 320 319 318 320 321 321 319 317 310 305
309 309 308 308 308 308 308 308 308 308 309 310 310 310 309 309 308 308 308 308 308 309 310 311 312 314 314 316 317 319 318 317 317 317 315 314 312 313 314 314 313 314 314
309 307 306 306 307 306 306 306 306 307 307 307 307 307 306 306 305 304 304 304 304 305 306 307 308 308 309 309 310 310 310 310 310 309 309 308 308 309 310 310 308 307 307
309 306 305 306 306 305 304 304 304 304 304 304 304 303 303 302 302 303 302 302 302 302 303 303 304 305 305 306 307 307 308 306 305 306 307 307 307 307 305 304 304 303 302
307 305 304 304 304 303 302 302 302 302 302 301 301 301 300 300 300 300 299 299 300 300 300 300 301 301 302 302 303 304 303 301 301 301 302 300 300 300 300 299 299 299 298
307 304 303 302 302 302 301 301 301 301 300 300 300 299 298 298 297 297 297 297 297 297 297 297 298 298 298 299 299 299 299 299 298 297 298 297 297 297 296 296 296 296 296
308 304 302 301 302 301 300 300 300 299 299 298 298 297 296 296 296 295 295 295 294 294 294 294 294 294 295 296 296 296 295 295 294 294 294 294 294 294 294 294 293 293 293
306 305 302 300 301 300 300 299 299 298 298 297 296 296 295 296 296 295 294 294 294 294 293 292 292 292 292 293 294 294 292 292 292 292 292 292 292 292 291 291 291 291 290
307 304 302 300 300 300 299 299 298 297 297 296 295 294 295 294 294 293 293 293 293 293 292 293 292 292 292 292 292 292 292 292 291 291 290 289 289 288 290 290 289 289 288
306 304 302 300 300 300 300 299 298 297 296 295 294 294 294 293 292 292 291 292 292 292 292 292 292 291 291 290 290 290 290 288 286 285 285 285 286 286 285 286 286 287 287
305 302 301 300 300 300 299 298 297 296 295 294 294 293 293 292 291 291 290 290 290 291 291 289 288 288 288 287 285 285 284 284 284 284 284 285 287 288 286 285 286 285 285
304 302 302 301 300 300 299 297 296 295 294 294 294 293 292 291 291 290 290 289 289 287 288 287 287 287 287 287 285 284 284 284 284 284 285 284 285 286 286 284 284 284 284
303 301 300 300 299 298 298 296 295 294 294 294 293 292 292 291 291 289 288 287 287 287 287 286 287 287 287 287 285 284 284 284 283 283 283 284 285 285 284 283 282 283 283
298 299 298 298 298 297 296 295 294 294 294 293 292 292 292 291 291 289 288 287 287 287 287 286 285 285 285 286 286 285 283 283 283 282 282 282 283 283 283 283 283 284 284
296 297 296 296 296 296 296 295 294 294 294 293 292 292 291 291 289 288 287 287 287 286 285 284 284 283 284 285 285 286 285 284 284 282 282 283 283 282 283 283 283 284 283
296 296 296 295 295 295 295 294 293 293 293 292 292 291 291 289 290 288 287 286 285 284 284 283 283 283 283 283 285 284 284 284 283 282 283 283 283 282 281 282 283 283 282
296 296 295 294 294 294 294 294 292 292 293 292 292 292 291 290 287 286 286 286 285 284 283 282 283 283 283 283 283 283 282 282 282 282 282 280 281 281 282 282 282 282 281
297 296 295 294 294 294 294 293 293 293 292 292 292 292 291 290 287 286 286 285 285 284 283 283 283 283 283 283 283 283 283 283 283 283 282 280 280 281 281 281 281 281 281
297 296 295 294 294 294 293 293 294 293 292 291 291 291 291 288 286 286 285 284 284 284 284 283 283 283 282 282 283 284 283 283 283 283 282 280 279 280 280 281 281 281 280

GFSMW_925_thetae_078.txt.gz
Theta_e
311 311 311 316 321 322 330 336 338 339 339 339 338 338 337 337 337 335 337 338 338 336 333 333 333 333 333 334 332 330 329 328 328 326 326 328 329 329 329 328 327 327 325
308 307 309 310 313 317 318 320 327 333 337 338 338 338 338 338 339 339 338 338 338 338 338 337 336 334 332 332 331 330 329 328 328 327 324 325 326 327 328 328 327 326 324
307 305 308 309 311 312 313 314 314 314 315 317 321 328 335 337 338 338 337 337 336 337 337 337 337 336 336 335 333 332 331 328 328 328 327 322 323 316 323 325 324 323 322
305 305 308 310 311 312 312 312 312 312 312 312 312 313 314 321 326 329 330 330 328 330 333 334 335 336 335 333 332 332 332 330 327 327 327 326 325 321 322 321 322 322 323
305 306 308 310 312 312 312 312 312 312 312 312 311 311 311 311 313 315 318 316 316 319 321 324 328 332 333 333 333 331 330 330 329 326 327 325 324 322 317 323 320 320 321
304 306 310 312 312 311 312 312 312 312 313 313 313 312 310 310 310 311 312 312 313 316 318 321 324 328 331 332 331 331 330 329 329 327 327 326 324 321 318 315 316 317 318
305 308 310 310 310 311 311 311 311 311 312 312 312 313 313 313 313 313 313 313 314 315 316 318 321 325 326 328 329 329 328 327 327 326 324 324 322 323 322 320 318 315 313
305 308 309 310 310 310 310 310 310 310 310 311 311 311 311 311 311 311 311 311 311 312 312 313 314 317 319 320 322 323 323 324 323 320 318 318 318 319 319 317 315 312 308
306 308 308 308 308 308 309 309 309 309 309 309 309 309 309 308 308 307 307 307 307 307 308 309 311 312 313 314 317 319 319 318 317 316 313 313 313 312 312 311 312 311 311
308 307 305 306 307 307 307 307 307 308 307 307 306 306 305 305 304 304 304 304 304 304 304 305 306 307 308 309 310 310 311 310 309 307 307 308 307 308 308 308 308 308 307
308 306 304 305 306 305 305 305 305 305 305 305 304 304 303 303 302 302 302 302 302 302 302 302 303 303 304 305 306 306 305 303 303 303 303 304 303 304 304 304 304 304 304
307 304 303 304 303 303 303 303 303 303 302 302 302 301 301 300 300 300 300 300 300 300 300 300 301 301 301 302 303 303 300 300 300 299 300 299 300 299 300 300 300 299 299
306 303 302 302 302 302 302 302 301 301 301 300 300 300 299 299 298 298 297 297 297 297 297 298 298 298 298 299 299 299 298 298 298 297 297 297 297 296 296 296 295 295 295
306 303 302 302 302 301 301 300 300 300 300 299 299 298 297 297 296 296 296 294 294 294 294 294 294 295 296 296 295 295 295 294 294 294 294 294 294 294 294 294 294 294 294
306 304 303 301 301 300 300 300 300 299 298 298 297 296 296 296 296 295 295 294 294 293 292 292 292 292 293 294 293 292 292 292 292 293 293 292 292 292 291 291 290 290 290
307 304 302 301 300 300 300 299 299 298 297 297 296 295 295 295 294 294 293 293 293 293 293 293 293 292 292 291 292 293 292 291 290 291 289 289 288 289 289 289 290 289 287
307 305 303 301 301 301 301 299 299 298 297 296 295 294 294 294 293 292 292 292 292 292 292 292 292 292 291 290 290 289 289 287 285 285 285 286 287 285 285 286 286 286 287
307 305 303 302 301 301 300 299 298 297 296 295 294 294 294 293 292 292 291 291 291 291 290 289 288 288 288 287 285 284 284 284 284 284 284 286 287 287 285 284 285 285 286
305 305 304 303 301 301 300 299 296 296 295 294 294 294 293 292 291 291 290 290 291 289 288 287 288 287 287 287 284 284 284 284 284 284 285 284 285 286 285 283 283 284 284
305 303 302 301 301 299 299 298 296 295 295 294 294 294 293 292 291 290 290 289 288 287 287 287 287 287 287 287 284 283 283 283 283 283 283 285 285 285 284 283 282 282 283
300 301 300 300 300 299 298 296 295 295 295 294 293 293 292 291 291 290 288 287 287 286 286 285 285 285 286 287 286 284 283 283 283 282 282 282 284 284 284 283 283 284 284
297 298 298 298 298 298 297 296 295 295 294 294 293 292 292 291 290 289 288 286 286 287 286 285 284 284 284 285 286 286 285 284 284 282 282 283 283 283 283 283 283 285 284
297 297 297 296 296 296 297 295 295 294 293 293 292 292 291 291 290 289 287 286 286 285 284 283 283 283 283 284 285 285 284 284 283 282 282 283 282 282 281 282 284 283 282
296 296 295 294 294 295 295 296 295 293 293 292 292 292 291 291 290 289 287 286 285 284 284 283 283 283 283 283 283 283 283 282 282 282 283 281 281 281 281 282 282 282 281
297 296 295 295 294 294 294 294 294 293 292 292 292 291 291 290 290 288 286 286 286 285 284 284 283 283 283 283 283 283 283 283 283 284 283 281 280 280 281 281 281 281 281
297 296 296 295 295 294 294 294 294 293 292 292 292 292 291 291 289 287 286 285 285 284 284 283 283 283 283 283 282 284 285 284 284 283 283 282 280 280 280 280 281 281 281

GFSMW_925_thetae_081.txt.gz
Theta_e
314 312 310 319 330 334 338 339 339 339 338 339 339 339 339 339 339 339 339 339 334 336 335 333 333 332 332 332 332 332 331 329 329 325 327 328 329 328 328 328 328 328 327
311 310 309 310 315 319 325 334 337 338 339 339 338 338 338 338 338 337 337 335 336 337 337 337 335 333 333 332 332 331 329 328 329 328 325 328 328 326 326 326 326 326 325
312 310 308 309 310 312 315 320 326 332 336 337 337 337 337 337 337 337 337 337 337 336 336 336 336 336 336 335 335 333 331 329 329 328 327 326 328 320 325 325 325 325 324
309 308 307 309 310 311 311 312 312 313 314 315 316 319 322 324 327 329 331 332 330 329 331 333 334 335 335 334 335 334 332 330 328 327 327 326 325 326 324 322 323 323 323
311 309 308 309 310 311 311 311 311 311 311 311 311 311 311 311 312 314 316 317 317 318 320 322 324 327 331 332 333 332 332 331 328 326 326 326 325 322 321 323 323 322 321
311 309 308 309 311 311 311 312 312 312 312 312 312 311 310 310 310 311 311 312 312 314 315 317 319 321 325 329 329 331 331 330 328 327 324 325 324 321 320 319 319 319 319
309 308 310 310 310 310 311 311 312 312 312 312 312 312 312 312 312 312 312 312 312 313 314 315 318 321 322 323 324 327 327 327 326 327 326 325 324 321 320 319 319 319 315
306 308 310 310 309 310 310 310 311 311 311 311 311 311 312 312 311 311 311 311 311 311 311 311 312 314 317 320 321 324 325 325 325 322 322 319 318 316 315 316 316 315 311
306 309 310 309 308 308 309 310 310 310 310 310 310 310 309 309 308 308 307 307 307 307 308 308 309 310 311 313 317 319 319 319 317 316 315 314 313 312 312 311 311 312 313
307 309 308 306 307 308 308 308 308 308 308 307 307 307 307 306 306 305 305 304 304 304 304 304 305 306 307 308 309 311 312 311 309 309 308 308 308 307 308 307 307 307 309
308 308 306 306 306 306 306 306 307 306 306 306 305 305 304 303 303 303 302 302 302 302 302 302 303 303 304 305 306 306 304 303 303 303 304 304 304 305 305 304 304 303 304
308 307 305 304 303 304 304 305 304 304 304 303 303 302 301 301 301 300 300 300 300 300 300 300 301 301 302 302 303 301 301 301 301 301 301 301 300 300 300 300 300 299 299
307 306 304 303 302 302 302 303 303 302 302 301 301 300 300 299 299 298 298 298 298 297 297 298 298 298 299 299 298 299 299 299 299 298 298 298 297 297 297 296 297 296 297
308 306 304 303 302 302 302 301 301 301 301 300 299 299 298 298 297 297 297 296 295 295 295 295 296 296 296 295 296 297 297 296 295 295 295 295 295 294 294 294 294 294 294
307 306 305 303 301 301 301 301 301 300 299 299 298 298 297 296 296 296 296 295 295 294 293 293 292 293 294 293 294 294 294 294 294 293 293 293 293 292 292 292 291 291 291
309 307 305 303 302 301 301 300 300 299 299 298 297 296 296 296 295 295 294 294 294 293 293 293 292 292 291 291 292 292 292 292 292 291 291 291 290 290 290 290 289 288 286
309 307 305 304 302 302 302 300 299 299 298 297 296 295 295 295 294 294 293 293 293 293 293 293 293 292 291 290 291 291 291 289 287 286 286 286 286 285 285 285 285 287 287
308 307 305 303 304 304 302 301 299 298 297 296 295 295 294 294 293 293 292 292 292 292 292 292 291 290 289 287 285 285 285 284 284 284 286 287 287 287 284 284 284 285 286
307 307 306 305 304 303 302 300 298 297 296 295 295 294 294 294 292 292 292 292 291 290 289 288 288 288 287 287 284 284 284 284 285 285 284 284 285 286 284 283 283 284 284
305 306 306 304 303 301 300 299 297 296 295 295 295 294 294 293 292 291 291 291 290 289 287 287 287 287 287 286 284 284 283 283 283 283 285 286 285 285 284 282 282 283 283
302 303 302 302 301 300 299 297 296 296 296 295 295 294 293 293 292 291 290 290 288 287 287 287 286 286 287 287 285 283 283 283 283 282 282 282 284 284 284 282 284 284 284
298 299 299 299 299 299 299 297 296 297 296 295 294 294 293 292 291 290 289 289 287 286 286 285 284 284 284 286 286 286 284 284 283 282 282 283 283 283 283 283 284 285 284
297 298 298 297 297 298 298 297 297 296 295 294 293 293 292 291 291 290 289 286 286 286 286 284 284 283 283 284 286 286 285 285 283 282 282 284 282 283 282 282 284 284 283
296 297 297 296 296 297 297 298 296 295 294 293 293 292 291 291 290 290 289 287 286 286 285 283 283 283 283 283 283 284 284 283 283 282 282 282 281 281 282 282 283 282 282
297 297 297 296 296 296 296 296 295 294 293 293 292 292 291 290 290 290 289 287 286 286 285 284 284 283 283 283 283 283 283 283 282 283 283 282 280 280 281 281 281 281 281
298 296 296 296 296 296 295 295 294 294 292 292 292 291 291 291 291 290 289 287 286 285 285 284 284 283 283 283 283 283 283 284 285 284 283 282 281 280 280 280 280 281 281

GFSMW_925_thetae_084.txt.gz
Theta_e
322 319 315 314 326 332 338 338 340 340 341 341 341 341 341 341 341 340 340 339 339 337 335 336 336 335 334 334 334 334 333 333 332 331 332 332 331 330 329 328 329 328 327
323 319 314 313 317 326 328 334 337 339 339 340 340 341 341 340 340 340 339 338 338 338 336 336 336 335 334 333 333 333 332 332 332 332 332 331 327 325 328 327 326 325 323
323 321 317 313 313 317 319 323 329 335 337 337 336 336 337 337 338 338 338 337 336 336 336 336 337 337 335 335 334 333 332 333 333 331 331 331 328 327 326 325 323 323 323
322 320 316 313 312 314 314 314 318 324 329 332 328 333 337 338 336 334 331 331 334 333 333 333 335 331 332 332 334 334 332 333 333 330 329 329 327 327 327 324 323 321 322
321 316 315 313 313 313 313 313 312 313 314 315 314 316 316 316 315 315 316 318 320 321 321 322 323 325 328 328 330 330 331 332 330 329 328 327 327 326 325 325 324 323 320
320 317 316 314 313 313 312 311 313 313 312 311 311 311 312 312 312 313 313 314 314 313 314 315 317 318 320 324 325 326 328 329 329 328 326 327 326 325 323 322 322 321 321
319 318 316 314 314 313 313 312 313 313 313 313 313 313 313 313 314 313 313 313 313 312 312 313 315 317 318 320 321 323 325 327 327 327 326 324 325 324 322 320 319 319 319
314 315 315 314 314 313 313 312 313 312 312 312 312 312 312 312 311 311 310 309 309 309 310 310 311 312 314 318 320 322 324 325 325 325 323 321 320 319 318 316 317 319 317
311 310 311 312 314 313 312 312 312 311 311 310 310 310 310 309 308 308 307 306 307 306 307 307 308 309 310 312 315 317 319 320 319 318 316 316 315 314 313 313 312 314 315
310 309 311 312 312 311 311 311 311 311 309 307 307 306 306 307 306 306 305 305 305 305 305 305 305 306 306 307 309 311 311 312 313 312 309 308 309 309 307 308 309 309 311
311 310 311 311 310 310 309 310 309 308 307 306 305 305 304 305 304 303 303 302 303 303 303 303 303 303 304 305 306 306 306 306 305 305 305 304 304 305 304 304 304 304 305
311 311 311 310 309 308 308 308 308 307 306 304 303 302 301 301 301 301 301 301 300 301 301 301 301 301 301 302 302 302 302 302 302 302 302 301 301 300 300 300 300 300 300
312 312 312 310 309 308 307 306 306 305 303 302 302 301 300 300 299 298 298 297 297 296 297 297 297 297 299 298 298 299 300 300 300 299 299 298 298 298 297 297 298 298 298
312 313 312 311 309 307 306 305 305 303 302 301 301 301 300 299 299 298 297 297 296 295 295 295 295 295 295 296 298 298 298 297 296 296 296 295 296 295 296 295 295 295 297
313 313 313 312 309 307 306 304 304 302 301 300 300 300 299 299 298 297 297 296 295 295 295 294 294 293 294 295 295 295 295 294 293 293 293 293 293 293 293 293 293 294 294
314 313 313 312 310 308 306 304 303 302 300 300 300 299 298 298 297 296 295 295 294 294 294 294 294 294 293 293 295 294 294 293 293 293 293 292 291 292 291 290 290 289 290
312 313 313 312 310 309 307 304 303 301 300 300 299 298 298 297 296 295 294 294 293 293 293 293 293 293 292 292 292 293 293 292 290 289 288 287 287 287 287 286 286 288 286
310 312 313 312 311 309 306 304 302 300 299 299 298 297 297 296 295 294 293 293 293 293 293 293 292 291 291 289 289 289 288 287 286 287 288 288 288 286 285 286 286 287 287
310 311 312 312 310 307 305 303 300 300 299 298 298 297 296 296 294 293 292 292 292 292 292 291 290 289 288 287 284 284 285 285 285 285 286 286 287 287 284 285 285 285 285
308 309 310 309 308 306 304 302 300 299 298 298 297 296 296 295 293 293 292 292 291 290 289 288 288 288 288 287 285 284 285 285 284 285 286 285 286 286 284 284 285 285 285
306 307 306 307 306 303 302 301 300 299 298 297 296 296 295 294 294 293 292 291 290 289 288 288 287 287 287 287 285 283 284 284 284 284 284 284 285 285 285 283 285 285 285
302 303 304 303 301 300 300 300 299 298 297 296 295 295 294 293 293 292 291 290 289 288 287 286 286 286 286 287 288 285 284 284 284 284 284 284 283 284 284 284 284 286 284
302 302 302 300 299 299 300 299 298 297 296 295 295 294 293 292 292 291 290 288 288 288 287 286 285 285 284 285 286 288 287 286 284 283 283 283 283 284 283 283 285 285 284
302 300 300 300 299 298 298 299 297 296 296 296 295 294 292 292 291 290 289 289 288 288 287 286 285 285 284 284 285 287 287 286 285 283 284 284 282 282 282 282 284 284 283
300 299 300 300 299 297 297 296 296 295 296 295 294 293 291 291 290 290 289 289 288 287 287 286 285 284 284 284 284 284 285 284 284 283 283 283 281 282 282 282 282 282 282
298 298 298 297 297 297 296 296 295 295 295 294 294 292 291 291 290 289 289 289 288 287 287 285 285 284 284 283 283 283 283 284 283 284 284 284 283 282 282 282 282 282 282

GFSMW_925_thetae_087.txt.gz
Theta_e
325 322 319 316 327 339 341 342 342 342 341 342 342 341 342 341 341 341 341 341 340 340 339 339 338 338 338 337 337 336 336 335 335 334 333 333 333 332 330 329 328 328 328
325 323 319 316 317 330 337 341 341 340 341 341 342 342 341 341 341 340 342 342 341 340 339 338 338 338 338 337 336 336 335 335 334 333 333 333 329 325 325 328 328 327 325
324 325 321 318 316 322 329 333 338 340 341 341 341 340 340 340 341 341 340 340 339 339 338 338 337 336 336 336 336 335 334 334 334 333 333 332 330 328 326 327 325 324 322
325 325 322 319 315 316 321 322 329 335 338 338 337 336 337 339 339 338 338 335 331 331 332 334 334 333 333 333 333 333 332 332 333 331 331 331 330 329 328 324 325 323 323
324 325 322 319 316 315 317 317 318 321 321 323 327 331 333 332 330 327 323 322 322 323 324 324 324 325 328 328 329 329 329 329 330 330 330 329 328 327 326 326 324 323 321
321 323 320 318 316 316 316 315 315 316 316 316 317 317 317 316 315 315 315 316 316 316 315 316 316 318 320 322 324 324 326 328 329 329 329 328 327 326 325 323 323 323 321
320 321 320 318 317 317 316 315 315 315 315 315 315 314 315 315 315 315 315 315 315 315 314 312 314 315 317 318 320 322 322 323 326 327 327 328 326 326 324 324 322 321 319
319 320 321 319 316 316 315 314 315 315 315 315 315 315 315 315 315 314 313 312 312 312 310 309 310 311 312 314 317 320 320 321 323 324 323 324 323 322 322 320 318 319 318
314 316 316 314 316 316 315 314 315 315 314 314 313 312 312 311 310 309 309 308 307 306 306 306 307 307 308 309 311 317 317 318 319 320 319 319 318 318 315 315 315 315 315
314 314 312 313 314 315 315 314 314 314 313 312 311 310 308 307 307 306 306 305 304 304 304 304 304 304 305 306 308 312 312 313 314 314 314 312 312 311 310 310 311 311 312
313 313 312 313 314 314 314 313 313 313 311 310 308 307 306 305 305 304 304 303 303 302 302 302 302 302 303 303 306 308 308 309 309 308 308 307 307 307 306 306 307 307 307
313 313 313 313 312 312 312 313 312 310 310 308 307 307 305 304 304 303 302 301 301 301 301 301 301 301 301 302 304 305 304 305 305 304 304 303 303 303 302 303 302 302 303
314 313 313 312 312 311 311 311 310 310 308 306 306 305 304 304 303 302 301 300 299 299 299 299 299 299 299 300 300 301 301 301 301 301 302 301 301 300 300 300 300 300 300
314 314 314 312 312 312 311 310 308 307 305 305 305 304 304 303 302 301 300 299 298 298 298 297 297 296 296 297 298 299 298 298 298 298 298 298 298 297 297 297 297 298 299
314 314 314 314 313 312 310 309 308 306 304 304 304 303 303 302 302 301 300 298 298 297 297 297 296 294 295 296 297 297 296 296 296 295 295 294 294 294 295 295 295 296 296
312 314 314 314 313 312 310 309 307 305 304 304 303 303 302 301 300 300 298 297 296 296 296 295 295 295 294 295 295 295 295 294 294 293 293 293 293 293 292 292 292 291 292
313 313 314 314 314 312 311 308 307 305 304 304 303 302 301 300 299 298 297 296 295 295 294 294 294 294 293 293 293 293 293 293 293 292 291 289 290 288 287 286 289 286 286
312 313 313 314 314 313 311 309 307 305 303 303 303 301 301 300 298 297 296 294 294 294 293 293 293 293 292 291 292 293 292 289 288 288 289 288 288 286 286 287 287 288 288
311 312 311 313 314 313 311 309 306 305 303 303 302 301 300 299 297 295 294 294 293 293 293 293 292 292 290 288 288 287 286 286 286 286 287 288 288 287 284 286 286 287 286
310 310 311 312 313 313 310 307 305 304 303 302 301 300 299 298 296 294 294 293 293 292 292 291 290 290 289 287 285 285 286 286 286 286 286 286 287 287 284 285 286 286 286
309 308 311 313 313 310 308 306 305 304 303 301 299 299 298 297 295 294 293 293 292 290 290 289 289 288 289 288 287 284 285 285 285 285 285 285 285 285 285 284 285 286 285
305 307 309 309 308 306 306 305 304 302 301 299 298 298 297 295 294 293 292 291 291 290 290 289 288 287 287 288 288 286 284 285 285 285 284 284 284 284 285 284 285 286 285
305 305 306 303 303 303 304 304 302 300 299 298 298 297 296 294 292 292 291 290 290 289 289 288 287 287 286 286 288 288 287 285 285 284 284 284 284 284 285 285 284 286 285
305 304 304 304 302 302 302 303 301 299 298 298 297 296 295 293 291 292 291 290 289 289 289 287 286 286 286 285 285 287 288 288 287 284 283 284 284 284 285 284 284 285 285
303 303 304 303 302 301 301 300 299 299 298 298 297 296 294 293 291 291 291 290 290 290 290 288 287 286 285 285 285 285 288 287 286 286 284 284 283 283 283 283 284 284 284
302 301 300 301 300 299 299 298 298 298 298 298 296 295 293 292 291 290 290 289 290 290 289 288 287 286 285 285 285 285 286 286 285 285 284 284 284 283 283 283 283 283 283

GFSMW_925_thetae_090.txt.gz
Theta_e
322 323 319 320 334 339 341 341 340 341 341 341 341 340 339 340 339 339 339 339 339 339 338 338 338 338 338 337 337 336 336 335 335 335 334 333 333 333 333 331 331 327 327
320 320 318 317 328 338 340 341 341 341 341 339 340 339 338 338 339 339 340 340 340 340 339 339 338 338 337 338 337 336 335 335 335 334 333 331 329 328 327 328 327 326 324
319 319 316 316 318 329 336 340 341 341 338 341 341 339 338 337 339 338 338 338 340 339 339 338 337 337 336 336 335 335 334 334 334 333 332 328 326 326 326 326 325 324 323
318 319 318 316 316 319 331 333 337 340 340 340 339 336 335 336 336 337 337 338 338 338 337 336 336 335 334 334 333 333 333 333 332 332 331 331 330 327 323 324 325 324 323
317 319 318 317 316 317 324 326 329 335 338 338 338 336 336 335 336 337 336 335 330 328 328 327 326 327 327 328 328 329 329 329 329 330 329 329 329 328 326 322 322 323 321
317 319 320 317 316 315 317 319 321 324 327 328 333 331 333 325 324 322 320 319 317 317 315 315 316 317 319 321 322 322 323 324 326 327 328 328 327 327 326 323 322 321 320
316 318 317 316 316 316 316 316 316 317 318 318 320 320 318 316 315 315 315 316 315 315 314 313 313 314 316 316 318 319 321 321 322 323 325 326 326 327 326 324 321 319 319
313 316 316 317 316 317 316 315 315 315 316 315 315 315 315 315 315 315 314 314 314 314 313 310 310 311 311 312 314 316 318 320 321 323 323 325 324 325 324 322 321 318 317
312 317 315 318 317 317 316 315 315 315 315 315 315 315 314 314 313 313 312 311 310 309 308 308 308 308 308 308 309 312 316 315 316 318 320 321 321 320 320 319 318 316 311
312 311 311 315 316 316 316 314 315 315 315 314 313 312 311 311 310 309 308 307 307 307 306 306 306 305 305 306 307 309 313 312 313 315 315 316 315 315 313 313 312 313 313
311 310 309 312 314 316 315 315 315 314 313 312 310 310 310 309 307 307 307 307 306 305 305 304 304 303 304 304 305 308 309 309 309 310 310 310 310 309 308 308 308 309 309
312 310 310 313 313 314 314 314 314 313 311 310 310 308 307 306 306 305 305 304 303 303 303 302 302 302 302 302 303 305 305 306 306 306 306 306 305 306 304 304 305 305 305
312 311 310 311 312 312 313 313 312 311 310 308 308 307 305 305 304 303 303 302 301 301 300 300 300 300 300 301 301 302 302 303 303 302 303 302 302 302 301 301 301 301 301
312 311 310 309 311 311 312 312 311 310 308 307 306 305 304 304 303 302 301 300 300 299 299 298 298 298 298 298 298 299 300 300 300 300 300 299 300 300 299 300 299 299 300
311 311 310 308 311 311 311 310 309 308 307 306 305 304 304 303 302 301 300 300 299 298 298 297 297 296 295 296 297 298 298 298 298 297 297 297 297 296 296 296 296 297 297
310 309 311 310 310 311 310 309 308 306 305 304 304 304 303 302 302 301 300 299 298 297 297 297 297 296 294 295 296 296 296 296 296 295 294 293 293 293 294 294 294 294 295
309 309 309 311 312 311 310 309 307 306 304 304 304 303 302 301 301 300 299 297 296 296 296 296 295 294 294 294 294 295 295 295 294 294 293 292 291 289 288 289 287 287 289
309 309 309 312 313 313 311 309 307 305 304 304 303 303 302 301 300 298 297 296 296 296 295 295 294 293 293 293 293 294 294 293 292 291 289 288 287 287 287 287 287 287 286
306 308 311 311 313 313 311 309 307 305 304 304 303 302 301 300 299 297 296 295 295 295 294 294 293 293 292 290 291 291 290 288 288 288 288 288 289 286 286 286 287 287 286
307 308 310 311 313 313 311 309 306 305 304 303 303 301 301 300 298 296 295 294 294 294 293 293 292 292 290 289 287 286 286 286 286 286 286 287 287 287 284 285 286 286 286
305 307 310 311 312 313 310 308 306 304 303 303 302 301 300 299 298 296 294 293 293 293 292 292 291 290 289 289 287 285 285 286 286 286 286 286 286 286 284 285 285 286 285
305 307 309 308 311 310 309 307 305 304 303 302 301 300 299 298 297 295 293 293 292 291 290 290 289 288 288 288 289 287 285 285 285 285 285 284 285 285 285 284 286 286 286
304 305 304 304 305 306 306 305 303 303 302 300 299 298 297 296 295 293 292 292 291 290 290 289 289 288 287 287 289 288 287 285 285 285 284 285 285 284 285 286 285 287 285
303 304 303 302 302 303 304 304 302 301 300 299 298 297 296 295 293 292 292 292 290 289 290 289 288 287 287 286 286 289 289 288 287 285 284 284 284 284 284 285 285 285 285
303 303 303 302 302 302 302 301 300 299 298 298 297 296 296 294 293 292 292 292 292 291 290 289 288 287 286 286 285 285 286 288 288 287 285 284 285 284 283 284 284 283 284
301 301 301 301 300 300 300 299 299 299 299 298 297 296 295 294 293 291 291 291 291 291 291 290 288 288 287 286 285 286 286 288 287 287 285 284 284 284 283 283 283 283 284

GFSMW_925_thetae_093.txt.gz
Theta_e
321 323 325 338 337 341 341 341 340 340 339 339 339 341 340 340 340 339 338 338 337 335 337 337 337 337 336 336 335 335 335 335 335 335 334 334 334 331 329 332 332 331 328
317 319 321 324 333 337 340 342 342 341 341 340 339 340 340 340 340 339 337 338 338 338 338 338 338 337 337 337 337 337 336 335 334 334 332 331 328 328 327 327 326 325 325
315 316 314 318 328 337 340 341 340 340 341 341 341 340 339 339 337 336 335 335 335 337 336 336 337 337 336 336 335 335 335 335 333 330 331 330 326 324 325 325 323 323 323
315 316 312 314 318 335 339 340 340 340 340 340 339 338 337 337 336 335 335 334 334 329 326 327 329 331 336 334 333 333 333 333 331 329 329 331 331 327 324 324 324 322 322
314 317 314 315 316 326 332 337 339 340 340 339 339 337 336 335 334 335 335 334 332 333 333 324 326 333 333 331 330 328 328 328 328 328 330 330 330 329 325 325 322 322 318
314 313 318 317 314 316 325 331 331 335 338 338 338 337 335 334 334 335 334 332 330 327 324 321 319 318 320 321 321 321 322 323 324 324 327 328 328 327 327 323 320 320 315
313 314 312 313 314 317 320 322 324 328 331 329 333 333 334 332 333 330 326 321 318 316 315 313 313 313 314 315 316 317 319 320 320 321 322 324 325 327 326 324 320 319 313
310 314 314 313 315 315 316 316 317 319 320 320 321 319 324 323 320 318 316 315 315 315 314 313 311 311 311 311 312 314 316 317 320 319 320 322 323 324 324 324 322 317 318
310 312 313 313 315 315 315 315 315 315 315 315 315 315 315 316 315 314 314 314 314 313 311 310 309 309 309 309 309 310 313 316 315 315 318 318 320 321 321 320 321 320 315
309 310 311 313 315 315 316 315 315 315 315 315 315 315 314 314 313 313 312 311 310 309 308 308 308 306 307 307 307 307 311 313 312 312 314 316 316 317 317 316 316 316 313
307 307 307 312 315 315 315 315 314 315 315 314 313 312 311 310 309 309 309 308 307 307 307 305 304 305 304 304 305 306 308 310 310 309 311 312 312 312 311 311 311 311 311
309 306 308 311 312 314 315 314 314 314 313 313 314 312 309 309 308 307 305 306 306 305 303 303 303 303 303 303 303 305 306 307 307 308 308 308 307 307 307 308 308 307 307
310 308 308 309 311 312 313 313 314 313 312 311 310 310 307 305 306 308 309 306 303 302 301 302 302 301 301 301 301 302 303 303 304 304 304 304 304 304 304 304 303 304 303
309 308 307 307 310 312 312 313 313 312 312 311 310 309 307 305 305 304 304 302 301 301 300 300 300 299 299 299 299 300 300 301 301 301 302 301 301 301 301 301 300 300 301
309 308 308 306 308 310 311 311 311 310 309 308 307 306 305 304 304 303 302 301 300 300 299 298 298 298 297 297 297 298 299 299 299 299 299 299 298 299 298 299 298 299 299
307 309 309 307 307 309 310 310 309 309 308 307 306 305 304 303 303 302 301 300 300 299 298 297 297 296 297 296 296 297 297 297 297 297 296 296 295 295 295 295 295 297 297
307 307 307 308 308 309 310 310 309 308 307 306 305 304 303 303 302 301 300 299 299 298 297 297 296 296 295 295 295 296 296 296 295 295 294 294 293 292 292 291 292 292 293
306 306 305 308 310 310 310 310 309 307 306 305 304 304 303 302 301 300 299 298 297 296 296 296 295 295 294 294 294 294 294 294 293 293 293 292 290 287 287 287 286 286 288
305 305 306 308 310 310 309 309 307 306 305 304 304 303 303 302 300 299 298 297 296 296 296 295 294 293 293 292 292 293 293 292 290 289 289 288 287 287 287 287 288 287 287
306 305 306 308 308 311 310 307 305 305 304 304 303 303 302 301 300 299 298 296 295 296 295 294 294 293 292 291 291 289 288 288 287 288 288 288 288 287 286 286 287 286 285
304 305 306 309 310 310 308 306 304 304 305 304 303 302 301 301 300 298 297 295 293 294 294 293 293 292 291 289 289 287 286 286 286 286 286 287 288 288 285 285 286 286 286
303 305 305 305 308 309 308 305 304 305 305 304 303 301 301 300 299 297 295 294 293 293 292 292 291 291 290 289 290 289 287 285 285 285 285 286 287 286 286 285 286 287 286
303 303 303 304 305 306 307 305 305 304 303 303 302 300 299 299 298 296 295 293 292 291 291 290 290 289 288 288 289 290 288 286 286 285 285 284 286 286 286 286 286 287 286
303 303 302 302 302 305 305 306 304 303 303 301 300 299 298 297 296 295 294 292 292 291 290 290 290 289 288 288 287 289 289 287 286 285 285 285 286 285 285 285 287 286 286
301 302 302 301 301 302 303 303 302 302 301 300 299 298 297 296 295 294 293 292 293 292 291 291 291 289 288 288 287 286 289 289 288 286 285 284 284 285 284 285 285 285 285
300 300 300 300 300 300 301 301 301 300 300 298 297 297 296 295 295 293 292 292 292 292 291 291 291 290 289 288 286 286 285 286 288 289 287 285 284 284 284 283 284 284 283

GFSMW_925_thetae_096.txt.gz
Theta_e
322 324 332 339 340 341 340 341 342 342 342 341 341 342 342 341 339 338 338 338 337 337 336 336 336 336 335 334 334 335 335 334 334 334 334 333 331 330 331 329 329 331 330
315 320 322 331 338 340 340 341 339 339 338 339 339 340 341 341 339 339 338 338 337 337 336 337 337 337 337 336 335 336 335 335 335 334 333 330 327 327 326 326 327 327 326
314 316 318 320 332 337 339 340 340 340 339 339 339 339 339 340 340 338 339 337 336 336 335 336 335 334 334 333 335 335 335 334 333 331 331 328 325 323 325 324 324 323 322
313 314 317 316 320 331 338 339 340 341 340 340 339 339 339 338 339 338 336 335 335 335 334 335 334 332 325 327 325 333 333 333 332 330 327 327 329 326 326 322 321 319 319
312 314 315 317 320 323 334 337 339 341 340 340 340 339 339 338 337 338 336 335 334 334 333 330 326 327 324 322 329 333 332 330 328 328 327 327 328 329 327 324 319 318 316
312 313 317 317 317 318 323 335 337 338 339 339 339 339 337 337 336 335 335 335 334 332 328 330 330 326 327 328 326 325 324 324 324 325 325 325 327 326 325 321 319 317 313
312 310 313 313 314 315 316 325 331 335 337 338 338 338 335 335 335 334 334 331 330 328 325 321 318 317 315 314 315 316 318 319 319 319 321 321 322 326 326 324 321 318 310
308 309 311 314 315 315 316 323 326 329 330 329 331 332 334 334 331 332 331 328 325 322 317 314 312 312 312 312 313 314 315 316 318 319 320 320 321 322 323 325 323 318 315
310 308 311 313 314 315 319 322 320 321 322 321 320 322 325 325 325 324 324 324 322 322 315 313 312 310 310 310 310 310 310 313 316 315 314 316 317 317 318 320 321 320 318
308 311 310 311 312 314 315 315 315 316 316 315 315 316 317 317 318 317 316 315 314 313 311 310 308 307 307 307 307 307 307 310 314 313 312 313 314 315 316 317 318 318 316
306 306 308 312 313 314 314 314 314 315 315 315 315 314 314 314 313 312 312 312 310 309 307 307 306 307 306 305 305 305 306 308 311 310 310 311 312 313 313 313 313 313 313
307 305 307 310 313 314 314 315 314 314 315 314 314 314 312 311 311 310 308 308 309 309 307 307 306 305 305 304 304 304 305 306 307 308 308 308 308 309 309 309 309 309 309
308 307 307 308 310 312 313 313 313 314 314 313 312 310 309 309 309 308 308 306 305 304 304 305 305 304 303 302 302 302 303 304 304 305 305 305 305 305 305 306 306 306 306
309 307 306 306 309 311 312 312 313 313 313 312 311 310 308 308 310 311 310 307 304 302 302 303 302 302 301 300 300 300 300 301 301 302 302 302 302 301 301 302 302 302 303
308 307 307 305 307 309 311 312 312 312 311 310 309 309 310 309 310 307 303 302 301 301 301 301 300 299 299 298 298 298 299 299 300 299 300 300 300 300 299 300 300 300 300
306 308 307 306 307 308 310 311 312 311 311 310 310 309 307 305 304 303 302 301 301 301 300 299 298 298 297 297 296 297 297 298 298 298 297 297 298 297 297 297 297 298 299
305 304 306 307 308 309 310 310 310 310 310 309 307 306 304 304 303 302 301 301 300 299 298 298 297 297 296 297 296 296 296 297 297 296 296 295 294 295 294 293 294 294 296
305 304 303 305 308 310 309 310 310 309 307 306 306 305 304 303 302 301 301 300 299 298 298 297 297 296 296 295 295 294 295 295 295 294 294 294 293 291 291 289 290 290 291
304 305 306 306 305 308 310 309 308 307 306 305 305 304 303 303 302 301 300 299 298 298 297 297 296 295 294 294 294 293 293 293 293 293 292 291 290 288 287 287 286 287 287
305 304 304 305 306 307 309 308 307 306 305 305 305 304 303 302 301 301 300 299 297 296 296 295 295 294 293 293 293 292 292 291 290 290 289 288 288 287 289 287 287 287 287
303 304 305 305 307 306 308 306 305 305 307 306 305 304 303 302 302 300 299 298 296 295 294 295 294 294 293 292 292 290 288 288 287 287 287 288 288 289 287 286 286 286 285
303 303 303 304 306 307 307 305 305 306 306 305 304 303 303 302 301 300 298 296 296 293 293 293 293 292 292 291 290 290 288 286 286 286 286 286 287 288 287 286 285 286 286
302 302 302 302 304 305 305 304 304 305 305 304 303 302 302 301 300 298 297 295 294 293 293 292 292 292 292 290 290 290 290 289 286 285 285 285 286 287 287 287 287 288 286
301 302 302 301 301 303 304 305 304 304 304 303 302 301 300 299 298 297 296 295 293 292 292 291 291 291 291 289 288 289 290 290 288 286 285 285 285 286 286 286 287 287 287
300 301 301 300 300 302 303 303 303 303 302 301 300 299 299 298 297 296 296 295 294 293 292 292 292 291 290 291 290 288 288 289 288 287 285 285 286 286 285 285 285 286 286
300 300 300 300 300 301 301 301 301 301 301 299 298 298 297 297 296 296 294 294 293 293 292 291 291 292 292 291 290 288 287 287 289 288 286 285 284 284 284 284 284 284 285

GFSMW_925_thetae_099.txt.gz
Theta_e
320 327 333 338 339 339 339 339 339 341 342 341 340 339 339 339 337 335 335 335 335 334 334 334 334 334 334 334 333 333 333 334 334 333 333 333 332 331 330 330 327 327 330
315 318 323 330 336 339 340 340 340 340 341 341 342 342 341 341 340 338 337 337 336 336 336 336 335 335 335 334 335 335 334 335 335 334 333 329 327 327 325 326 326 327 327
316 314 318 321 329 336 338 339 340 341 341 342 342 341 340 340 340 340 338 338 337 337 336 336 335 336 336 336 334 334 334 334 333 333 331 327 325 322 324 323 323 325 323
313 313 315 318 320 331 337 338 338 338 339 339 339 339 338 338 338 339 338 338 338 337 336 334 334 333 332 333 331 331 328 329 328 332 330 329 328 327 327 322 319 318 319
312 312 312 317 322 322 331 335 337 338 338 338 338 338 338 338 337 338 338 336 337 335 335 334 334 333 332 329 329 325 326 331 332 330 329 328 327 327 325 324 318 317 315
313 311 313 316 317 319 320 329 335 337 338 338 338 338 338 338 337 337 336 335 334 334 334 333 331 330 328 327 324 328 329 328 326 325 325 325 325 324 324 321 319 317 314
312 311 311 312 315 314 317 319 330 336 337 338 338 338 338 337 336 335 335 333 331 328 328 328 328 328 326 322 319 318 318 318 317 318 319 320 322 322 323 324 322 316 311
307 309 309 313 314 315 317 317 319 329 334 336 336 335 334 335 334 332 332 331 329 327 325 325 321 313 313 312 312 312 313 315 316 316 318 319 319 319 321 322 323 319 312
307 307 308 312 315 315 316 317 317 324 329 331 331 331 331 331 331 329 328 328 326 326 327 325 319 315 312 310 310 310 310 310 311 314 315 315 314 316 316 317 319 320 319
308 309 307 310 312 315 315 315 318 322 322 322 322 322 322 325 326 327 326 323 321 320 318 315 314 311 310 309 309 308 307 307 308 312 314 313 312 312 313 315 316 317 317
306 306 307 309 310 312 313 315 316 316 316 316 316 317 318 319 319 319 318 317 315 313 311 310 310 309 308 307 306 305 305 305 306 309 310 309 310 311 311 312 312 313 313
305 305 307 310 311 312 313 313 314 314 314 314 314 314 314 314 314 314 312 311 311 310 308 307 307 306 305 305 304 304 303 304 305 306 307 308 307 308 308 309 309 309 310
307 305 306 307 309 312 313 314 314 313 313 313 313 312 312 311 310 310 309 308 308 307 307 306 304 304 303 303 303 302 302 303 303 304 304 305 305 305 305 305 305 305 306
308 306 305 305 308 310 311 313 313 313 313 313 312 311 310 309 308 307 307 306 307 309 307 305 304 303 302 301 301 301 301 301 301 301 302 302 302 302 302 301 302 303 303
308 307 306 305 306 308 310 311 312 312 312 312 311 310 309 309 308 307 308 308 306 304 304 303 302 301 300 299 299 299 298 299 299 300 300 300 300 300 300 300 300 300 300
304 305 306 305 306 307 309 310 311 311 311 311 311 310 309 307 307 307 305 303 302 303 302 301 300 299 299 298 298 297 297 297 298 298 298 298 298 298 298 298 298 298 299
305 304 303 305 307 308 309 309 310 311 310 310 309 308 308 307 306 304 302 301 301 301 300 299 299 298 298 297 297 296 296 296 297 297 296 296 295 296 295 295 295 295 297
303 303 302 303 305 306 308 309 309 309 309 308 308 307 306 305 303 302 301 301 301 300 300 299 298 297 297 296 296 296 295 295 295 295 295 294 294 293 293 293 292 292 293
304 304 305 305 305 306 306 308 308 308 308 307 307 306 305 304 303 301 301 301 300 299 298 297 297 297 296 295 295 294 293 294 294 294 293 293 292 290 288 288 287 287 287
304 304 304 304 304 305 305 306 306 306 306 307 307 306 304 303 302 302 301 300 299 298 297 296 296 296 295 294 294 293 293 293 292 292 291 290 289 287 289 288 287 287 288
302 303 304 304 305 305 304 305 305 306 307 307 306 305 304 303 303 301 300 299 298 297 296 295 295 295 295 294 293 293 292 292 291 290 289 289 289 288 288 289 287 287 286
302 303 302 302 304 305 304 304 305 306 307 306 305 304 303 302 301 301 300 298 297 296 295 293 293 294 294 293 293 293 291 288 286 286 286 286 287 290 289 287 286 286 286
301 301 301 301 302 303 304 303 303 304 305 305 304 303 302 302 301 300 298 297 296 295 294 293 293 294 294 293 292 291 291 290 289 286 285 285 286 287 288 288 286 287 287
300 301 301 300 300 301 302 304 304 304 304 303 302 302 301 300 299 299 298 297 296 294 293 292 292 293 292 292 292 291 290 291 291 289 286 285 285 286 287 287 287 288 288
299 300 299 299 299 300 301 301 302 303 303 302 301 300 300 299 298 298 298 296 296 295 294 293 293 292 292 293 292 291 289 289 290 289 287 285 286 286 287 286 285 286 287
299 299 298 299 299 300 300 300 301 301 301 300 299 299 298 298 297 297 296 295 295 295 294 293 292 292 292 292 292 291 290 288 287 289 287 286 285 285 286 286 285 285 285

GFSMW_925_thetae_102.txt.gz
Theta_e
319 327 335 338 337 336 336 337 338 332 336 338 337 336 336 337 337 337 336 336 336 335 333 333 333 332 333 333 333 333 332 332 333 333 334 332 331 330 328 327 326 325 327
315 316 323 334 336 337 337 337 337 335 335 336 335 337 337 337 339 338 338 336 335 335 333 333 333 334 334 333 333 333 333 333 334 334 332 325 326 326 325 325 324 325 327
314 314 316 322 332 336 337 336 337 337 337 336 335 337 337 338 338 339 337 336 335 334 334 334 334 334 334 334 334 334 334 331 333 332 330 326 324 323 324 323 324 324 324
312 312 313 317 321 330 336 338 338 338 339 337 337 336 336 337 337 338 338 337 337 336 335 334 334 335 333 332 332 332 331 329 327 326 328 327 329 325 323 321 320 322 320
312 312 311 315 320 322 323 333 336 337 338 338 337 336 336 338 338 337 338 338 337 337 336 335 334 334 333 332 330 329 327 324 328 330 329 328 328 327 324 322 318 318 318
310 311 314 315 316 318 320 321 332 336 337 335 337 337 337 337 337 336 336 336 336 335 335 334 333 332 332 329 327 324 323 325 326 323 322 324 324 323 323 320 318 317 316
309 309 310 311 314 316 317 319 323 331 335 336 337 337 337 335 336 336 335 334 332 331 332 332 330 330 329 326 324 324 322 318 317 317 317 318 318 320 321 322 321 318 315
305 305 309 311 314 315 316 316 318 324 331 334 335 335 334 335 333 334 333 333 331 329 329 329 328 326 324 321 316 313 312 312 313 313 314 315 317 318 318 318 319 319 312
306 305 307 310 312 314 316 316 317 319 324 331 332 332 332 332 331 331 331 330 329 327 326 323 321 320 316 312 311 310 310 309 309 310 311 313 314 314 314 316 316 317 317
308 308 307 307 309 312 313 314 316 316 320 326 329 329 328 327 327 327 328 327 326 324 321 320 318 315 314 310 309 308 308 307 307 308 310 312 312 311 311 312 313 314 314
306 307 307 308 309 311 312 314 315 317 320 321 321 320 320 322 324 324 324 324 323 321 318 314 312 309 308 307 307 306 306 306 305 306 308 309 309 309 309 310 311 312 312
304 304 305 308 309 310 312 314 316 317 317 317 316 315 316 318 319 318 318 317 316 312 310 308 308 307 306 306 306 305 304 304 304 304 305 306 307 307 307 308 308 309 309
306 304 304 304 307 310 311 311 312 313 313 313 313 313 313 314 314 313 311 310 309 308 307 307 307 306 307 305 304 303 302 301 302 302 303 303 304 304 304 304 304 304 304
307 306 305 305 306 308 310 311 311 312 312 312 312 312 311 311 310 309 308 307 306 306 306 306 307 305 302 301 302 301 300 300 300 300 301 301 301 301 301 302 301 301 302
307 307 306 305 305 308 309 310 311 312 312 311 311 311 310 309 308 307 306 305 306 308 306 303 302 300 302 301 300 299 299 298 299 299 299 299 300 300 300 299 299 299 300
306 304 303 304 305 306 308 309 311 311 311 311 310 309 308 307 306 306 306 307 306 303 302 301 301 301 300 299 298 298 297 297 297 298 298 298 298 298 298 298 297 298 298
306 304 303 302 304 306 307 309 309 311 310 310 309 308 308 307 306 306 306 304 302 301 301 301 301 300 299 298 297 297 297 296 296 297 297 296 296 296 296 296 295 295 296
304 302 301 302 304 304 305 307 308 309 310 309 309 308 307 306 305 305 303 301 300 300 300 300 299 298 298 297 297 297 295 295 295 296 295 295 295 294 293 293 293 293 293
303 303 304 304 305 305 305 304 306 308 308 309 308 307 307 306 305 302 301 300 300 300 300 299 298 298 297 296 296 295 295 294 294 294 294 294 293 292 291 289 288 288 288
303 303 303 303 304 304 304 304 304 305 306 308 308 308 307 306 303 302 301 300 300 300 299 299 297 297 296 296 295 294 294 293 293 293 292 292 291 289 289 289 287 287 287
302 303 303 302 303 304 304 304 303 304 307 307 307 306 305 304 303 302 301 300 299 299 298 297 296 295 296 296 295 294 294 293 292 292 291 290 289 290 289 289 289 287 287
302 302 301 301 302 303 304 303 303 304 305 306 306 305 304 303 302 301 300 299 298 297 296 296 296 295 295 295 294 294 294 293 289 287 286 286 286 287 290 288 288 286 287
300 301 300 300 301 302 303 303 303 304 305 305 305 304 303 302 301 301 299 298 297 296 296 295 294 295 294 294 294 293 292 293 291 289 287 285 285 286 289 289 288 287 287
300 300 299 299 299 300 301 302 303 303 303 303 302 302 302 300 300 300 299 298 297 296 295 294 294 294 294 293 293 293 292 292 292 291 290 287 285 285 286 288 288 287 288
299 299 298 298 298 299 299 300 301 302 302 302 301 300 300 300 299 299 299 298 297 297 296 295 294 293 293 293 293 293 292 291 290 291 290 288 286 286 286 286 286 286 287
299 298 298 298 298 298 298 299 300 301 301 300 300 299 299 298 298 298 296 296 296 296 295 295 294 293 293 293 292 292 292 291 289 289 289 288 287 285 285 286 286 286 285

GFSMW_925_thetae_105.txt.gz
Theta_e
325 334 335 333 332 333 328 327 327 328 334 338 336 335 335 334 331 331 331 332 334 334 334 334 333 332 332 332 331 330 329 331 331 332 333 332 331 330 328 326 324 324 325
319 323 334 335 332 332 331 331 328 328 335 338 335 335 334 335 335 334 335 335 335 335 335 334 333 332 332 331 331 330 331 331 332 332 331 332 328 325 325 325 324 324 324
316 316 321 331 334 334 333 332 330 333 334 333 330 326 330 334 335 334 335 335 336 336 335 335 333 332 332 332 332 332 331 332 331 329 330 330 330 325 324 323 323 324 324
315 314 316 318 328 333 335 334 334 335 333 332 333 329 328 332 335 332 327 334 334 334 334 334 333 332 332 332 332 332 331 329 326 325 327 330 328 330 329 322 321 321 321
315 315 314 315 318 325 332 334 335 334 333 335 335 334 331 332 332 328 333 334 336 336 336 335 333 332 333 332 332 330 329 328 325 325 327 328 328 327 328 328 321 317 318
314 314 314 314 315 317 320 326 333 335 334 334 335 335 334 334 334 334 334 334 335 336 336 335 334 333 333 332 331 329 328 327 324 326 325 324 324 324 324 323 322 321 319
315 314 313 312 313 314 316 319 322 330 334 333 335 335 335 333 333 333 334 333 332 333 334 333 332 332 332 331 330 328 325 324 323 319 317 317 318 320 320 320 320 320 316
310 310 311 312 313 315 315 315 319 323 330 334 335 335 335 333 334 333 333 333 333 331 330 331 331 330 329 328 325 324 322 317 314 314 314 315 316 317 317 317 318 318 317
308 307 306 308 311 314 316 315 315 320 326 331 332 332 333 334 332 331 332 332 332 330 328 328 328 327 324 321 317 313 311 310 310 310 310 312 313 313 313 314 315 314 315
309 310 307 306 309 311 314 314 314 316 321 326 330 331 330 330 331 330 330 329 329 328 326 324 321 318 314 311 310 309 308 307 307 307 308 310 311 311 311 311 312 313 312
307 308 308 306 308 310 312 313 314 316 318 322 326 328 326 325 325 325 326 324 325 323 320 317 316 314 312 309 307 307 306 306 306 306 306 307 308 309 309 309 310 310 311
305 306 307 307 308 310 312 313 314 315 318 321 321 320 319 320 321 322 322 323 322 318 318 316 313 308 307 306 306 306 306 305 305 305 305 305 305 306 307 307 307 307 308
306 305 305 306 308 309 310 312 314 315 316 316 315 315 315 317 318 318 319 319 318 315 311 309 307 306 305 306 305 304 304 303 303 303 303 303 303 304 304 304 303 303 303
307 306 305 305 306 308 310 311 311 312 312 313 313 313 313 314 314 313 312 311 310 308 306 305 305 305 305 304 303 302 301 301 301 301 301 301 301 301 300 301 301 301 300
306 305 306 305 305 306 308 309 311 312 312 312 311 311 310 310 309 308 307 306 305 305 305 306 305 303 302 301 301 300 300 300 299 299 299 299 299 299 299 299 299 299 299
307 306 304 303 305 306 306 308 309 310 311 311 310 309 308 308 307 306 305 305 305 306 304 302 302 301 300 299 299 299 299 298 298 298 298 298 298 298 298 298 298 298 298
306 306 304 302 303 305 307 307 308 310 310 310 309 308 307 306 305 304 304 305 305 302 301 301 300 300 299 298 298 298 297 297 296 297 297 297 296 296 296 296 296 296 296
305 304 302 302 304 304 304 305 307 308 309 309 309 308 307 306 304 304 304 304 302 301 301 300 300 299 298 298 297 297 297 296 296 296 296 296 295 295 294 294 293 293 292
303 303 303 303 303 304 304 304 305 306 307 308 308 308 307 306 305 304 303 302 300 300 300 300 299 298 298 297 296 296 296 295 295 294 294 294 294 293 292 291 289 288 289
302 302 303 303 303 303 304 303 303 304 306 307 308 308 307 306 304 304 302 300 300 300 299 299 298 297 297 297 296 295 295 294 293 293 293 293 293 291 289 290 289 287 287
302 302 302 302 302 303 303 303 303 303 304 305 307 307 306 306 305 302 300 299 299 299 298 298 297 297 297 296 295 295 295 294 293 293 293 292 291 290 289 290 289 288 287
301 301 301 301 301 301 302 302 302 304 303 304 306 306 305 304 303 301 299 299 299 298 297 296 295 295 295 296 295 295 294 294 293 291 289 287 287 287 290 290 289 287 287
300 300 300 300 300 300 300 301 302 303 303 304 304 304 303 303 302 301 299 298 297 297 296 295 295 295 295 295 295 295 294 294 293 292 289 287 285 286 288 290 289 288 287
299 299 299 298 298 298 299 300 301 302 302 302 303 302 302 301 300 300 299 299 297 296 296 295 295 295 294 294 294 294 294 294 293 292 291 290 287 285 286 287 288 288 287
299 298 298 297 297 298 299 299 300 301 301 301 301 300 300 300 299 299 299 298 298 298 297 297 296 295 294 294 294 294 294 293 292 291 291 289 288 286 286 286 287 287 287
298 298 297 297 297 298 298 299 300 301 301 300 299 299 299 299 298 297 296 297 297 297 296 296 295 295 294 294 293 293 293 293 291 290 289 289 288 287 286 285 286 286 286

GFSMW_925_thetae_108.txt.gz
Theta_e
332 333 333 332 333 333 332 335 337 340 340 338 337 336 335 334 333 333 332 334 335 337 337 337 336 335 334 333 333 331 331 332 333 333 334 334 334 333 331 328 328 327 326
331 334 333 332 332 332 332 330 334 337 336 336 336 336 337 337 336 335 334 334 334 335 337 337 336 335 334 333 333 331 332 333 333 332 331 331 330 329 328 327 326 326 326
331 333 334 333 327 332 331 332 333 337 336 337 335 330 329 330 333 336 336 335 334 335 335 335 336 335 334 332 331 332 333 333 331 328 330 331 330 328 327 325 325 324 324
320 325 330 333 328 332 331 329 329 333 333 333 331 331 328 328 332 331 333 333 330 332 333 333 333 333 332 332 331 331 332 331 329 327 326 327 328 330 330 325 323 322 322
320 320 319 324 333 331 329 333 329 330 329 329 327 327 330 328 327 329 330 327 325 331 330 332 333 332 332 331 331 331 332 330 328 325 328 328 329 329 329 327 324 322 321
321 320 319 318 320 327 332 334 333 331 330 331 329 331 331 329 329 327 328 327 327 327 331 333 333 332 332 332 331 332 331 329 324 326 326 327 327 324 324 324 322 322 321
321 320 319 317 317 319 321 329 334 334 333 333 333 330 332 331 332 328 330 329 330 331 332 333 332 332 332 332 332 331 329 328 325 325 324 323 322 321 321 320 320 320 320
319 319 318 319 317 318 319 321 326 333 334 334 333 333 332 333 332 332 332 332 331 330 331 332 331 333 332 332 331 330 328 327 324 323 318 317 319 318 319 318 318 319 318
316 316 314 316 317 317 318 319 322 326 331 333 334 333 332 332 332 331 331 330 330 330 330 331 331 330 330 329 328 325 324 322 317 314 316 316 316 316 316 316 316 316 317
315 315 313 311 312 313 316 316 318 323 327 330 331 331 331 332 331 331 329 330 329 328 328 327 327 327 326 324 322 318 314 311 310 310 311 313 313 314 314 314 314 314 313
315 315 313 311 310 311 313 314 316 319 324 328 328 327 327 328 329 326 326 327 327 326 325 325 323 319 316 313 310 309 308 308 308 308 310 311 311 311 311 311 311 312 311
312 314 313 312 311 313 314 315 316 318 320 322 324 324 322 324 322 323 324 324 325 324 323 320 317 313 312 309 307 306 306 307 307 307 307 308 306 308 308 309 309 309 309
310 311 313 314 313 313 313 314 315 316 316 317 318 317 317 318 317 318 320 321 322 319 316 315 312 310 307 305 305 305 305 304 304 304 304 304 305 306 306 306 306 306 305
311 311 311 311 312 313 313 314 314 314 314 314 314 314 314 314 314 316 317 319 317 315 312 309 307 305 305 305 305 304 303 303 302 302 302 302 303 304 303 303 303 303 302
311 310 311 310 310 311 312 312 312 311 311 311 311 311 311 311 312 313 313 312 309 307 306 305 305 305 305 304 303 302 302 301 301 300 300 299 300 300 300 300 302 301 300
312 311 309 308 309 309 310 310 311 311 311 311 310 309 308 307 306 306 305 305 304 304 304 303 304 303 302 302 302 302 300 300 300 300 299 298 299 298 298 299 298 298 299
311 310 309 307 307 307 308 309 310 310 310 310 309 308 307 306 305 304 303 303 303 303 303 303 302 300 300 300 300 299 299 298 298 298 298 297 297 297 297 297 296 296 296
310 309 307 307 306 306 306 306 307 309 309 310 309 308 306 306 304 303 303 303 303 302 302 301 300 300 299 299 299 298 297 297 297 297 297 296 295 296 295 294 293 293 293
307 307 306 305 305 305 304 304 306 307 308 309 309 308 306 305 304 303 303 302 302 301 301 300 300 300 298 298 297 297 296 296 295 295 295 295 295 294 294 292 290 289 289
305 305 305 305 305 305 304 305 305 305 307 308 308 307 306 305 304 303 302 301 301 301 299 299 298 298 298 298 297 296 296 295 294 293 294 294 293 293 292 292 290 289 288
303 304 304 304 303 303 303 304 305 305 305 305 306 306 305 304 303 303 301 300 299 298 296 297 297 297 297 296 296 296 295 295 294 293 292 293 292 292 290 290 290 289 288
302 302 302 302 301 301 301 304 305 304 303 303 304 305 304 303 303 301 300 298 296 296 296 296 296 296 295 296 296 295 295 294 293 292 291 291 291 290 289 290 290 288 287
302 301 301 301 300 299 299 301 303 302 302 303 304 304 303 301 301 299 297 295 296 296 296 298 297 296 295 295 296 294 294 294 294 294 291 287 286 286 287 290 290 289 288
301 300 301 302 301 299 298 299 300 301 302 303 303 302 302 300 299 297 297 296 295 298 298 298 297 297 294 294 294 294 294 294 294 294 292 291 289 287 287 288 290 289 288
300 300 300 299 299 298 298 298 299 300 301 302 301 300 300 298 297 297 297 297 298 298 298 297 297 296 295 295 295 294 293 294 294 293 292 290 289 288 287 288 288 288 288
299 299 298 297 298 297 297 298 299 300 301 300 299 298 298 297 297 296 296 297 298 299 298 298 298 296 296 295 295 294 294 293 292 291 290 289 289 289 288 287 287 287 287

GFSMW_925_thetae_111.txt.gz
Theta_e
333 331 332 332 331 330 336 339 338 336 336 336 335 333 332 332 334 337 339 338 336 336 336 337 337 336 335 335 334 333 332 332 333 334 332 334 333 333 333 332 329 328 328
333 333 333 332 332 330 331 332 337 337 337 337 336 336 335 334 333 333 333 334 335 336 335 336 336 336 336 335 335 334 332 333 333 333 332 331 329 331 330 328 328 327 327
334 333 333 333 332 331 330 330 330 335 336 337 337 336 336 336 336 336 335 335 335 335 336 336 337 337 335 335 334 333 333 333 332 331 330 332 332 329 329 328 327 326 326
333 331 333 333 331 327 326 329 327 330 336 336 336 335 332 333 334 334 333 333 334 335 335 335 335 335 335 335 333 331 333 333 331 328 326 327 329 330 330 328 326 325 325
330 332 333 333 331 327 324 329 329 330 330 332 331 330 329 328 330 329 330 332 330 330 330 333 331 330 332 332 332 332 332 332 330 328 329 328 329 329 330 330 327 324 323
323 324 330 334 330 330 333 330 329 329 330 330 330 329 329 328 329 328 328 328 328 328 326 330 330 330 328 326 331 332 331 331 331 329 327 328 328 328 328 326 324 323 322
323 322 321 322 327 330 332 330 330 330 329 329 328 328 330 329 327 327 326 324 326 327 327 327 329 328 327 328 332 332 332 331 330 328 325 326 327 325 322 322 321 320 320
323 322 321 320 321 324 328 331 332 331 331 330 329 327 330 328 326 326 326 325 327 328 328 327 330 330 330 331 332 332 331 331 329 327 325 324 322 320 320 320 319 320 319
317 322 321 320 319 320 323 326 330 332 331 331 330 330 331 330 328 327 327 328 330 329 329 329 329 330 331 330 329 330 330 329 327 324 322 318 318 318 318 318 318 318 318
316 319 316 316 318 319 320 321 324 327 332 334 333 333 332 332 332 331 331 330 331 331 330 329 330 329 329 329 328 327 325 324 322 318 315 315 315 315 315 315 316 316 315
317 317 315 313 312 313 316 319 320 324 327 333 333 331 332 333 333 332 331 331 329 329 328 328 327 327 326 325 324 320 318 314 313 311 313 313 313 313 313 313 313 313 312
314 316 315 313 313 313 313 316 317 320 324 329 330 329 329 329 329 329 327 326 326 325 325 325 325 323 321 316 312 312 310 309 309 309 310 311 310 310 311 311 311 311 309
312 314 316 315 314 315 315 316 317 319 323 326 327 327 325 325 324 322 321 322 322 320 318 318 318 316 312 309 309 308 308 308 308 307 307 307 307 308 308 308 308 308 307
312 312 313 314 315 315 315 316 317 318 318 320 320 320 320 321 320 318 317 318 317 317 315 313 311 310 308 307 306 306 306 305 305 305 305 305 305 305 306 305 305 305 304
313 312 311 312 312 314 314 315 315 315 315 315 316 316 316 316 315 315 315 315 313 313 313 310 308 307 306 305 305 305 304 304 303 302 302 302 302 302 302 302 303 302 302
313 312 311 310 310 311 311 313 313 313 313 313 313 312 311 311 311 311 311 311 311 309 308 306 305 304 304 304 304 304 303 303 302 302 301 300 300 299 299 299 300 300 300
312 311 309 309 308 308 309 311 312 312 313 312 311 310 309 309 308 308 307 306 305 305 304 303 303 303 304 302 302 302 302 301 301 301 300 299 297 298 298 298 297 297 297
310 310 309 309 308 308 308 307 309 310 311 312 311 309 308 308 307 306 305 305 304 304 303 303 303 302 302 301 301 301 300 299 299 299 299 299 297 296 296 295 294 294 294
308 308 308 307 307 307 307 307 307 308 310 311 311 310 308 307 306 305 305 304 304 303 303 303 302 301 301 299 300 299 298 298 298 297 297 297 296 294 295 294 293 292 291
307 306 306 307 307 306 306 306 307 307 308 309 310 310 309 307 306 305 304 303 303 303 302 301 300 300 300 298 299 298 298 297 297 295 295 295 294 294 294 293 292 291 290
305 305 305 306 306 304 304 306 307 307 307 307 308 309 309 307 306 305 303 302 302 300 299 299 299 299 299 299 297 298 297 297 296 295 294 294 294 294 293 291 292 291 289
303 303 303 304 304 303 303 305 306 306 305 306 305 307 307 306 305 303 302 300 299 298 298 298 298 298 298 298 297 297 297 296 295 294 293 293 293 292 292 291 291 290 288
304 303 303 303 302 301 301 302 303 303 304 304 305 306 306 304 303 302 300 299 298 299 299 299 299 298 297 297 297 296 296 296 295 294 292 289 287 287 287 288 291 289 289
303 302 303 303 303 301 301 300 300 302 303 304 305 305 305 303 302 300 298 299 299 299 299 300 300 298 297 296 296 296 295 295 295 294 293 290 289 288 288 289 291 290 289
302 302 301 301 300 300 300 299 299 301 303 304 304 304 304 302 301 299 297 298 298 300 301 300 299 299 296 296 296 296 296 295 294 294 293 291 290 289 288 288 288 290 289
301 300 299 299 299 299 299 297 298 299 302 302 302 301 299 298 298 297 296 297 298 298 299 299 299 298 298 297 296 295 294 294 294 293 292 291 290 290 289 288 288 288 288

GFSMW_925_thetae_114.txt.gz
Theta_e
330 329 327 326 325 327 327 327 327 334 332 335 335 335 334 334 333 334 333 332 332 331 333 336 335 334 333 334 333 332 331 331 332 332 332 333 333 333 333 333 331 328 327
331 330 330 329 330 331 330 333 331 332 330 331 332 335 336 336 336 334 336 335 335 335 334 336 336 336 335 335 335 334 332 331 332 332 332 327 329 331 332 331 328 327 327
333 332 331 331 331 331 330 329 330 333 332 332 332 332 332 332 333 333 336 336 336 337 336 334 335 336 335 335 335 334 333 333 333 332 329 328 327 328 330 329 327 327 326
332 331 330 331 331 330 328 326 328 331 333 333 334 334 334 335 334 333 333 333 334 334 335 336 336 335 334 334 334 333 332 333 332 331 331 329 329 326 327 327 327 326 325
331 329 329 331 329 329 328 326 325 327 329 332 333 333 334 335 335 335 334 335 335 335 334 333 333 333 332 334 332 332 332 331 331 330 329 327 327 328 327 325 325 325 324
329 328 327 331 329 324 326 326 325 325 328 329 329 330 330 330 330 332 332 331 330 329 327 327 332 330 328 329 330 328 329 331 331 329 330 328 327 327 327 325 324 322 323
324 324 329 332 329 324 326 328 326 326 326 329 328 329 329 328 329 329 329 328 327 327 327 327 326 326 327 327 329 329 330 329 330 330 330 328 326 327 325 322 320 318 320
320 322 321 324 328 328 328 330 329 327 325 325 327 328 329 329 329 328 327 327 325 324 325 324 324 324 324 327 329 327 328 331 331 331 328 327 326 325 323 320 319 317 317
318 320 319 320 322 325 329 330 329 328 328 329 328 328 329 330 329 327 326 326 326 325 327 326 326 327 324 328 330 330 330 332 331 330 327 325 324 321 318 318 318 317 315
315 314 315 316 318 320 324 329 330 330 329 329 329 328 329 329 329 329 329 327 324 325 325 325 327 326 326 329 330 330 330 329 327 326 326 323 318 317 316 316 316 316 315
315 314 312 312 311 314 320 323 327 329 329 329 329 329 329 329 330 330 328 324 327 328 328 327 327 328 328 329 327 328 327 326 324 322 318 316 314 314 314 314 314 314 314
313 313 312 312 312 312 316 318 319 323 326 330 332 332 332 333 332 331 330 330 330 329 329 329 327 325 326 326 325 324 323 320 316 313 312 313 313 312 312 312 312 311 311
309 311 312 312 314 314 314 316 317 320 325 329 328 329 329 331 331 331 330 329 328 328 325 324 323 324 322 320 320 319 315 312 310 310 309 310 310 308 309 309 309 309 308
309 308 309 312 313 315 316 317 319 321 325 326 326 326 324 325 326 325 324 323 323 323 321 319 319 319 316 313 312 309 308 309 308 308 307 307 307 306 307 307 307 306 305
310 308 307 307 310 313 314 315 316 317 319 321 322 321 320 320 320 320 318 318 319 319 318 318 316 313 311 308 308 308 307 307 306 305 305 305 305 304 305 304 303 303 303
310 308 307 306 307 308 312 313 313 313 315 315 316 319 318 317 316 315 315 316 315 314 314 312 311 309 308 307 307 306 306 305 304 304 303 302 302 301 301 301 300 301 301
308 308 307 306 307 307 308 309 311 312 313 312 312 312 312 312 312 312 312 312 311 310 310 308 307 306 306 306 304 304 304 303 303 302 301 300 300 299 299 299 299 298 298
306 306 305 306 307 307 306 307 308 311 312 312 310 310 309 309 309 309 308 308 308 307 307 306 305 305 304 303 302 303 302 302 301 300 300 299 298 298 297 297 296 296 295
305 305 306 306 307 306 306 306 307 307 309 311 311 310 309 308 308 307 307 307 306 305 304 304 303 304 302 301 301 302 301 300 299 299 298 298 298 297 296 295 295 294 293
306 305 305 306 306 305 304 305 306 307 307 307 309 311 309 308 307 306 305 305 305 304 303 303 303 302 302 300 300 300 299 298 298 297 297 297 296 296 295 295 294 292 292
304 303 304 304 304 304 304 304 305 306 306 307 306 309 310 308 307 306 305 305 304 303 302 302 301 301 301 300 300 299 298 298 297 296 296 296 295 294 294 294 293 292 291
304 303 303 303 303 302 302 302 303 303 304 304 305 306 308 308 307 306 304 304 302 301 301 300 300 300 300 300 299 298 298 297 297 296 295 294 294 294 293 293 292 291 291
303 303 302 303 303 301 301 301 301 301 302 303 304 305 306 307 306 304 303 301 300 299 299 298 298 299 299 299 299 298 297 296 296 295 294 293 292 292 291 291 291 291 289
303 302 302 302 301 301 300 300 300 300 302 303 304 305 306 304 303 302 302 300 299 298 298 299 298 298 298 298 297 297 297 296 295 295 294 293 289 287 286 287 288 291 290
302 301 301 300 300 299 299 298 298 300 302 303 304 304 304 304 302 301 300 299 299 300 299 299 300 299 298 298 298 297 297 296 295 295 294 293 291 290 289 288 288 288 290
301 300 300 300 299 299 298 297 298 299 300 301 302 302 302 302 301 300 298 298 298 299 300 300 300 299 299 299 297 296 296 296 296 295 294 293 292 291 290 289 288 288 289

GFSMW_925_thetae_117.txt.gz
Theta_e
330 328 327 325 325 326 326 328 329 332 332 330 329 328 329 331 331 330 329 329 329 329 327 326 327 327 328 329 329 330 330 330 331 331 331 331 332 333 332 332 330 328 327
330 328 327 327 327 327 327 328 330 332 333 331 331 329 328 328 329 329 328 327 327 326 329 333 332 331 332 332 332 331 331 330 331 333 331 328 328 332 332 331 330 327 327
331 330 329 329 329 329 329 331 329 330 332 334 333 332 331 331 331 328 328 328 328 330 333 336 335 333 334 334 334 333 333 331 331 332 329 326 324 326 329 328 327 327 326
330 330 330 330 330 330 329 328 331 332 332 332 332 332 332 333 333 334 333 333 333 332 333 335 336 336 335 335 335 334 333 332 332 331 332 329 328 324 327 327 327 326 325
331 330 330 330 329 328 327 326 331 331 331 330 331 330 330 331 334 333 335 335 336 335 335 334 335 335 335 334 333 332 331 332 332 331 326 325 328 327 325 324 325 326 325
329 327 328 329 329 327 326 324 328 329 328 328 326 327 327 331 331 333 333 334 335 334 335 336 335 334 333 332 331 330 329 329 329 330 326 326 328 327 327 323 323 323 324
329 327 329 327 326 326 327 324 326 327 328 328 326 327 328 328 329 331 333 334 334 333 332 329 330 332 328 327 327 327 326 327 329 329 328 327 327 328 326 324 320 318 320
324 325 326 328 327 324 325 326 325 326 326 328 327 327 328 328 329 329 329 330 331 329 327 327 328 329 328 326 326 326 327 326 326 328 329 329 328 327 327 325 320 316 316
315 320 321 324 327 327 325 328 326 325 326 325 327 325 325 326 328 327 328 328 327 327 327 326 326 326 325 326 325 328 329 329 328 329 329 330 327 326 324 322 319 316 312
314 313 312 314 320 326 328 328 327 326 325 325 325 323 324 324 325 326 327 326 326 326 325 325 326 326 328 328 326 326 327 329 329 329 329 326 325 324 321 317 317 317 316
313 312 310 311 311 315 320 327 329 327 326 326 326 325 325 326 326 326 325 327 326 326 326 327 327 327 327 326 325 325 326 327 329 327 327 325 322 318 316 315 314 315 315
310 312 311 312 313 312 316 322 326 328 328 326 326 325 325 327 328 327 326 327 327 327 325 327 326 324 325 324 326 326 325 326 326 324 322 317 315 314 313 313 313 313 312
306 309 311 310 312 314 314 316 318 323 326 327 328 328 328 327 327 328 328 327 328 327 325 325 326 328 328 326 325 325 324 322 321 318 315 313 313 312 311 311 311 310 310
306 306 306 309 311 313 314 317 319 323 326 326 326 326 326 326 327 325 327 327 327 327 326 326 325 324 324 323 322 320 318 316 313 311 310 310 310 309 308 308 308 308 307
306 306 305 304 305 310 312 314 315 317 321 322 323 323 323 323 323 323 324 325 325 324 323 322 321 320 319 319 318 314 312 310 309 308 308 307 307 306 306 306 306 305 304
306 306 305 304 304 305 308 311 312 313 316 317 318 318 318 320 319 318 318 318 317 317 316 316 316 314 312 312 311 310 309 308 307 306 305 305 304 304 304 303 303 302 302
305 305 303 304 305 305 306 307 311 312 312 313 314 315 315 317 317 317 316 315 315 315 313 312 311 309 308 308 308 308 307 306 305 305 304 302 302 301 301 300 300 300 300
304 303 303 304 305 305 305 306 307 310 311 311 311 311 311 312 312 313 313 313 313 313 311 310 309 308 307 307 308 308 305 304 303 303 302 302 300 300 299 299 298 297 297
303 304 304 304 304 304 304 305 306 306 307 310 311 310 310 310 310 310 309 309 310 309 309 309 307 307 305 305 304 303 303 302 302 301 301 300 299 298 298 297 297 296 295
303 303 303 304 303 302 303 305 305 306 306 306 306 310 310 309 308 308 307 307 306 306 306 305 305 304 304 302 302 302 302 301 300 299 299 298 298 297 297 296 295 294 294
303 303 303 302 302 302 302 302 303 302 303 304 305 306 309 309 308 307 306 306 305 305 304 303 303 303 303 301 300 300 300 300 299 298 297 297 297 296 296 295 295 294 293
303 302 302 302 302 301 301 300 300 301 302 303 303 304 305 308 308 306 305 304 304 303 302 302 301 302 302 301 300 299 299 299 298 297 296 296 295 295 295 294 293 292 291
303 302 302 301 301 300 300 299 299 300 301 302 303 304 305 306 307 306 305 303 302 302 301 300 300 300 300 300 300 299 298 298 297 297 296 295 294 294 293 293 293 292 291
303 302 301 300 300 299 299 298 299 300 301 302 303 304 305 305 305 304 303 302 301 299 299 298 298 299 299 299 299 299 298 297 296 295 294 293 292 290 290 290 290 292 291
302 301 301 300 300 299 299 299 299 299 300 301 302 303 304 304 303 303 302 301 301 300 299 299 299 298 298 299 299 299 298 298 296 295 294 292 290 288 288 287 288 289 290
301 300 300 300 299 299 298 297 298 298 299 299 300 300 300 301 301 301 301 300 300 299 299 299 300 300 300 300 300 298 298 298 297 295 293 292 292 292 291 290 289 287 287